| time (UTC) | temp F | wind direction | speed knots | gust knots | rain 1hr in | rain 24hr in | rain mn in | humidity % | barometer mb |
| 20260906051515 | 71 | 5 | 0.9 | 6.1 | 0.00 | 0.00 | 0.00 | 49 | 1022.8 |
| 20260906051503 | 71 | 295 | 1.7 | 6.1 | 0.00 | 0.00 | 0.00 | 50 | 1022.4 |
| 20260906051403 | 71 | 297 | 1.7 | 6.1 | 0.00 | 0.00 | 0.00 | 50 | 1022.4 |
| 20260906051303 | 71 | 298 | 1.7 | 7.8 | 0.00 | 0.00 | 0.00 | 50 | 1022.4 |
| 20260906051103 | 71 | 308 | 1.7 | 7.8 | 0.00 | 0.00 | 0.00 | 50 | 1022.4 |
| 20260906051008 | 71 | 292 | 0.9 | 7.0 | 0.00 | 0.00 | 0.00 | 49 | 1022.7 |
| 20260906051003 | 71 | 307 | 1.7 | 7.8 | 0.00 | 0.00 | 0.00 | 50 | 1022.4 |
| 20260906050903 | 71 | 306 | 1.7 | 7.8 | 0.00 | 0.00 | 0.00 | 50 | 1022.5 |
| 20260906050703 | 71 | 305 | 1.7 | 7.8 | 0.00 | 0.00 | 0.00 | 50 | 1022.4 |
| 20260906050603 | 71 | 310 | 1.7 | 7.8 | 0.00 | 0.00 | 0.00 | 50 | 1022.4 |
| 20260906050511 | 70 | 299 | 0.9 | 7.0 | 0.00 | 0.00 | 0.00 | 49 | 1022.7 |
| 20260906050503 | 71 | 309 | 1.7 | 7.8 | 0.00 | 0.00 | 0.00 | 50 | 1022.4 |
| 20260906050417 | 71 | 311 | 1.7 | 7.8 | 0.00 | 0.00 | 0.00 | 50 | 1022.4 |
| 20260906050303 | 71 | 307 | 1.7 | 7.8 | 0.00 | 0.00 | 0.00 | 50 | 1022.4 |
| 20260906050018 | 70 | 296 | 1.7 | 7.0 | 0.00 | 0.00 | 0.00 | 50 | 1022.6 |
| 20260906050003 | 71 | 286 | 1.7 | 7.8 | 0.00 | 0.00 | 0.00 | 50 | 1022.3 |
| 20260906045903 | 71 | 285 | 1.7 | 7.8 | 0.00 | 0.00 | 0.00 | 51 | 1022.3 |
| 20260906045803 | 71 | 289 | 1.7 | 7.8 | 0.00 | 0.00 | 0.00 | 51 | 1022.3 |
| 20260906045717 | 70 | 292 | 1.7 | 7.8 | 0.00 | 0.00 | 0.00 | 51 | 1022.3 |
| 20260906045603 | 70 | 299 | 1.7 | 7.8 | 0.00 | 0.00 | 0.00 | 51 | 1022.3 |
| 20260906045517 | 70 | 142 | 0.9 | 7.8 | 0.00 | 0.00 | 0.00 | 51 | 1022.6 |
| 20260906045305 | 70 | 295 | 1.7 | 7.8 | 0.00 | 0.00 | 0.00 | 51 | 1022.3 |
| 20260906045203 | 70 | 292 | 1.7 | 7.8 | 0.00 | 0.00 | 0.00 | 51 | 1022.3 |
| 20260906045103 | 70 | 286 | 1.7 | 7.8 | 0.00 | 0.00 | 0.00 | 51 | 1022.3 |
| 20260906045011 | 70 | 290 | 2.6 | 7.8 | 0.00 | 0.00 | 0.00 | 51 | 1022.6 |
| 20260906045003 | 70 | 282 | 1.7 | 7.0 | 0.00 | 0.00 | 0.00 | 52 | 1022.3 |
| 20260906044903 | 70 | 282 | 1.7 | 7.0 | 0.00 | 0.00 | 0.00 | 52 | 1022.3 |
| 20260906044703 | 70 | 270 | 1.7 | 7.0 | 0.00 | 0.00 | 0.00 | 52 | 1022.2 |
| 20260906044603 | 70 | 268 | 1.7 | 7.0 | 0.00 | 0.00 | 0.00 | 52 | 1022.2 |
| 20260906044524 | 70 | 284 | 1.7 | 7.0 | 0.00 | 0.00 | 0.00 | 51 | 1022.5 |
| 20260906044517 | 70 | 267 | 1.7 | 7.0 | 0.00 | 0.00 | 0.00 | 52 | 1022.2 |
| 20260906044403 | 70 | 269 | 1.7 | 7.0 | 0.00 | 0.00 | 0.00 | 52 | 1022.1 |
| 20260906044203 | 70 | 276 | 1.7 | 7.0 | 0.00 | 0.00 | 0.00 | 52 | 1022.1 |
| 20260906044103 | 70 | 279 | 1.7 | 7.0 | 0.00 | 0.00 | 0.00 | 52 | 1022.1 |
| 20260906044014 | 69 | 241 | 3.5 | 7.0 | 0.00 | 0.00 | 0.00 | 52 | 1022.4 |
| 20260906043903 | 70 | 293 | 1.7 | 7.0 | 0.00 | 0.00 | 0.00 | 52 | 1022.1 |
| 20260906043803 | 70 | 299 | 1.7 | 7.0 | 0.00 | 0.00 | 0.00 | 52 | 1022.1 |
| 20260906043703 | 70 | 318 | 1.7 | 7.0 | 0.00 | 0.00 | 0.00 | 52 | 1022.0 |
| 20260906043603 | 70 | 324 | 1.7 | 7.0 | 0.00 | 0.00 | 0.00 | 52 | 1022.0 |
| 20260906043514 | 69 | 91 | 0.9 | 6.1 | 0.00 | 0.00 | 0.00 | 52 | 1022.3 |
| 20260906043503 | 70 | 316 | 1.7 | 7.0 | 0.00 | 0.00 | 0.00 | 52 | 1022.0 |
| 20260906043303 | 70 | 310 | 1.7 | 7.0 | 0.00 | 0.00 | 0.00 | 52 | 1022.0 |
| 20260906043203 | 70 | 302 | 1.7 | 7.0 | 0.00 | 0.00 | 0.00 | 52 | 1022.0 |
| 20260906043103 | 70 | 300 | 1.7 | 7.0 | 0.00 | 0.00 | 0.00 | 52 | 1022.0 |
| 20260906043011 | 69 | 315 | 1.7 | 6.1 | 0.00 | 0.00 | 0.00 | 52 | 1022.2 |
| 20260906043003 | 70 | 298 | 1.7 | 3.5 | 0.00 | 0.00 | 0.00 | 53 | 1022.0 |
| 20260906042803 | 70 | 292 | 1.7 | 3.5 | 0.00 | 0.00 | 0.00 | 53 | 1022.0 |
| 20260906042703 | 70 | 283 | 1.7 | 3.5 | 0.00 | 0.00 | 0.00 | 53 | 1021.9 |
| 20260906042603 | 70 | 283 | 1.7 | 7.0 | 0.00 | 0.00 | 0.00 | 53 | 1021.9 |
| 20260906042503 | 70 | 274 | 1.7 | 7.0 | 0.00 | 0.00 | 0.00 | 53 | 1021.9 |
| 20260906042403 | 70 | 270 | 1.7 | 7.0 | 0.00 | 0.00 | 0.00 | 53 | 1021.9 |
| 20260906042306 | 70 | 269 | 1.7 | 7.0 | 0.00 | 0.00 | 0.00 | 53 | 1021.9 |
| 20260906042203 | 70 | 284 | 1.7 | 7.0 | 0.00 | 0.00 | 0.00 | 53 | 1021.8 |
| 20260906042103 | 70 | 276 | 1.7 | 7.0 | 0.00 | 0.00 | 0.00 | 53 | 1021.8 |
| 20260906042003 | 69 | 298 | 1.7 | 6.1 | 0.00 | 0.00 | 0.00 | 52 | 1022.1 |
| 20260906041903 | 70 | 284 | 1.7 | 7.0 | 0.00 | 0.00 | 0.00 | 53 | 1021.8 |
| 20260906041803 | 70 | 296 | 1.7 | 7.0 | 0.00 | 0.00 | 0.00 | 53 | 1021.9 |
| 20260906041703 | 70 | 302 | 1.7 | 7.0 | 0.00 | 0.00 | 0.00 | 53 | 1021.8 |
| 20260906041518 | 70 | 302 | 1.7 | 6.1 | 0.00 | 0.00 | 0.00 | 53 | 1021.8 |
| 20260906041510 | 69 | 245 | 1.7 | 6.1 | 0.00 | 0.00 | 0.00 | 52 | 1022.1 |
| 20260906041403 | 70 | 307 | 1.7 | 6.1 | 0.00 | 0.00 | 0.00 | 53 | 1021.8 |
| 20260906041203 | 70 | 309 | 1.7 | 6.1 | 0.00 | 0.00 | 0.00 | 53 | 1021.8 |
| 20260906041103 | 70 | 311 | 1.7 | 6.1 | 0.00 | 0.00 | 0.00 | 53 | 1021.7 |
| 20260906041007 | 69 | 283 | 1.7 | 5.2 | 0.00 | 0.00 | 0.00 | 52 | 1022.0 |
| 20260906041003 | 70 | 312 | 1.7 | 6.1 | 0.00 | 0.00 | 0.00 | 52 | 1021.8 |
| 20260906040903 | 70 | 305 | 1.7 | 6.1 | 0.00 | 0.00 | 0.00 | 52 | 1021.8 |
| 20260906040803 | 70 | 300 | 1.7 | 6.1 | 0.00 | 0.00 | 0.00 | 52 | 1021.7 |
| 20260906040703 | 70 | 299 | 1.7 | 6.1 | 0.00 | 0.00 | 0.00 | 52 | 1021.7 |
| 20260906040603 | 70 | 301 | 1.7 | 6.1 | 0.00 | 0.00 | 0.00 | 53 | 1021.8 |
| 20260906040506 | 69 | 201 | 2.6 | 5.2 | 0.00 | 0.00 | 0.00 | 52 | 1022.1 |
| 20260906040503 | 70 | 307 | 1.7 | 6.1 | 0.00 | 0.00 | 0.00 | 53 | 1021.7 |
| 20260906040403 | 70 | 302 | 1.7 | 5.2 | 0.00 | 0.00 | 0.00 | 52 | 1021.7 |
| 20260906040303 | 70 | 303 | 1.7 | 5.2 | 0.00 | 0.00 | 0.00 | 52 | 1021.8 |
| 20260906040203 | 70 | 290 | 1.7 | 4.3 | 0.00 | 0.00 | 0.00 | 52 | 1021.7 |
| 20260906040015 | 69 | 275 | 1.7 | 6.1 | 0.00 | 0.00 | 0.00 | 52 | 1022.0 |
| 20260906040003 | 70 | 296 | 1.7 | 4.3 | 0.00 | 0.00 | 0.00 | 52 | 1021.7 |
| 20260906035903 | 70 | 295 | 1.7 | 4.3 | 0.00 | 0.00 | 0.00 | 52 | 1021.7 |
| 20260906035803 | 70 | 294 | 1.7 | 4.3 | 0.00 | 0.00 | 0.00 | 52 | 1021.6 |
| 20260906035703 | 70 | 305 | 1.7 | 4.3 | 0.00 | 0.00 | 0.00 | 52 | 1021.6 |
| 20260906035603 | 70 | 306 | 1.7 | 4.3 | 0.00 | 0.00 | 0.00 | 52 | 1021.6 |
| 20260906035508 | 70 | 294 | 0.9 | 6.1 | 0.00 | 0.00 | 0.00 | 52 | 1021.9 |
| 20260906035403 | 70 | 306 | 1.7 | 8.7 | 0.00 | 0.00 | 0.00 | 52 | 1021.6 |
| 20260906035306 | 70 | 306 | 1.7 | 8.7 | 0.00 | 0.00 | 0.00 | 52 | 1021.5 |
| 20260906035204 | 70 | 310 | 1.7 | 8.7 | 0.00 | 0.00 | 0.00 | 52 | 1021.6 |
| 20260906035103 | 70 | 303 | 1.7 | 8.7 | 0.00 | 0.00 | 0.00 | 52 | 1021.6 |
| 20260906035013 | 70 | 300 | 1.7 | 7.8 | 0.00 | 0.00 | 0.00 | 52 | 1021.9 |
| 20260906035003 | 70 | 304 | 1.7 | 8.7 | 0.00 | 0.00 | 0.00 | 52 | 1021.5 |
| 20260906034918 | 70 | 292 | 1.7 | 8.7 | 0.00 | 0.00 | 0.00 | 52 | 1021.5 |
| 20260906034803 | 70 | 292 | 1.7 | 8.7 | 0.00 | 0.00 | 0.00 | 52 | 1021.4 |
| 20260906034603 | 70 | 281 | 1.7 | 8.7 | 0.00 | 0.00 | 0.00 | 52 | 1021.5 |
| 20260906034539 | 70 | 276 | 1.7 | 7.8 | 0.00 | 0.00 | 0.00 | 52 | 1021.8 |
| 20260906034503 | 70 | 285 | 1.7 | 8.7 | 0.00 | 0.00 | 0.00 | 52 | 1021.4 |
| 20260906034403 | 70 | 285 | 1.7 | 8.7 | 0.00 | 0.00 | 0.00 | 52 | 1021.4 |
| 20260906034303 | 70 | 282 | 1.7 | 5.2 | 0.00 | 0.00 | 0.00 | 52 | 1021.4 |
| 20260906034203 | 70 | 283 | 1.7 | 5.2 | 0.00 | 0.00 | 0.00 | 52 | 1021.4 |
| 20260906034103 | 70 | 284 | 1.7 | 7.8 | 0.00 | 0.00 | 0.00 | 52 | 1021.4 |
| 20260906034010 | 70 | 306 | 2.6 | 5.2 | 0.00 | 0.00 | 0.00 | 51 | 1021.7 |
| 20260906034003 | 70 | 286 | 1.7 | 7.8 | 0.00 | 0.00 | 0.00 | 52 | 1021.4 |
| 20260906033903 | 70 | 293 | 1.7 | 7.8 | 0.00 | 0.00 | 0.00 | 52 | 1021.4 |
| 20260906033803 | 70 | 295 | 1.7 | 7.8 | 0.00 | 0.00 | 0.00 | 52 | 1021.4 |
| 20260906033603 | 70 | 292 | 1.7 | 7.8 | 0.00 | 0.00 | 0.00 | 52 | 1021.4 |
| 20260906033510 | 70 | 333 | 1.7 | 7.0 | 0.00 | 0.00 | 0.00 | 51 | 1021.7 |
| 20260906033503 | 70 | 288 | 1.7 | 7.8 | 0.00 | 0.00 | 0.00 | 52 | 1021.3 |
| 20260906033403 | 70 | 285 | 1.7 | 7.8 | 0.00 | 0.00 | 0.00 | 52 | 1021.4 |
| 20260906033303 | 70 | 286 | 1.7 | 7.8 | 0.00 | 0.00 | 0.00 | 52 | 1021.3 |
| 20260906033203 | 71 | 287 | 1.7 | 7.8 | 0.00 | 0.00 | 0.00 | 51 | 1021.3 |
| 20260906033103 | 71 | 285 | 1.7 | 7.8 | 0.00 | 0.00 | 0.00 | 51 | 1021.3 |
| 20260906033031 | 70 | 301 | 2.6 | 7.0 | 0.00 | 0.00 | 0.00 | 51 | 1021.6 |
| 20260906033003 | 71 | 278 | 1.7 | 7.0 | 0.00 | 0.00 | 0.00 | 51 | 1021.3 |
| 20260906032903 | 71 | 282 | 1.7 | 7.0 | 0.00 | 0.00 | 0.00 | 51 | 1021.3 |
| 20260906032803 | 71 | 283 | 1.7 | 7.0 | 0.00 | 0.00 | 0.00 | 51 | 1021.2 |
| 20260906032703 | 71 | 291 | 1.7 | 3.5 | 0.00 | 0.00 | 0.00 | 51 | 1021.2 |
| 20260906032516 | 70 | 294 | 0.9 | 3.5 | 0.00 | 0.00 | 0.00 | 51 | 1021.5 |
| 20260906032503 | 71 | 298 | 1.7 | 4.3 | 0.00 | 0.00 | 0.00 | 51 | 1021.2 |
| 20260906032403 | 71 | 304 | 1.7 | 4.3 | 0.00 | 0.00 | 0.00 | 51 | 1021.2 |
| 20260906032306 | 71 | 308 | 1.7 | 4.3 | 0.00 | 0.00 | 0.00 | 51 | 1021.2 |
| 20260906032203 | 71 | 305 | 1.7 | 4.3 | 0.00 | 0.00 | 0.00 | 51 | 1021.2 |
| 20260906032103 | 71 | 308 | 1.7 | 4.3 | 0.00 | 0.00 | 0.00 | 51 | 1021.2 |
| 20260906032004 | 70 | 230 | 0.9 | 4.3 | 0.00 | 0.00 | 0.00 | 51 | 1021.4 |
| 20260906031903 | 71 | 296 | 1.7 | 4.3 | 0.00 | 0.00 | 0.00 | 51 | 1021.2 |
| 20260906031803 | 71 | 290 | 1.7 | 4.3 | 0.00 | 0.00 | 0.00 | 51 | 1021.0 |
| 20260906031703 | 71 | 288 | 1.7 | 4.3 | 0.00 | 0.00 | 0.00 | 51 | 1021.1 |
| 20260906031603 | 71 | 292 | 1.7 | 4.3 | 0.00 | 0.00 | 0.00 | 51 | 1021.1 |
| 20260906031514 | 70 | 319 | 1.7 | 4.3 | 0.00 | 0.00 | 0.00 | 51 | 1021.4 |
| 20260906031503 | 71 | 292 | 1.7 | 6.1 | 0.00 | 0.00 | 0.00 | 51 | 1021.0 |
| 20260906031403 | 71 | 285 | 1.7 | 6.1 | 0.00 | 0.00 | 0.00 | 51 | 1021.0 |
| 20260906031303 | 71 | 279 | 1.7 | 6.1 | 0.00 | 0.00 | 0.00 | 51 | 1021.0 |
| 20260906031203 | 71 | 273 | 1.7 | 6.1 | 0.00 | 0.00 | 0.00 | 51 | 1021.0 |
| 20260906031103 | 71 | 268 | 1.7 | 6.1 | 0.00 | 0.00 | 0.00 | 51 | 1021.0 |
| 20260906031003 | 71 | 246 | 1.7 | 6.1 | 0.00 | 0.00 | 0.00 | 51 | 1021.3 |
| 20260906030903 | 71 | 284 | 1.7 | 6.1 | 0.00 | 0.00 | 0.00 | 51 | 1020.9 |
| 20260906030803 | 71 | 289 | 1.7 | 6.1 | 0.00 | 0.00 | 0.00 | 51 | 1020.9 |
| 20260906030703 | 71 | 288 | 1.7 | 6.1 | 0.00 | 0.00 | 0.00 | 51 | 1020.9 |
| 20260906030603 | 71 | 281 | 1.7 | 6.1 | 0.00 | 0.00 | 0.00 | 51 | 1020.9 |
| 20260906030506 | 71 | 311 | 1.7 | 6.1 | 0.00 | 0.00 | 0.00 | 50 | 1021.2 |
| 20260906030503 | 71 | 276 | 1.7 | 6.1 | 0.00 | 0.00 | 0.00 | 51 | 1020.9 |
| 20260906030403 | 71 | 278 | 1.7 | 4.3 | 0.00 | 0.00 | 0.00 | 51 | 1020.8 |
| 20260906030303 | 71 | 282 | 1.7 | 4.3 | 0.00 | 0.00 | 0.00 | 51 | 1020.9 |
| 20260906030203 | 71 | 285 | 1.7 | 4.3 | 0.00 | 0.00 | 0.00 | 51 | 1020.8 |
| 20260906030014 | 71 | 279 | 1.7 | 4.3 | 0.00 | 0.00 | 0.00 | 50 | 1021.1 |
| 20260906025903 | 71 | 292 | 1.7 | 4.3 | 0.00 | 0.00 | 0.00 | 51 | 1020.8 |
| 20260906025803 | 71 | 293 | 1.7 | 4.3 | 0.00 | 0.00 | 0.00 | 51 | 1020.8 |
| 20260906025703 | 71 | 296 | 1.7 | 4.3 | 0.00 | 0.00 | 0.00 | 51 | 1020.8 |
| 20260906025603 | 71 | 304 | 1.7 | 3.5 | 0.00 | 0.00 | 0.00 | 50 | 1020.8 |
| 20260906025515 | 71 | 279 | 0.9 | 4.3 | 0.00 | 0.00 | 0.00 | 50 | 1021.1 |
| 20260906025503 | 71 | 306 | 1.7 | 3.5 | 0.00 | 0.00 | 0.00 | 50 | 1020.8 |
| 20260906025403 | 71 | 307 | 1.7 | 7.0 | 0.00 | 0.00 | 0.00 | 50 | 1020.7 |
| 20260906025203 | 72 | 316 | 1.7 | 7.0 | 0.00 | 0.00 | 0.00 | 50 | 1020.7 |
| 20260906025103 | 72 | 318 | 1.7 | 7.0 | 0.00 | 0.00 | 0.00 | 50 | 1020.7 |
| 20260906025011 | 71 | 302 | 1.7 | 6.1 | 0.00 | 0.00 | 0.00 | 50 | 1020.9 |
| 20260906024903 | 72 | 321 | 1.7 | 7.0 | 0.00 | 0.00 | 0.00 | 50 | 1020.7 |
| 20260906024803 | 72 | 316 | 1.7 | 7.0 | 0.00 | 0.00 | 0.00 | 50 | 1020.7 |
| 20260906024703 | 72 | 316 | 1.7 | 7.0 | 0.00 | 0.00 | 0.00 | 50 | 1020.7 |
| 20260906024603 | 72 | 316 | 1.7 | 7.0 | 0.00 | 0.00 | 0.00 | 50 | 1020.6 |
| 20260906024522 | 71 | 296 | 0.9 | 6.1 | 0.00 | 0.00 | 0.00 | 50 | 1020.9 |
| 20260906024503 | 72 | 311 | 1.7 | 7.0 | 0.00 | 0.00 | 0.00 | 50 | 1020.6 |
| 20260906024403 | 72 | 310 | 1.7 | 7.0 | 0.00 | 0.00 | 0.00 | 50 | 1020.6 |
| 20260906024303 | 72 | 302 | 1.7 | 6.1 | 0.00 | 0.00 | 0.00 | 50 | 1020.6 |
| 20260906024203 | 72 | 298 | 1.7 | 6.1 | 0.00 | 0.00 | 0.00 | 50 | 1020.6 |
| 20260906024103 | 72 | 291 | 1.7 | 6.1 | 0.00 | 0.00 | 0.00 | 50 | 1020.6 |
| 20260906024014 | 71 | 304 | 1.7 | 5.2 | 0.00 | 0.00 | 0.00 | 50 | 1020.9 |
| 20260906024003 | 72 | 286 | 1.7 | 6.1 | 0.00 | 0.00 | 0.00 | 50 | 1020.6 |
| 20260906023903 | 72 | 284 | 1.7 | 6.1 | 0.00 | 0.00 | 0.00 | 50 | 1020.6 |
| 20260906023804 | 72 | 283 | 1.7 | 6.1 | 0.00 | 0.00 | 0.00 | 50 | 1020.6 |
| 20260906023703 | 72 | 279 | 1.7 | 6.1 | 0.00 | 0.00 | 0.00 | 50 | 1020.6 |
| 20260906023603 | 72 | 268 | 1.7 | 6.1 | 0.00 | 0.00 | 0.00 | 50 | 1020.6 |
| 20260906023513 | 71 | 257 | 2.6 | 5.2 | 0.00 | 0.00 | 0.00 | 50 | 1020.9 |
| 20260906023503 | 72 | 274 | 1.7 | 6.1 | 0.00 | 0.00 | 0.00 | 50 | 1020.6 |
| 20260906023403 | 72 | 270 | 1.7 | 6.1 | 0.00 | 0.00 | 0.00 | 50 | 1020.6 |
| 20260906023303 | 72 | 271 | 1.7 | 6.1 | 0.00 | 0.00 | 0.00 | 50 | 1020.6 |
| 20260906023203 | 72 | 271 | 1.7 | 4.3 | 0.00 | 0.00 | 0.00 | 50 | 1020.5 |
| 20260906023103 | 72 | 271 | 1.7 | 4.3 | 0.00 | 0.00 | 0.00 | 50 | 1020.5 |
| 20260906023030 | 71 | 232 | 1.7 | 4.3 | 0.00 | 0.00 | 0.00 | 50 | 1020.8 |
| 20260906022903 | 72 | 286 | 1.7 | 4.3 | 0.00 | 0.00 | 0.00 | 50 | 1020.4 |
| 20260906022803 | 72 | 286 | 1.7 | 4.3 | 0.00 | 0.00 | 0.00 | 50 | 1020.4 |
| 20260906022603 | 72 | 294 | 1.7 | 4.3 | 0.00 | 0.00 | 0.00 | 50 | 1020.4 |
| 20260906022515 | 71 | 319 | 1.7 | 4.3 | 0.00 | 0.00 | 0.00 | 50 | 1020.6 |
| 20260906022503 | 72 | 289 | 1.7 | 4.3 | 0.00 | 0.00 | 0.00 | 50 | 1020.4 |
| 20260906022403 | 72 | 296 | 1.7 | 3.5 | 0.00 | 0.00 | 0.00 | 50 | 1020.4 |
| 20260906022306 | 72 | 298 | 1.7 | 3.5 | 0.00 | 0.00 | 0.00 | 50 | 1020.4 |
| 20260906022203 | 72 | 296 | 1.7 | 3.5 | 0.00 | 0.00 | 0.00 | 51 | 1020.4 |
| 20260906022103 | 72 | 306 | 1.7 | 3.5 | 0.00 | 0.00 | 0.00 | 51 | 1020.4 |
| 20260906022017 | 72 | 305 | 1.7 | 6.1 | 0.00 | 0.00 | 0.00 | 50 | 1020.4 |
| 20260906022014 | 71 | 5 | 0.9 | 3.5 | 0.00 | 0.00 | 0.00 | 50 | 1020.6 |
| 20260906021903 | 72 | 306 | 1.7 | 6.1 | 0.00 | 0.00 | 0.00 | 51 | 1020.3 |
| 20260906021703 | 72 | 297 | 1.7 | 6.1 | 0.00 | 0.00 | 0.00 | 51 | 1020.3 |
| 20260906021603 | 72 | 296 | 1.7 | 6.1 | 0.00 | 0.00 | 0.00 | 51 | 1020.3 |
| 20260906021538 | 71 | 284 | 1.7 | 6.1 | 0.00 | 0.00 | 0.00 | 50 | 1020.6 |
| 20260906021403 | 72 | 296 | 1.7 | 6.1 | 0.00 | 0.00 | 0.00 | 51 | 1020.3 |
| 20260906021303 | 72 | 295 | 1.7 | 6.1 | 0.00 | 0.00 | 0.00 | 51 | 1020.3 |
| 20260906021203 | 72 | 296 | 1.7 | 6.1 | 0.00 | 0.00 | 0.00 | 51 | 1020.3 |
| 20260906021103 | 71 | 293 | 1.7 | 6.1 | 0.00 | 0.00 | 0.00 | 51 | 1020.3 |
| 20260906021003 | 71 | 284 | 1.7 | 6.1 | 0.00 | 0.00 | 0.00 | 51 | 1020.3 |
| 20260906020903 | 71 | 274 | 1.7 | 5.2 | 0.00 | 0.00 | 0.00 | 51 | 1020.3 |
| 20260906020803 | 71 | 278 | 1.7 | 5.2 | 0.00 | 0.00 | 0.00 | 51 | 1020.3 |
| 20260906020703 | 71 | 284 | 1.7 | 4.3 | 0.00 | 0.00 | 0.00 | 51 | 1020.3 |
| 20260906020603 | 71 | 282 | 1.7 | 4.3 | 0.00 | 0.00 | 0.00 | 51 | 1020.3 |
| 20260906020504 | 71 | 298 | 0.9 | 3.5 | 0.00 | 0.00 | 0.00 | 50 | 1020.5 |
| 20260906020403 | 71 | 282 | 1.7 | 4.3 | 0.00 | 0.00 | 0.00 | 51 | 1020.3 |
| 20260906020303 | 71 | 282 | 1.7 | 4.3 | 0.00 | 0.00 | 0.00 | 51 | 1020.3 |
| 20260906020203 | 71 | 281 | 1.7 | 4.3 | 0.00 | 0.00 | 0.00 | 51 | 1020.3 |
| 20260906020010 | 71 | 254 | 0.9 | 3.5 | 0.00 | 0.00 | 0.00 | 50 | 1020.6 |
| 20260906020003 | 71 | 281 | 1.7 | 4.3 | 0.00 | 0.00 | 0.00 | 51 | 1020.3 |
| 20260906015903 | 71 | 286 | 1.7 | 4.3 | 0.00 | 0.00 | 0.00 | 51 | 1020.3 |
| 20260906015703 | 71 | 302 | 1.7 | 4.3 | 0.00 | 0.00 | 0.00 | 51 | 1020.3 |
| 20260906015603 | 71 | 336 | 1.7 | 4.3 | 0.00 | 0.00 | 0.00 | 51 | 1020.2 |
| 20260906015508 | 70 | 298 | 0.9 | 3.5 | 0.00 | 0.00 | 0.00 | 50 | 1020.5 |
| 20260906015503 | 71 | 24 | 1.7 | 4.3 | 0.00 | 0.00 | 0.00 | 51 | 1020.2 |
| 20260906015306 | 71 | 36 | 1.7 | 4.3 | 0.00 | 0.00 | 0.00 | 51 | 1020.1 |
| 20260906015203 | 70 | 58 | 1.7 | 1.7 | 0.00 | 0.00 | 0.00 | 51 | 1020.2 |
| 20260906015103 | 70 | 19 | 1.7 | 7.0 | 0.00 | 0.00 | 0.00 | 51 | 1020.1 |
| 20260906015007 | 70 | 63 | 0.0 | 1.7 | 0.00 | 0.00 | 0.00 | 50 | 1020.4 |
| 20260906015004 | 70 | 3 | 1.7 | 7.0 | 0.00 | 0.00 | 0.00 | 51 | 1020.1 |
| 20260906014903 | 70 | 1 | 1.7 | 7.0 | 0.00 | 0.00 | 0.00 | 51 | 1020.2 |
| 20260906014803 | 70 | 336 | 1.7 | 7.0 | 0.00 | 0.00 | 0.00 | 51 | 1020.2 |
| 20260906014519 | 70 | 96 | 0.0 | 7.0 | 0.00 | 0.00 | 0.00 | 51 | 1020.5 |
| 20260906014503 | 70 | 306 | 1.7 | 7.0 | 0.00 | 0.00 | 0.00 | 51 | 1020.2 |
| 20260906014403 | 70 | 310 | 1.7 | 7.0 | 0.00 | 0.00 | 0.00 | 51 | 1020.2 |
| 20260906014303 | 70 | 306 | 1.7 | 7.0 | 0.00 | 0.00 | 0.00 | 51 | 1020.2 |
| 20260906014203 | 70 | 295 | 1.7 | 7.0 | 0.00 | 0.00 | 0.00 | 51 | 1020.3 |
| 20260906014103 | 70 | 294 | 1.7 | 7.0 | 0.00 | 0.00 | 0.00 | 51 | 1020.2 |
| 20260906014010 | 69 | 297 | 1.7 | 7.0 | 0.00 | 0.00 | 0.00 | 51 | 1020.5 |
| 20260906014003 | 70 | 296 | 1.7 | 2.6 | 0.00 | 0.00 | 0.00 | 51 | 1020.2 |
| 20260906013903 | 70 | 297 | 1.7 | 2.6 | 0.00 | 0.00 | 0.00 | 51 | 1020.2 |
| 20260906013603 | 69 | 281 | 1.7 | 1.7 | 0.00 | 0.00 | 0.00 | 52 | 1020.3 |
| 20260906013513 | 69 | 244 | 0.0 | 2.6 | 0.00 | 0.00 | 0.00 | 51 | 1020.6 |
| 20260906013503 | 69 | 287 | 1.7 | 1.7 | 0.00 | 0.00 | 0.00 | 52 | 1020.3 |
| 20260906013403 | 69 | 289 | 1.7 | 1.7 | 0.00 | 0.00 | 0.00 | 52 | 1020.3 |
| 20260906013303 | 69 | 298 | 1.7 | 2.6 | 0.00 | 0.00 | 0.00 | 52 | 1020.3 |
| 20260906013103 | 69 | 288 | 1.7 | 2.6 | 0.00 | 0.00 | 0.00 | 52 | 1020.4 |
| 20260906013024 | 68 | 319 | 0.9 | 2.6 | 0.00 | 0.00 | 0.00 | 52 | 1020.6 |
| 20260906013003 | 69 | 283 | 1.7 | 4.3 | 0.00 | 0.00 | 0.00 | 52 | 1020.3 |
| 20260906012903 | 68 | 287 | 1.7 | 4.3 | 0.00 | 0.00 | 0.00 | 52 | 1020.4 |
| 20260906012803 | 68 | 288 | 1.7 | 4.3 | 0.00 | 0.00 | 0.00 | 53 | 1020.4 |
| 20260906012703 | 68 | 287 | 1.7 | 4.3 | 0.00 | 0.00 | 0.00 | 53 | 1020.4 |
| 20260906012603 | 68 | 289 | 1.7 | 4.3 | 0.00 | 0.00 | 0.00 | 53 | 1020.4 |
| 20260906012517 | 68 | 289 | 1.7 | 4.3 | 0.00 | 0.00 | 0.00 | 53 | 1020.4 |
| 20260906012514 | 67 | 296 | 0.9 | 3.5 | 0.00 | 0.00 | 0.00 | 52 | 1020.7 |
| 20260906012403 | 67 | 286 | 1.7 | 4.3 | 0.00 | 0.00 | 0.00 | 53 | 1020.3 |
| 20260906012316 | 67 | 271 | 1.7 | 4.3 | 0.00 | 0.00 | 0.00 | 54 | 1020.4 |
| 20260906012203 | 67 | 278 | 1.7 | 4.3 | 0.00 | 0.00 | 0.00 | 54 | 1020.4 |
| 20260906012118 | 67 | 278 | 1.7 | 4.3 | 0.00 | 0.00 | 0.00 | 54 | 1020.3 |
| 20260906012014 | 66 | 264 | 0.9 | 3.5 | 0.00 | 0.00 | 0.00 | 54 | 1020.6 |
| 20260906012003 | 66 | 284 | 1.7 | 4.3 | 0.00 | 0.00 | 0.00 | 54 | 1020.3 |
| 20260906011803 | 66 | 275 | 1.7 | 1.7 | 0.00 | 0.00 | 0.00 | 54 | 1020.4 |
| 20260906011703 | 66 | 275 | 1.7 | 1.7 | 0.00 | 0.00 | 0.00 | 54 | 1020.3 |
| 20260906011603 | 66 | 279 | 1.7 | 1.7 | 0.00 | 0.00 | 0.00 | 55 | 1020.3 |
| 20260906011530 | 65 | 293 | 0.0 | 1.7 | 0.00 | 0.00 | 0.00 | 54 | 1020.5 |
| 20260906011503 | 66 | 243 | 1.7 | 1.7 | 0.00 | 0.00 | 0.00 | 55 | 1020.3 |
| 20260906011403 | 65 | 233 | 1.7 | 1.7 | 0.00 | 0.00 | 0.00 | 55 | 1020.2 |
| 20260906011203 | 65 | 214 | 1.7 | 1.7 | 0.00 | 0.00 | 0.00 | 55 | 1020.1 |
| 20260906011103 | 65 | 214 | 1.7 | 1.7 | 0.00 | 0.00 | 0.00 | 55 | 1020.1 |
| 20260906011016 | 65 | 304 | 0.0 | 1.7 | 0.00 | 0.00 | 0.00 | 55 | 1020.4 |
| 20260906011003 | 65 | 243 | 1.7 | 1.7 | 0.00 | 0.00 | 0.00 | 55 | 1020.1 |
| 20260906010803 | 65 | 243 | 1.7 | 1.7 | 0.00 | 0.00 | 0.00 | 56 | 1020.1 |
| 20260906010703 | 65 | 243 | 1.7 | 1.7 | 0.00 | 0.00 | 0.00 | 56 | 1020.1 |
| 20260906010603 | 65 | 243 | 1.7 | 1.7 | 0.00 | 0.00 | 0.00 | 55 | 1020.0 |
| 20260906010512 | 64 | 214 | 0.0 | 1.7 | 0.00 | 0.00 | 0.00 | 55 | 1020.3 |
| 20260906010403 | 64 | 255 | 1.7 | 1.7 | 0.00 | 0.00 | 0.00 | 56 | 1020.1 |
| 20260906010303 | 64 | 242 | 1.7 | 1.7 | 0.00 | 0.00 | 0.00 | 56 | 1020.0 |
| 20260906010203 | 64 | 242 | 1.7 | 1.7 | 0.00 | 0.00 | 0.00 | 56 | 1020.0 |
| 20260906010103 | 64 | 242 | 1.7 | 1.7 | 0.00 | 0.00 | 0.00 | 56 | 1020.0 |
| 20260906010012 | 64 | 282 | 0.0 | 1.7 | 0.00 | 0.00 | 0.00 | 56 | 1020.2 |
| 20260906005903 | 64 | 216 | 1.7 | 1.7 | 0.00 | 0.00 | 0.00 | 56 | 1020.0 |
| 20260906005803 | 64 | 216 | 1.7 | 1.7 | 0.00 | 0.00 | 0.00 | 55 | 1020.0 |
| 20260906005703 | 64 | 216 | 1.7 | 1.7 | 0.00 | 0.00 | 0.00 | 56 | 1019.9 |
| 20260906005603 | 64 | 216 | 1.7 | 1.7 | 0.00 | 0.00 | 0.00 | 56 | 1019.9 |
| 20260906005506 | 64 | 216 | 0.0 | 1.7 | 0.00 | 0.00 | 0.00 | 56 | 1020.1 |
| 20260906005503 | 64 | 216 | 1.7 | 1.7 | 0.00 | 0.00 | 0.00 | 56 | 1020.0 |
| 20260906005306 | 64 | 0 | 1.7 | 0.9 | 0.00 | 0.00 | 0.00 | 56 | 1019.9 |
| 20260906005203 | 64 | 0 | 1.7 | 0.0 | 0.00 | 0.00 | 0.00 | 56 | 1019.9 |
| 20260906005103 | 64 | 0 | 1.7 | 0.0 | 0.00 | 0.00 | 0.00 | 56 | 1019.9 |
| 20260906005004 | 64 | 178 | 0.0 | 0.0 | 0.00 | 0.00 | 0.00 | 56 | 1020.2 |
| 20260906004903 | 64 | 0 | 1.7 | 0.0 | 0.00 | 0.00 | 0.00 | 56 | 1019.9 |
| 20260906004803 | 64 | 0 | 1.7 | 0.0 | 0.00 | 0.00 | 0.00 | 56 | 1019.8 |
| 20260906004718 | 64 | 0 | 1.7 | 0.0 | 0.00 | 0.00 | 0.00 | 57 | 1019.8 |
| 20260906004603 | 64 | 0 | 1.7 | 0.0 | 0.00 | 0.00 | 0.00 | 56 | 1019.8 |
| 20260906004515 | 64 | 178 | 0.0 | 0.0 | 0.00 | 0.00 | 0.00 | 56 | 1020.1 |
| 20260906004403 | 64 | 0 | 1.7 | 0.0 | 0.00 | 0.00 | 0.00 | 57 | 1019.8 |
| 20260906004303 | 64 | 0 | 1.7 | 0.0 | 0.00 | 0.00 | 0.00 | 57 | 1019.8 |
| 20260906004203 | 64 | 0 | 1.7 | 0.0 | 0.00 | 0.00 | 0.00 | 57 | 1019.8 |
| 20260906004117 | 64 | 0 | 1.7 | 0.0 | 0.00 | 0.00 | 0.00 | 57 | 1019.8 |
| 20260906004008 | 64 | 178 | 0.0 | 0.0 | 0.00 | 0.00 | 0.00 | 56 | 1020.1 |
| 20260906004003 | 64 | 0 | 1.7 | 0.0 | 0.00 | 0.00 | 0.00 | 57 | 1019.8 |
| 20260906003803 | 64 | 0 | 1.7 | 1.7 | 0.00 | 0.00 | 0.00 | 57 | 1019.8 |
| 20260906003703 | 64 | 0 | 1.7 | 1.7 | 0.00 | 0.00 | 0.00 | 57 | 1019.8 |
| 20260906003603 | 64 | 0 | 1.7 | 1.7 | 0.00 | 0.00 | 0.00 | 57 | 1019.8 |
| 20260906003511 | 64 | 180 | 0.0 | 1.7 | 0.00 | 0.00 | 0.00 | 57 | 1020.1 |
| 20260906003503 | 64 | 0 | 1.7 | 1.7 | 0.00 | 0.00 | 0.00 | 57 | 1019.8 |
| 20260906003403 | 64 | 0 | 1.7 | 1.7 | 0.00 | 0.00 | 0.00 | 57 | 1019.8 |
| 20260906003303 | 64 | 0 | 1.7 | 1.7 | 0.00 | 0.00 | 0.00 | 57 | 1019.8 |
| 20260906003203 | 64 | 0 | 1.7 | 1.7 | 0.00 | 0.00 | 0.00 | 57 | 1019.8 |
| 20260906003103 | 64 | 0 | 1.7 | 1.7 | 0.00 | 0.00 | 0.00 | 57 | 1019.8 |
| 20260906003023 | 64 | 180 | 0.0 | 1.7 | 0.00 | 0.00 | 0.00 | 57 | 1020.0 |
| 20260906003003 | 64 | 0 | 1.7 | 1.7 | 0.00 | 0.00 | 0.00 | 57 | 1019.8 |
| 20260906002903 | 64 | 0 | 1.7 | 1.7 | 0.00 | 0.00 | 0.00 | 57 | 1019.8 |
| 20260906002803 | 64 | 0 | 1.7 | 0.0 | 0.00 | 0.00 | 0.00 | 57 | 1019.8 |
| 20260906002512 | 64 | 183 | 0.0 | 0.0 | 0.00 | 0.00 | 0.00 | 57 | 1020.0 |
| 20260906002503 | 64 | 0 | 1.7 | 0.0 | 0.00 | 0.00 | 0.00 | 58 | 1019.8 |
| 20260906002403 | 64 | 0 | 1.7 | 0.0 | 0.00 | 0.00 | 0.00 | 58 | 1019.7 |
| 20260906002305 | 64 | 0 | 1.7 | 0.0 | 0.00 | 0.00 | 0.00 | 57 | 1019.8 |
| 20260906002203 | 64 | 0 | 1.7 | 0.0 | 0.00 | 0.00 | 0.00 | 58 | 1019.7 |
| 20260906002103 | 64 | 0 | 1.7 | 0.0 | 0.00 | 0.00 | 0.00 | 58 | 1019.7 |
| 20260906002014 | 64 | 183 | 0.0 | 0.0 | 0.00 | 0.00 | 0.00 | 57 | 1020.0 |
| 20260906002003 | 64 | 0 | 1.7 | 0.0 | 0.00 | 0.00 | 0.00 | 58 | 1019.7 |
| 20260906001903 | 64 | 0 | 1.7 | 0.0 | 0.00 | 0.00 | 0.00 | 58 | 1019.7 |
| 20260906001803 | 64 | 0 | 1.7 | 0.0 | 0.00 | 0.00 | 0.00 | 57 | 1019.8 |
| 20260906001703 | 64 | 0 | 1.7 | 0.0 | 0.00 | 0.00 | 0.00 | 57 | 1019.7 |
| 20260906001541 | 64 | 181 | 0.0 | 0.0 | 0.00 | 0.00 | 0.00 | 57 | 1020.0 |
| 20260906001503 | 64 | 0 | 1.7 | 0.0 | 0.00 | 0.00 | 0.00 | 57 | 1019.7 |
| 20260906001403 | 64 | 0 | 1.7 | 0.0 | 0.00 | 0.00 | 0.00 | 57 | 1019.6 |
| 20260906001303 | 64 | 0 | 1.7 | 0.0 | 0.00 | 0.00 | 0.00 | 57 | 1019.6 |
| 20260906001203 | 64 | 181 | 1.7 | 0.0 | 0.00 | 0.00 | 0.00 | 57 | 1019.7 |
| 20260906001103 | 64 | 181 | 1.7 | 0.0 | 0.00 | 0.00 | 0.00 | 57 | 1019.7 |
| 20260906001016 | 64 | 181 | 0.0 | 1.7 | 0.00 | 0.00 | 0.00 | 56 | 1020.0 |
| 20260906001003 | 64 | 181 | 1.7 | 0.0 | 0.00 | 0.00 | 0.00 | 56 | 1019.7 |
| 20260906000903 | 64 | 181 | 1.7 | 0.0 | 0.00 | 0.00 | 0.00 | 56 | 1019.7 |
| 20260906000803 | 64 | 181 | 1.7 | 0.0 | 0.00 | 0.00 | 0.00 | 56 | 1019.7 |
| 20260906000703 | 64 | 181 | 1.7 | 0.0 | 0.00 | 0.00 | 0.00 | 56 | 1019.7 |
| 20260906000603 | 65 | 181 | 1.7 | 0.0 | 0.00 | 0.00 | 0.00 | 56 | 1019.8 |
| 20260906000512 | 64 | 181 | 0.0 | 1.7 | 0.00 | 0.00 | 0.00 | 56 | 1020.0 |
| 20260906000503 | 65 | 181 | 1.7 | 0.0 | 0.00 | 0.00 | 0.00 | 56 | 1019.8 |
| 20260906000403 | 65 | 181 | 1.7 | 1.7 | 0.00 | 0.00 | 0.00 | 56 | 1019.7 |
| 20260906000303 | 65 | 180 | 1.7 | 1.7 | 0.00 | 0.00 | 0.00 | 56 | 1019.6 |
| 20260906000219 | 65 | 180 | 1.7 | 1.7 | 0.00 | 0.00 | 0.00 | 57 | 1019.7 |
| 20260906000030 | 64 | 181 | 0.0 | 1.7 | 0.00 | 0.00 | 0.00 | 56 | 1019.9 |
| 20260906000018 | 65 | 180 | 1.7 | 1.7 | 0.00 | 0.00 | 0.00 | 56 | 1019.6 |
| 20260905235903 | 65 | 180 | 1.7 | 1.7 | 0.00 | 0.00 | 0.00 | 56 | 1019.6 |
| 20260905235703 | 65 | 180 | 1.7 | 1.7 | 0.00 | 0.00 | 0.00 | 57 | 1019.6 |
| 20260905235603 | 65 | 180 | 1.7 | 1.7 | 0.00 | 0.00 | 0.00 | 57 | 1019.6 |
| 20260905235517 | 65 | 180 | 1.7 | 1.7 | 0.00 | 0.00 | 0.00 | 56 | 1019.5 |
| 20260905235403 | 64 | 180 | 1.7 | 1.7 | 0.00 | 0.00 | 0.00 | 56 | 1019.6 |
| 20260905235204 | 64 | 219 | 1.7 | 1.7 | 0.00 | 0.00 | 0.00 | 57 | 1019.6 |
| 20260905235103 | 64 | 219 | 1.7 | 1.7 | 0.00 | 0.00 | 0.00 | 57 | 1019.6 |
| 20260905235007 | 64 | 238 | 0.0 | 1.7 | 0.00 | 0.00 | 0.00 | 56 | 1019.9 |
| 20260905235003 | 64 | 219 | 1.7 | 1.7 | 0.00 | 0.00 | 0.00 | 57 | 1019.5 |
| 20260905234903 | 64 | 219 | 1.7 | 1.7 | 0.00 | 0.00 | 0.00 | 57 | 1019.5 |
| 20260905234803 | 64 | 219 | 1.7 | 1.7 | 0.00 | 0.00 | 0.00 | 58 | 1019.4 |
| 20260905234703 | 64 | 219 | 1.7 | 1.7 | 0.00 | 0.00 | 0.00 | 58 | 1019.5 |
| 20260905234603 | 64 | 219 | 1.7 | 1.7 | 0.00 | 0.00 | 0.00 | 58 | 1019.5 |
| 20260905234514 | 64 | 235 | 0.0 | 1.7 | 0.00 | 0.00 | 0.00 | 57 | 1019.7 |
| 20260905234503 | 64 | 219 | 1.7 | 1.7 | 0.00 | 0.00 | 0.00 | 58 | 1019.5 |
| 20260905234403 | 64 | 219 | 1.7 | 1.7 | 0.00 | 0.00 | 0.00 | 58 | 1019.5 |
| 20260905234303 | 64 | 219 | 1.7 | 1.7 | 0.00 | 0.00 | 0.00 | 58 | 1019.4 |
| 20260905234103 | 64 | 0 | 1.7 | 0.0 | 0.00 | 0.00 | 0.00 | 58 | 1019.4 |
| 20260905234009 | 64 | 138 | 0.0 | 0.0 | 0.00 | 0.00 | 0.00 | 57 | 1019.7 |
| 20260905234003 | 64 | 0 | 1.7 | 0.0 | 0.00 | 0.00 | 0.00 | 57 | 1019.4 |
| 20260905233703 | 64 | 0 | 1.7 | 0.0 | 0.00 | 0.00 | 0.00 | 57 | 1019.4 |
| 20260905233603 | 64 | 0 | 1.7 | 0.0 | 0.00 | 0.00 | 0.00 | 57 | 1019.5 |
| 20260905233508 | 64 | 138 | 0.0 | 0.0 | 0.00 | 0.00 | 0.00 | 57 | 1019.7 |
| 20260905233503 | 64 | 0 | 1.7 | 0.0 | 0.00 | 0.00 | 0.00 | 57 | 1019.4 |
| 20260905233403 | 64 | 0 | 1.7 | 0.0 | 0.00 | 0.00 | 0.00 | 57 | 1019.5 |
| 20260905233303 | 64 | 0 | 1.7 | 0.0 | 0.00 | 0.00 | 0.00 | 57 | 1019.5 |
| 20260905233203 | 64 | 0 | 1.7 | 0.0 | 0.00 | 0.00 | 0.00 | 57 | 1019.5 |
| 20260905233018 | 64 | 138 | 0.0 | 0.0 | 0.00 | 0.00 | 0.00 | 57 | 1019.6 |
| 20260905232903 | 64 | 0 | 1.7 | 0.0 | 0.00 | 0.00 | 0.00 | 57 | 1019.4 |
| 20260905232803 | 64 | 0 | 1.7 | 0.0 | 0.00 | 0.00 | 0.00 | 57 | 1019.4 |
| 20260905232703 | 64 | 0 | 1.7 | 0.0 | 0.00 | 0.00 | 0.00 | 57 | 1019.3 |
| 20260905232603 | 64 | 0 | 1.7 | 0.0 | 0.00 | 0.00 | 0.00 | 57 | 1019.3 |
| 20260905232510 | 64 | 138 | 0.0 | 0.0 | 0.00 | 0.00 | 0.00 | 56 | 1019.6 |
| 20260905232503 | 64 | 0 | 1.7 | 0.0 | 0.00 | 0.00 | 0.00 | 57 | 1019.2 |
| 20260905232403 | 65 | 0 | 1.7 | 0.0 | 0.00 | 0.00 | 0.00 | 57 | 1019.3 |
| 20260905232305 | 65 | 0 | 1.7 | 0.0 | 0.00 | 0.00 | 0.00 | 56 | 1019.3 |
| 20260905232203 | 65 | 0 | 1.7 | 0.0 | 0.00 | 0.00 | 0.00 | 56 | 1019.2 |
| 20260905232103 | 65 | 0 | 1.7 | 0.0 | 0.00 | 0.00 | 0.00 | 56 | 1019.2 |
| 20260905232012 | 64 | 138 | 0.0 | 0.0 | 0.00 | 0.00 | 0.00 | 56 | 1019.5 |
| 20260905232003 | 65 | 0 | 1.7 | 0.0 | 0.00 | 0.00 | 0.00 | 56 | 1019.2 |
| 20260905231903 | 65 | 0 | 1.7 | 0.0 | 0.00 | 0.00 | 0.00 | 56 | 1019.2 |
| 20260905231703 | 65 | 0 | 1.7 | 0.0 | 0.00 | 0.00 | 0.00 | 56 | 1019.1 |
| 20260905231603 | 65 | 0 | 1.7 | 0.0 | 0.00 | 0.00 | 0.00 | 56 | 1019.1 |
| 20260905231528 | 64 | 138 | 0.0 | 0.0 | 0.00 | 0.00 | 0.00 | 56 | 1019.4 |
| 20260905231503 | 65 | 0 | 1.7 | 0.0 | 0.00 | 0.00 | 0.00 | 56 | 1019.1 |
| 20260905231403 | 65 | 0 | 1.7 | 0.0 | 0.00 | 0.00 | 0.00 | 56 | 1019.0 |
| 20260905231303 | 65 | 0 | 1.7 | 0.0 | 0.00 | 0.00 | 0.00 | 56 | 1019.0 |
| 20260905231203 | 65 | 0 | 1.7 | 0.0 | 0.00 | 0.00 | 0.00 | 56 | 1019.0 |
| 20260905231103 | 65 | 0 | 1.7 | 0.0 | 0.00 | 0.00 | 0.00 | 55 | 1019.0 |
| 20260905231014 | 65 | 138 | 0.0 | 0.0 | 0.00 | 0.00 | 0.00 | 55 | 1019.3 |
| 20260905231003 | 65 | 0 | 1.7 | 0.0 | 0.00 | 0.00 | 0.00 | 55 | 1019.0 |
| 20260905230903 | 65 | 0 | 1.7 | 0.0 | 0.00 | 0.00 | 0.00 | 55 | 1019.1 |
| 20260905230803 | 65 | 0 | 1.7 | 0.0 | 0.00 | 0.00 | 0.00 | 55 | 1019.1 |
| 20260905230703 | 65 | 0 | 1.7 | 0.0 | 0.00 | 0.00 | 0.00 | 55 | 1019.0 |
| 20260905230603 | 65 | 0 | 1.7 | 0.0 | 0.00 | 0.00 | 0.00 | 54 | 1019.0 |
| 20260905230512 | 65 | 138 | 0.0 | 0.0 | 0.00 | 0.00 | 0.00 | 54 | 1019.3 |
| 20260905230503 | 65 | 0 | 1.7 | 0.0 | 0.00 | 0.00 | 0.00 | 54 | 1019.1 |
| 20260905230403 | 65 | 0 | 1.7 | 0.0 | 0.00 | 0.00 | 0.00 | 54 | 1019.0 |
| 20260905230303 | 65 | 0 | 1.7 | 0.0 | 0.00 | 0.00 | 0.00 | 55 | 1019.0 |
| 20260905230203 | 65 | 0 | 1.7 | 0.0 | 0.00 | 0.00 | 0.00 | 55 | 1019.0 |
| 20260905230103 | 65 | 0 | 1.7 | 0.0 | 0.00 | 0.00 | 0.00 | 54 | 1019.1 |
| 20260905230034 | 65 | 138 | 0.0 | 0.0 | 0.00 | 0.00 | 0.00 | 54 | 1019.4 |
| 20260905230004 | 66 | 0 | 1.7 | 0.0 | 0.00 | 0.00 | 0.00 | 55 | 1019.0 |
| 20260905225903 | 66 | 0 | 1.7 | 0.0 | 0.00 | 0.00 | 0.00 | 54 | 1019.0 |
| 20260905225703 | 66 | 0 | 1.7 | 0.0 | 0.00 | 0.00 | 0.00 | 54 | 1019.0 |
| 20260905225603 | 66 | 0 | 1.7 | 0.0 | 0.00 | 0.00 | 0.00 | 54 | 1019.0 |
| 20260905225520 | 65 | 138 | 0.0 | 0.0 | 0.00 | 0.00 | 0.00 | 54 | 1019.3 |
| 20260905225503 | 66 | 0 | 1.7 | 0.0 | 0.00 | 0.00 | 0.00 | 54 | 1019.0 |
| 20260905225403 | 66 | 0 | 1.7 | 0.0 | 0.00 | 0.00 | 0.00 | 54 | 1019.0 |
| 20260905225203 | 66 | 0 | 1.7 | 0.0 | 0.00 | 0.00 | 0.00 | 54 | 1019.0 |
| 20260905225103 | 66 | 0 | 1.7 | 0.0 | 0.00 | 0.00 | 0.00 | 53 | 1019.0 |
| 20260905225014 | 65 | 138 | 0.0 | 0.0 | 0.00 | 0.00 | 0.00 | 53 | 1019.3 |
| 20260905224918 | 66 | 0 | 1.7 | 0.0 | 0.00 | 0.00 | 0.00 | 53 | 1019.0 |
| 20260905224803 | 66 | 0 | 1.7 | 0.0 | 0.00 | 0.00 | 0.00 | 52 | 1019.0 |
| 20260905224603 | 66 | 0 | 1.7 | 0.0 | 0.00 | 0.00 | 0.00 | 52 | 1019.0 |
| 20260905224534 | 65 | 138 | 0.0 | 0.0 | 0.00 | 0.00 | 0.00 | 52 | 1019.3 |
| 20260905224503 | 66 | 0 | 1.7 | 0.0 | 0.00 | 0.00 | 0.00 | 52 | 1019.0 |
| 20260905224403 | 66 | 0 | 1.7 | 0.0 | 0.00 | 0.00 | 0.00 | 52 | 1019.0 |
| 20260905224303 | 66 | 0 | 1.7 | 0.0 | 0.00 | 0.00 | 0.00 | 52 | 1019.0 |
| 20260905224203 | 66 | 0 | 1.7 | 0.0 | 0.00 | 0.00 | 0.00 | 52 | 1019.0 |
| 20260905224103 | 66 | 0 | 1.7 | 0.0 | 0.00 | 0.00 | 0.00 | 52 | 1019.0 |
| 20260905224004 | 66 | 138 | 0.0 | 0.0 | 0.00 | 0.00 | 0.00 | 52 | 1019.3 |
| 20260905223803 | 66 | 0 | 1.7 | 0.0 | 0.00 | 0.00 | 0.00 | 52 | 1019.0 |
| 20260905223703 | 66 | 0 | 1.7 | 0.0 | 0.00 | 0.00 | 0.00 | 53 | 1019.0 |
| 20260905223603 | 67 | 0 | 1.7 | 0.0 | 0.00 | 0.00 | 0.00 | 53 | 1019.1 |
| 20260905223508 | 66 | 138 | 0.0 | 0.0 | 0.00 | 0.00 | 0.00 | 53 | 1019.4 |
| 20260905223403 | 67 | 0 | 1.7 | 0.0 | 0.00 | 0.00 | 0.00 | 53 | 1019.0 |
| 20260905223303 | 67 | 0 | 1.7 | 0.0 | 0.00 | 0.00 | 0.00 | 53 | 1019.0 |
| 20260905223203 | 67 | 0 | 1.7 | 0.0 | 0.00 | 0.00 | 0.00 | 53 | 1019.0 |
| 20260905223030 | 66 | 138 | 0.0 | 0.0 | 0.00 | 0.00 | 0.00 | 53 | 1019.3 |
| 20260905223003 | 67 | 0 | 1.7 | 0.0 | 0.00 | 0.00 | 0.00 | 53 | 1019.0 |
| 20260905222903 | 67 | 0 | 1.7 | 0.0 | 0.00 | 0.00 | 0.00 | 53 | 1019.0 |
| 20260905222803 | 67 | 0 | 1.7 | 0.0 | 0.00 | 0.00 | 0.00 | 53 | 1019.0 |
| 20260905222703 | 67 | 0 | 1.7 | 0.0 | 0.00 | 0.00 | 0.00 | 53 | 1019.0 |
| 20260905222603 | 67 | 0 | 1.7 | 0.0 | 0.00 | 0.00 | 0.00 | 52 | 1019.0 |
| 20260905222508 | 67 | 130 | 0.0 | 0.0 | 0.00 | 0.00 | 0.00 | 52 | 1019.3 |
| 20260905222503 | 67 | 0 | 1.7 | 0.0 | 0.00 | 0.00 | 0.00 | 53 | 1019.0 |
| 20260905222403 | 67 | 0 | 1.7 | 0.0 | 0.00 | 0.00 | 0.00 | 52 | 1019.0 |
| 20260905222306 | 67 | 0 | 1.7 | 0.0 | 0.00 | 0.00 | 0.00 | 52 | 1019.0 |
| 20260905222203 | 67 | 0 | 1.7 | 0.0 | 0.00 | 0.00 | 0.00 | 52 | 1019.0 |
| 20260905222103 | 67 | 0 | 1.7 | 0.0 | 0.00 | 0.00 | 0.00 | 51 | 1019.0 |
| 20260905222013 | 67 | 130 | 0.0 | 0.0 | 0.00 | 0.00 | 0.00 | 51 | 1019.3 |
| 20260905222003 | 67 | 0 | 1.7 | 0.0 | 0.00 | 0.00 | 0.00 | 51 | 1019.0 |
| 20260905221903 | 67 | 0 | 1.7 | 0.0 | 0.00 | 0.00 | 0.00 | 51 | 1019.1 |
| 20260905221803 | 67 | 0 | 1.7 | 0.0 | 0.00 | 0.00 | 0.00 | 51 | 1019.0 |
| 20260905221703 | 67 | 0 | 1.7 | 0.0 | 0.00 | 0.00 | 0.00 | 52 | 1019.0 |
| 20260905221603 | 67 | 0 | 1.7 | 0.0 | 0.00 | 0.00 | 0.00 | 52 | 1019.0 |
| 20260905221525 | 67 | 130 | 0.0 | 0.0 | 0.00 | 0.00 | 0.00 | 52 | 1019.3 |
| 20260905221503 | 67 | 0 | 1.7 | 0.0 | 0.00 | 0.00 | 0.00 | 53 | 1019.0 |
| 20260905221403 | 67 | 0 | 1.7 | 0.0 | 0.00 | 0.00 | 0.00 | 53 | 1019.0 |
| 20260905221303 | 67 | 0 | 1.7 | 0.0 | 0.00 | 0.00 | 0.00 | 51 | 1019.0 |
| 20260905221203 | 67 | 0 | 1.7 | 0.0 | 0.00 | 0.00 | 0.00 | 51 | 1019.0 |
| 20260905221103 | 67 | 0 | 1.7 | 0.0 | 0.00 | 0.00 | 0.00 | 51 | 1019.0 |
| 20260905221011 | 67 | 130 | 0.0 | 0.0 | 0.00 | 0.00 | 0.00 | 51 | 1019.3 |
| 20260905220903 | 68 | 0 | 1.7 | 0.0 | 0.00 | 0.00 | 0.00 | 51 | 1018.9 |
| 20260905220803 | 68 | 0 | 1.7 | 0.0 | 0.00 | 0.00 | 0.00 | 50 | 1019.0 |
| 20260905220717 | 68 | 0 | 1.7 | 0.0 | 0.00 | 0.00 | 0.00 | 50 | 1018.9 |
| 20260905220603 | 68 | 0 | 1.7 | 1.7 | 0.00 | 0.00 | 0.00 | 51 | 1019.0 |
| 20260905220518 | 68 | 0 | 1.7 | 1.7 | 0.00 | 0.00 | 0.00 | 51 | 1019.0 |
| 20260905220403 | 68 | 0 | 1.7 | 1.7 | 0.00 | 0.00 | 0.00 | 52 | 1019.0 |
| 20260905220103 | 68 | 0 | 1.7 | 1.7 | 0.00 | 0.00 | 0.00 | 49 | 1018.9 |
| 20260905220028 | 67 | 143 | 0.0 | 1.7 | 0.00 | 0.00 | 0.00 | 49 | 1019.2 |
| 20260905220003 | 68 | 0 | 1.7 | 1.7 | 0.00 | 0.00 | 0.00 | 49 | 1019.0 |
| 20260905215903 | 68 | 0 | 1.7 | 1.7 | 0.00 | 0.00 | 0.00 | 49 | 1019.0 |
| 20260905215803 | 68 | 0 | 1.7 | 1.7 | 0.00 | 0.00 | 0.00 | 50 | 1019.0 |
| 20260905215703 | 68 | 0 | 1.7 | 1.7 | 0.00 | 0.00 | 0.00 | 50 | 1019.0 |
| 20260905215603 | 68 | 0 | 1.7 | 1.7 | 0.00 | 0.00 | 0.00 | 50 | 1018.9 |
| 20260905215504 | 67 | 143 | 0.0 | 1.7 | 0.00 | 0.00 | 0.00 | 50 | 1019.2 |
| 20260905215403 | 68 | 0 | 1.7 | 0.0 | 0.00 | 0.00 | 0.00 | 51 | 1018.9 |
| 20260905215203 | 68 | 0 | 1.7 | 1.7 | 0.00 | 0.00 | 0.00 | 50 | 1018.9 |
| 20260905215103 | 68 | 172 | 1.7 | 1.7 | 0.00 | 0.00 | 0.00 | 51 | 1018.9 |
| 20260905215005 | 67 | 143 | 0.0 | 1.7 | 0.00 | 0.00 | 0.00 | 50 | 1019.2 |
| 20260905214903 | 68 | 172 | 1.7 | 1.7 | 0.00 | 0.00 | 0.00 | 50 | 1018.9 |
| 20260905214803 | 68 | 172 | 1.7 | 1.7 | 0.00 | 0.00 | 0.00 | 50 | 1018.9 |
| 20260905214703 | 68 | 172 | 1.7 | 1.7 | 0.00 | 0.00 | 0.00 | 50 | 1018.8 |
| 20260905214603 | 68 | 172 | 1.7 | 1.7 | 0.00 | 0.00 | 0.00 | 50 | 1018.8 |
| 20260905214511 | 68 | 143 | 0.0 | 1.7 | 0.00 | 0.00 | 0.00 | 50 | 1019.1 |
| 20260905214503 | 68 | 172 | 1.7 | 1.7 | 0.00 | 0.00 | 0.00 | 51 | 1018.8 |
| 20260905214403 | 68 | 172 | 1.7 | 1.7 | 0.00 | 0.00 | 0.00 | 50 | 1018.8 |
| 20260905214303 | 68 | 172 | 1.7 | 1.7 | 0.00 | 0.00 | 0.00 | 50 | 1018.8 |
| 20260905214103 | 68 | 0 | 1.7 | 0.0 | 0.00 | 0.00 | 0.00 | 50 | 1018.7 |
| 20260905214004 | 68 | 237 | 0.0 | 0.0 | 0.00 | 0.00 | 0.00 | 50 | 1019.0 |
| 20260905213903 | 68 | 0 | 1.7 | 0.0 | 0.00 | 0.00 | 0.00 | 51 | 1018.7 |
| 20260905213803 | 68 | 0 | 1.7 | 0.0 | 0.00 | 0.00 | 0.00 | 51 | 1018.7 |
| 20260905213703 | 68 | 0 | 1.7 | 0.0 | 0.00 | 0.00 | 0.00 | 50 | 1018.7 |
| 20260905213603 | 68 | 0 | 1.7 | 0.0 | 0.00 | 0.00 | 0.00 | 50 | 1018.7 |
| 20260905213504 | 68 | 247 | 0.0 | 0.0 | 0.00 | 0.00 | 0.00 | 50 | 1019.0 |
| 20260905213403 | 69 | 0 | 1.7 | 0.0 | 0.00 | 0.00 | 0.00 | 51 | 1018.7 |
| 20260905213303 | 69 | 0 | 1.7 | 0.0 | 0.00 | 0.00 | 0.00 | 52 | 1018.7 |
| 20260905213103 | 69 | 0 | 1.7 | 0.0 | 0.00 | 0.00 | 0.00 | 51 | 1018.7 |
| 20260905213013 | 68 | 283 | 0.0 | 0.0 | 0.00 | 0.00 | 0.00 | 51 | 1019.0 |
| 20260905213003 | 69 | 0 | 1.7 | 0.0 | 0.00 | 0.00 | 0.00 | 51 | 1018.7 |
| 20260905212903 | 69 | 0 | 1.7 | 0.0 | 0.00 | 0.00 | 0.00 | 50 | 1018.7 |
| 20260905212803 | 69 | 0 | 1.7 | 0.0 | 0.00 | 0.00 | 0.00 | 50 | 1018.7 |
| 20260905212703 | 69 | 0 | 1.7 | 0.0 | 0.00 | 0.00 | 0.00 | 51 | 1018.6 |
| 20260905212603 | 69 | 0 | 1.7 | 0.0 | 0.00 | 0.00 | 0.00 | 50 | 1018.6 |
| 20260905212508 | 69 | 283 | 0.0 | 0.0 | 0.00 | 0.00 | 0.00 | 50 | 1018.9 |
| 20260905212503 | 69 | 0 | 1.7 | 0.0 | 0.00 | 0.00 | 0.00 | 50 | 1018.6 |
| 20260905212403 | 69 | 0 | 1.7 | 0.0 | 0.00 | 0.00 | 0.00 | 50 | 1018.6 |
| 20260905212306 | 69 | 0 | 1.7 | 0.0 | 0.00 | 0.00 | 0.00 | 49 | 1018.6 |
| 20260905212103 | 69 | 0 | 1.7 | 0.0 | 0.00 | 0.00 | 0.00 | 49 | 1018.6 |
| 20260905212006 | 69 | 283 | 0.0 | 0.0 | 0.00 | 0.00 | 0.00 | 49 | 1018.9 |
| 20260905212003 | 69 | 0 | 1.7 | 0.0 | 0.00 | 0.00 | 0.00 | 49 | 1018.6 |
| 20260905211903 | 69 | 0 | 1.7 | 0.0 | 0.00 | 0.00 | 0.00 | 49 | 1018.6 |
| 20260905211803 | 69 | 0 | 1.7 | 0.9 | 0.00 | 0.00 | 0.00 | 50 | 1018.6 |
| 20260905211703 | 70 | 283 | 1.7 | 1.7 | 0.00 | 0.00 | 0.00 | 49 | 1018.5 |
| 20260905211603 | 70 | 283 | 1.7 | 1.7 | 0.00 | 0.00 | 0.00 | 49 | 1018.5 |
| 20260905211522 | 69 | 283 | 0.0 | 1.7 | 0.00 | 0.00 | 0.00 | 49 | 1018.8 |
| 20260905211503 | 70 | 283 | 1.7 | 1.7 | 0.00 | 0.00 | 0.00 | 49 | 1018.5 |
| 20260905211403 | 70 | 283 | 1.7 | 1.7 | 0.00 | 0.00 | 0.00 | 49 | 1018.5 |
| 20260905211303 | 70 | 283 | 1.7 | 1.7 | 0.00 | 0.00 | 0.00 | 49 | 1018.5 |
| 20260905211203 | 69 | 283 | 1.7 | 1.7 | 0.00 | 0.00 | 0.00 | 49 | 1018.5 |
| 20260905211103 | 69 | 283 | 1.7 | 1.7 | 0.00 | 0.00 | 0.00 | 49 | 1018.5 |
| 20260905211008 | 69 | 283 | 0.0 | 1.7 | 0.00 | 0.00 | 0.00 | 49 | 1018.8 |
| 20260905211003 | 70 | 283 | 1.7 | 1.7 | 0.00 | 0.00 | 0.00 | 49 | 1018.6 |
| 20260905210703 | 70 | 283 | 1.7 | 1.7 | 0.00 | 0.00 | 0.00 | 49 | 1018.5 |
| 20260905210603 | 70 | 0 | 1.7 | 0.0 | 0.00 | 0.00 | 0.00 | 50 | 1018.4 |
| 20260905210512 | 69 | 184 | 0.0 | 0.0 | 0.00 | 0.00 | 0.00 | 49 | 1018.7 |
| 20260905210403 | 70 | 0 | 1.7 | 0.0 | 0.00 | 0.00 | 0.00 | 50 | 1018.4 |
| 20260905210303 | 70 | 0 | 1.7 | 0.0 | 0.00 | 0.00 | 0.00 | 49 | 1018.4 |
| 20260905210217 | 70 | 0 | 1.7 | 0.0 | 0.00 | 0.00 | 0.00 | 49 | 1018.4 |
| 20260905210103 | 70 | 0 | 1.7 | 0.0 | 0.00 | 0.00 | 0.00 | 48 | 1018.3 |
| 20260905210038 | 69 | 171 | 0.0 | 0.0 | 0.00 | 0.00 | 0.00 | 48 | 1018.6 |
| 20260905205903 | 70 | 0 | 1.7 | 0.0 | 0.00 | 0.00 | 0.00 | 48 | 1018.3 |
| 20260905205803 | 70 | 0 | 1.7 | 0.0 | 0.00 | 0.00 | 0.00 | 47 | 1018.3 |
| 20260905205603 | 70 | 0 | 1.7 | 0.0 | 0.00 | 0.00 | 0.00 | 47 | 1018.3 |
| 20260905205512 | 70 | 171 | 0.0 | 0.0 | 0.00 | 0.00 | 0.00 | 47 | 1018.6 |
| 20260905205503 | 70 | 0 | 1.7 | 0.0 | 0.00 | 0.00 | 0.00 | 48 | 1018.3 |
| 20260905205403 | 70 | 0 | 1.7 | 0.0 | 0.00 | 0.00 | 0.00 | 47 | 1018.3 |
| 20260905205306 | 70 | 0 | 1.7 | 0.0 | 0.00 | 0.00 | 0.00 | 47 | 1018.2 |
| 20260905205203 | 70 | 0 | 1.7 | 0.0 | 0.00 | 0.00 | 0.00 | 47 | 1018.2 |
| 20260905205103 | 70 | 0 | 1.7 | 0.0 | 0.00 | 0.00 | 0.00 | 47 | 1018.2 |
| 20260905205016 | 70 | 171 | 0.0 | 0.0 | 0.00 | 0.00 | 0.00 | 47 | 1018.4 |
| 20260905205003 | 70 | 0 | 1.7 | 0.0 | 0.00 | 0.00 | 0.00 | 46 | 1018.2 |
| 20260905204903 | 71 | 0 | 1.7 | 0.0 | 0.00 | 0.00 | 0.00 | 46 | 1018.3 |
| 20260905204803 | 71 | 0 | 1.7 | 0.0 | 0.00 | 0.00 | 0.00 | 46 | 1018.2 |
| 20260905204603 | 71 | 0 | 1.7 | 0.0 | 0.00 | 0.00 | 0.00 | 46 | 1018.3 |
| 20260905204506 | 70 | 171 | 0.0 | 0.0 | 0.00 | 0.00 | 0.00 | 46 | 1018.5 |
| 20260905204503 | 71 | 0 | 1.7 | 0.0 | 0.00 | 0.00 | 0.00 | 47 | 1018.3 |
| 20260905204403 | 71 | 0 | 1.7 | 0.0 | 0.00 | 0.00 | 0.00 | 46 | 1018.3 |
| 20260905204303 | 71 | 0 | 1.7 | 0.0 | 0.00 | 0.00 | 0.00 | 46 | 1018.3 |
| 20260905204103 | 71 | 0 | 1.7 | 0.0 | 0.00 | 0.00 | 0.00 | 46 | 1018.3 |
| 20260905204004 | 71 | 171 | 0.0 | 0.0 | 0.00 | 0.00 | 0.00 | 45 | 1018.6 |
| 20260905203903 | 71 | 0 | 1.7 | 0.0 | 0.00 | 0.00 | 0.00 | 45 | 1018.3 |
| 20260905203803 | 71 | 0 | 1.7 | 0.0 | 0.00 | 0.00 | 0.00 | 45 | 1018.3 |
| 20260905203703 | 71 | 0 | 1.7 | 0.0 | 0.00 | 0.00 | 0.00 | 45 | 1018.3 |
| 20260905203603 | 71 | 0 | 1.7 | 0.0 | 0.00 | 0.00 | 0.00 | 45 | 1018.3 |
| 20260905203506 | 71 | 171 | 0.0 | 0.0 | 0.00 | 0.00 | 0.00 | 44 | 1018.6 |
| 20260905203503 | 71 | 0 | 1.7 | 0.0 | 0.00 | 0.00 | 0.00 | 45 | 1018.3 |
| 20260905203403 | 72 | 0 | 1.7 | 0.0 | 0.00 | 0.00 | 0.00 | 45 | 1018.3 |
| 20260905203303 | 72 | 0 | 1.7 | 0.0 | 0.00 | 0.00 | 0.00 | 45 | 1018.3 |
| 20260905203203 | 72 | 0 | 1.7 | 0.0 | 0.00 | 0.00 | 0.00 | 45 | 1018.3 |
| 20260905203103 | 72 | 0 | 1.7 | 1.7 | 0.00 | 0.00 | 0.00 | 44 | 1018.2 |
| 20260905203016 | 71 | 171 | 0.0 | 1.7 | 0.00 | 0.00 | 0.00 | 44 | 1018.5 |
| 20260905203003 | 72 | 0 | 1.7 | 1.7 | 0.00 | 0.00 | 0.00 | 44 | 1018.3 |
| 20260905202903 | 72 | 191 | 1.7 | 1.7 | 0.00 | 0.00 | 0.00 | 44 | 1018.2 |
| 20260905202803 | 72 | 191 | 1.7 | 1.7 | 0.00 | 0.00 | 0.00 | 44 | 1018.2 |
| 20260905202703 | 72 | 191 | 1.7 | 1.7 | 0.00 | 0.00 | 0.00 | 44 | 1018.2 |
| 20260905202603 | 72 | 191 | 1.7 | 1.7 | 0.00 | 0.00 | 0.00 | 44 | 1018.2 |
| 20260905202508 | 71 | 171 | 0.0 | 1.7 | 0.00 | 0.00 | 0.00 | 44 | 1018.5 |
| 20260905202503 | 72 | 191 | 1.7 | 1.7 | 0.00 | 0.00 | 0.00 | 44 | 1018.2 |
| 20260905202403 | 72 | 191 | 1.7 | 1.7 | 0.00 | 0.00 | 0.00 | 44 | 1018.2 |
| 20260905202306 | 72 | 191 | 1.7 | 1.7 | 0.00 | 0.00 | 0.00 | 44 | 1018.2 |
| 20260905202203 | 72 | 191 | 1.7 | 1.7 | 0.00 | 0.00 | 0.00 | 44 | 1018.2 |
| 20260905202103 | 72 | 191 | 1.7 | 1.7 | 0.00 | 0.00 | 0.00 | 44 | 1018.2 |
| 20260905202008 | 71 | 191 | 0.0 | 1.7 | 0.00 | 0.00 | 0.00 | 43 | 1018.4 |
| 20260905202003 | 72 | 191 | 1.7 | 0.9 | 0.00 | 0.00 | 0.00 | 45 | 1018.3 |
| 20260905201903 | 72 | 0 | 1.7 | 0.0 | 0.00 | 0.00 | 0.00 | 44 | 1018.2 |
| 20260905201803 | 72 | 0 | 1.7 | 1.7 | 0.00 | 0.00 | 0.00 | 44 | 1018.2 |
| 20260905201703 | 72 | 194 | 1.7 | 1.7 | 0.00 | 0.00 | 0.00 | 44 | 1018.2 |
| 20260905201603 | 72 | 194 | 1.7 | 1.7 | 0.00 | 0.00 | 0.00 | 44 | 1018.2 |
| 20260905201523 | 71 | 194 | 0.0 | 1.7 | 0.00 | 0.00 | 0.00 | 44 | 1018.4 |
| 20260905201503 | 72 | 194 | 1.7 | 1.7 | 0.00 | 0.00 | 0.00 | 44 | 1018.2 |
| 20260905201403 | 72 | 194 | 1.7 | 1.7 | 0.00 | 0.00 | 0.00 | 44 | 1018.2 |
| 20260905201303 | 72 | 194 | 1.7 | 1.7 | 0.00 | 0.00 | 0.00 | 44 | 1018.1 |
| 20260905201203 | 72 | 194 | 1.7 | 1.7 | 0.00 | 0.00 | 0.00 | 44 | 1018.2 |
| 20260905201103 | 72 | 194 | 1.7 | 1.7 | 0.00 | 0.00 | 0.00 | 43 | 1018.2 |
| 20260905201010 | 71 | 194 | 0.0 | 1.7 | 0.00 | 0.00 | 0.00 | 43 | 1018.5 |
| 20260905201003 | 72 | 194 | 1.7 | 1.7 | 0.00 | 0.00 | 0.00 | 43 | 1018.2 |
| 20260905200917 | 72 | 194 | 1.7 | 1.7 | 0.00 | 0.00 | 0.00 | 43 | 1018.1 |
| 20260905200803 | 72 | 194 | 1.7 | 1.7 | 0.00 | 0.00 | 0.00 | 43 | 1018.1 |
| 20260905200509 | 71 | 173 | 0.0 | 0.0 | 0.00 | 0.00 | 0.00 | 42 | 1018.3 |
| 20260905200503 | 72 | 0 | 1.7 | 0.0 | 0.00 | 0.00 | 0.00 | 43 | 1018.1 |
| 20260905200403 | 72 | 0 | 1.7 | 0.0 | 0.00 | 0.00 | 0.00 | 44 | 1018.1 |
| 20260905200303 | 72 | 0 | 1.7 | 0.0 | 0.00 | 0.00 | 0.00 | 44 | 1018.1 |
| 20260905200203 | 72 | 0 | 1.7 | 0.0 | 0.00 | 0.00 | 0.00 | 44 | 1018.1 |
| 20260905200037 | 72 | 173 | 0.0 | 0.0 | 0.00 | 0.00 | 0.00 | 43 | 1018.3 |
| 20260905195903 | 72 | 0 | 1.7 | 0.0 | 0.00 | 0.00 | 0.00 | 43 | 1018.1 |
| 20260905195803 | 72 | 0 | 1.7 | 0.0 | 0.00 | 0.00 | 0.00 | 43 | 1018.1 |
| 20260905195703 | 72 | 0 | 1.7 | 0.0 | 0.00 | 0.00 | 0.00 | 43 | 1018.1 |
| 20260905195603 | 72 | 0 | 1.7 | 0.0 | 0.00 | 0.00 | 0.00 | 43 | 1018.2 |
| 20260905195513 | 72 | 174 | 0.0 | 0.0 | 0.00 | 0.00 | 0.00 | 43 | 1018.4 |
| 20260905195503 | 72 | 0 | 1.7 | 0.0 | 0.00 | 0.00 | 0.00 | 44 | 1018.2 |
| 20260905195403 | 73 | 0 | 1.7 | 0.0 | 0.00 | 0.00 | 0.00 | 44 | 1018.2 |
| 20260905195203 | 73 | 0 | 1.7 | 0.0 | 0.00 | 0.00 | 0.00 | 44 | 1018.1 |
| 20260905195103 | 73 | 0 | 1.7 | 0.0 | 0.00 | 0.00 | 0.00 | 44 | 1018.1 |
| 20260905195014 | 72 | 174 | 0.0 | 0.0 | 0.00 | 0.00 | 0.00 | 43 | 1018.4 |
| 20260905194903 | 73 | 0 | 1.7 | 1.7 | 0.00 | 0.00 | 0.00 | 42 | 1018.2 |
| 20260905194803 | 73 | 0 | 1.7 | 1.7 | 0.00 | 0.00 | 0.00 | 43 | 1018.1 |
| 20260905194703 | 73 | 0 | 1.7 | 1.7 | 0.00 | 0.00 | 0.00 | 43 | 1018.1 |
| 20260905194603 | 73 | 0 | 1.7 | 1.7 | 0.00 | 0.00 | 0.00 | 44 | 1018.1 |
| 20260905194527 | 73 | 108 | 0.0 | 1.7 | 0.00 | 0.00 | 0.00 | 44 | 1018.4 |
| 20260905194503 | 73 | 0 | 1.7 | 1.7 | 0.00 | 0.00 | 0.00 | 44 | 1018.1 |
| 20260905194303 | 73 | 0 | 1.7 | 1.7 | 0.00 | 0.00 | 0.00 | 43 | 1018.1 |
| 20260905194203 | 73 | 0 | 1.7 | 1.7 | 0.00 | 0.00 | 0.00 | 43 | 1018.2 |
| 20260905194103 | 73 | 0 | 1.7 | 1.7 | 0.00 | 0.00 | 0.00 | 43 | 1018.1 |
| 20260905194014 | 73 | 107 | 0.0 | 1.7 | 0.00 | 0.00 | 0.00 | 42 | 1018.4 |
| 20260905194003 | 73 | 0 | 1.7 | 1.7 | 0.00 | 0.00 | 0.00 | 42 | 1018.1 |
| 20260905193903 | 74 | 0 | 1.7 | 0.0 | 0.00 | 0.00 | 0.00 | 43 | 1018.1 |
| 20260905193803 | 74 | 0 | 1.7 | 0.0 | 0.00 | 0.00 | 0.00 | 44 | 1018.1 |
| 20260905193703 | 74 | 0 | 1.7 | 0.0 | 0.00 | 0.00 | 0.00 | 44 | 1018.1 |
| 20260905193617 | 74 | 0 | 1.7 | 0.0 | 0.00 | 0.00 | 0.00 | 43 | 1018.1 |
| 20260905193503 | 74 | 0 | 1.7 | 0.0 | 0.00 | 0.00 | 0.00 | 43 | 1018.1 |
| 20260905193418 | 74 | 0 | 1.7 | 0.0 | 0.00 | 0.00 | 0.00 | 42 | 1018.1 |
| 20260905193103 | 74 | 0 | 1.7 | 0.0 | 0.00 | 0.00 | 0.00 | 44 | 1018.2 |
| 20260905193017 | 74 | 108 | 0.0 | 0.0 | 0.00 | 0.00 | 0.00 | 44 | 1018.4 |
| 20260905193003 | 74 | 0 | 1.7 | 0.0 | 0.00 | 0.00 | 0.00 | 43 | 1018.2 |
| 20260905192903 | 74 | 0 | 1.7 | 0.0 | 0.00 | 0.00 | 0.00 | 43 | 1018.2 |
| 20260905192803 | 74 | 0 | 1.7 | 0.0 | 0.00 | 0.00 | 0.00 | 44 | 1018.1 |
| 20260905192703 | 74 | 0 | 1.7 | 0.0 | 0.00 | 0.00 | 0.00 | 43 | 1018.1 |
| 20260905192603 | 74 | 0 | 1.7 | 0.0 | 0.00 | 0.00 | 0.00 | 40 | 1018.1 |
| 20260905192504 | 74 | 107 | 0.0 | 0.0 | 0.00 | 0.00 | 0.00 | 40 | 1018.4 |
| 20260905192403 | 74 | 0 | 1.7 | 0.0 | 0.00 | 0.00 | 0.00 | 40 | 1018.0 |
| 20260905192306 | 74 | 0 | 1.7 | 0.0 | 0.00 | 0.00 | 0.00 | 42 | 1018.1 |
| 20260905192203 | 74 | 0 | 1.7 | 0.0 | 0.00 | 0.00 | 0.00 | 42 | 1018.1 |
| 20260905192103 | 74 | 0 | 1.7 | 0.0 | 0.00 | 0.00 | 0.00 | 42 | 1018.0 |
| 20260905192004 | 74 | 107 | 0.0 | 0.0 | 0.00 | 0.00 | 0.00 | 41 | 1018.3 |
| 20260905191903 | 74 | 0 | 1.7 | 0.0 | 0.00 | 0.00 | 0.00 | 41 | 1018.0 |
| 20260905191803 | 74 | 0 | 1.7 | 0.0 | 0.00 | 0.00 | 0.00 | 41 | 1018.0 |
| 20260905191703 | 74 | 0 | 1.7 | 0.0 | 0.00 | 0.00 | 0.00 | 41 | 1018.0 |
| 20260905191603 | 74 | 0 | 1.7 | 0.0 | 0.00 | 0.00 | 0.00 | 41 | 1018.0 |
| 20260905191520 | 74 | 107 | 0.0 | 0.0 | 0.00 | 0.00 | 0.00 | 40 | 1018.2 |
| 20260905191503 | 74 | 0 | 1.7 | 0.0 | 0.00 | 0.00 | 0.00 | 41 | 1018.0 |
| 20260905191403 | 74 | 0 | 1.7 | 0.0 | 0.00 | 0.00 | 0.00 | 40 | 1017.9 |
| 20260905191217 | 74 | 0 | 1.7 | 0.0 | 0.00 | 0.00 | 0.00 | 40 | 1017.9 |
| 20260905191103 | 74 | 0 | 1.7 | 0.0 | 0.00 | 0.00 | 0.00 | 40 | 1017.9 |
| 20260905191008 | 74 | 107 | 0.0 | 0.0 | 0.00 | 0.00 | 0.00 | 40 | 1018.2 |
| 20260905190903 | 74 | 108 | 1.7 | 0.0 | 0.00 | 0.00 | 0.00 | 40 | 1017.9 |
| 20260905190803 | 75 | 108 | 1.7 | 0.0 | 0.00 | 0.00 | 0.00 | 40 | 1017.9 |
| 20260905190703 | 75 | 108 | 1.7 | 1.7 | 0.00 | 0.00 | 0.00 | 40 | 1017.9 |
| 20260905190603 | 75 | 108 | 1.7 | 1.7 | 0.00 | 0.00 | 0.00 | 40 | 1017.8 |
| 20260905190510 | 74 | 108 | 0.0 | 1.7 | 0.00 | 0.00 | 0.00 | 40 | 1018.1 |
| 20260905190503 | 75 | 108 | 1.7 | 1.7 | 0.00 | 0.00 | 0.00 | 41 | 1017.8 |
| 20260905190303 | 75 | 108 | 1.7 | 1.7 | 0.00 | 0.00 | 0.00 | 41 | 1017.8 |
| 20260905190203 | 75 | 108 | 1.7 | 1.7 | 0.00 | 0.00 | 0.00 | 41 | 1017.7 |
| 20260905190103 | 75 | 108 | 1.7 | 1.7 | 0.00 | 0.00 | 0.00 | 41 | 1017.8 |
| 20260905190026 | 74 | 108 | 0.0 | 1.7 | 0.00 | 0.00 | 0.00 | 40 | 1018.1 |
| 20260905190003 | 75 | 108 | 1.7 | 1.7 | 0.00 | 0.00 | 0.00 | 40 | 1017.8 |
| 20260905185903 | 75 | 108 | 1.7 | 1.7 | 0.00 | 0.00 | 0.00 | 41 | 1017.8 |
| 20260905185803 | 75 | 108 | 1.7 | 1.7 | 0.00 | 0.00 | 0.00 | 41 | 1017.8 |
| 20260905185703 | 75 | 108 | 1.7 | 1.7 | 0.00 | 0.00 | 0.00 | 41 | 1017.9 |
| 20260905185603 | 75 | 0 | 1.7 | 0.0 | 0.00 | 0.00 | 0.00 | 41 | 1017.9 |
| 20260905185511 | 75 | 108 | 0.0 | 0.0 | 0.00 | 0.00 | 0.00 | 41 | 1018.2 |
| 20260905185503 | 75 | 0 | 1.7 | 0.0 | 0.00 | 0.00 | 0.00 | 41 | 1017.8 |
| 20260905185305 | 75 | 0 | 1.7 | 0.0 | 0.00 | 0.00 | 0.00 | 41 | 1017.9 |
| 20260905185203 | 76 | 0 | 1.7 | 0.0 | 0.00 | 0.00 | 0.00 | 42 | 1017.9 |
| 20260905185012 | 75 | 108 | 0.0 | 0.0 | 0.00 | 0.00 | 0.00 | 40 | 1018.2 |
| 20260905185003 | 76 | 0 | 1.7 | 0.0 | 0.00 | 0.00 | 0.00 | 40 | 1017.9 |
| 20260905184903 | 76 | 0 | 1.7 | 0.0 | 0.00 | 0.00 | 0.00 | 40 | 1017.9 |
| 20260905184803 | 76 | 0 | 1.7 | 0.0 | 0.00 | 0.00 | 0.00 | 40 | 1017.9 |
| 20260905184603 | 76 | 108 | 1.7 | 0.0 | 0.00 | 0.00 | 0.00 | 40 | 1017.9 |
| 20260905184534 | 75 | 108 | 0.0 | 1.7 | 0.00 | 0.00 | 0.00 | 39 | 1018.2 |
| 20260905184503 | 76 | 108 | 1.7 | 0.0 | 0.00 | 0.00 | 0.00 | 40 | 1017.9 |
| 20260905184403 | 76 | 108 | 1.7 | 1.7 | 0.00 | 0.00 | 0.00 | 40 | 1017.9 |
| 20260905184303 | 76 | 108 | 1.7 | 1.7 | 0.00 | 0.00 | 0.00 | 40 | 1017.9 |
| 20260905184203 | 76 | 108 | 1.7 | 1.7 | 0.00 | 0.00 | 0.00 | 40 | 1017.9 |
| 20260905184103 | 76 | 108 | 1.7 | 1.7 | 0.00 | 0.00 | 0.00 | 40 | 1017.9 |
| 20260905184011 | 75 | 108 | 0.0 | 1.7 | 0.00 | 0.00 | 0.00 | 39 | 1018.2 |
| 20260905184003 | 76 | 108 | 1.7 | 1.7 | 0.00 | 0.00 | 0.00 | 40 | 1017.9 |
| 20260905183903 | 76 | 108 | 1.7 | 1.7 | 0.00 | 0.00 | 0.00 | 40 | 1017.9 |
| 20260905183803 | 76 | 108 | 1.7 | 1.7 | 0.00 | 0.00 | 0.00 | 39 | 1017.8 |
| 20260905183703 | 76 | 107 | 1.7 | 1.7 | 0.00 | 0.00 | 0.00 | 39 | 1017.9 |
| 20260905183513 | 75 | 108 | 0.0 | 1.7 | 0.00 | 0.00 | 0.00 | 39 | 1018.1 |
| 20260905183503 | 76 | 107 | 1.7 | 1.7 | 0.00 | 0.00 | 0.00 | 39 | 1017.8 |
| 20260905183403 | 76 | 107 | 1.7 | 1.7 | 0.00 | 0.00 | 0.00 | 39 | 1017.8 |
| 20260905183303 | 76 | 0 | 1.7 | 0.0 | 0.00 | 0.00 | 0.00 | 39 | 1017.8 |
| 20260905183203 | 76 | 0 | 1.7 | 0.0 | 0.00 | 0.00 | 0.00 | 40 | 1017.8 |
| 20260905183103 | 76 | 0 | 1.7 | 0.0 | 0.00 | 0.00 | 0.00 | 39 | 1017.8 |
| 20260905183038 | 75 | 106 | 0.0 | 0.0 | 0.00 | 0.00 | 0.00 | 38 | 1018.1 |
| 20260905183003 | 76 | 0 | 1.7 | 0.0 | 0.00 | 0.00 | 0.00 | 39 | 1017.8 |
| 20260905182903 | 76 | 0 | 1.7 | 0.0 | 0.00 | 0.00 | 0.00 | 39 | 1017.8 |
| 20260905182803 | 76 | 0 | 1.7 | 0.0 | 0.00 | 0.00 | 0.00 | 39 | 1017.7 |
| 20260905182703 | 76 | 0 | 1.7 | 0.0 | 0.00 | 0.00 | 0.00 | 39 | 1017.7 |
| 20260905182503 | 76 | 0 | 1.7 | 0.0 | 0.00 | 0.00 | 0.00 | 39 | 1017.7 |
| 20260905182403 | 76 | 0 | 1.7 | 0.0 | 0.00 | 0.00 | 0.00 | 39 | 1017.7 |
| 20260905182305 | 76 | 0 | 1.7 | 0.0 | 0.00 | 0.00 | 0.00 | 39 | 1017.7 |
| 20260905182203 | 76 | 0 | 1.7 | 0.0 | 0.00 | 0.00 | 0.00 | 38 | 1017.7 |
| 20260905182103 | 76 | 0 | 1.7 | 0.0 | 0.00 | 0.00 | 0.00 | 38 | 1017.7 |
| 20260905182006 | 76 | 106 | 0.0 | 0.0 | 0.00 | 0.00 | 0.00 | 38 | 1018.0 |
| 20260905182003 | 76 | 0 | 1.7 | 0.0 | 0.00 | 0.00 | 0.00 | 39 | 1017.7 |
| 20260905181903 | 76 | 0 | 1.7 | 0.0 | 0.00 | 0.00 | 0.00 | 39 | 1017.6 |
| 20260905181803 | 76 | 0 | 1.7 | 0.0 | 0.00 | 0.00 | 0.00 | 39 | 1017.6 |
| 20260905181703 | 76 | 0 | 1.7 | 0.0 | 0.00 | 0.00 | 0.00 | 39 | 1017.6 |
| 20260905181603 | 76 | 0 | 1.7 | 0.0 | 0.00 | 0.00 | 0.00 | 39 | 1017.5 |
| 20260905181512 | 76 | 106 | 0.0 | 0.0 | 0.00 | 0.00 | 0.00 | 38 | 1017.8 |
| 20260905181503 | 76 | 0 | 1.7 | 0.0 | 0.00 | 0.00 | 0.00 | 39 | 1017.5 |
| 20260905181403 | 77 | 0 | 1.7 | 0.0 | 0.00 | 0.00 | 0.00 | 39 | 1017.5 |
| 20260905181303 | 77 | 0 | 1.7 | 0.0 | 0.00 | 0.00 | 0.00 | 39 | 1017.5 |
| 20260905181203 | 77 | 0 | 1.7 | 0.0 | 0.00 | 0.00 | 0.00 | 39 | 1017.4 |
| 20260905181008 | 76 | 106 | 0.0 | 0.0 | 0.00 | 0.00 | 0.00 | 38 | 1017.7 |
| 20260905180903 | 77 | 0 | 1.7 | 0.0 | 0.00 | 0.00 | 0.00 | 38 | 1017.4 |
| 20260905180803 | 77 | 0 | 1.7 | 0.0 | 0.00 | 0.00 | 0.00 | 38 | 1017.4 |
| 20260905180703 | 77 | 0 | 1.7 | 0.0 | 0.00 | 0.00 | 0.00 | 38 | 1017.3 |
| 20260905180506 | 76 | 106 | 0.0 | 0.0 | 0.00 | 0.00 | 0.00 | 38 | 1017.6 |
| 20260905180503 | 77 | 0 | 1.7 | 0.0 | 0.00 | 0.00 | 0.00 | 38 | 1017.4 |
| 20260905180403 | 77 | 0 | 1.7 | 0.0 | 0.00 | 0.00 | 0.00 | 38 | 1017.4 |
| 20260905180303 | 77 | 0 | 1.7 | 0.0 | 0.00 | 0.00 | 0.00 | 38 | 1017.4 |
| 20260905180203 | 77 | 0 | 1.7 | 0.0 | 0.00 | 0.00 | 0.00 | 38 | 1017.3 |
| 20260905180103 | 77 | 0 | 1.7 | 0.0 | 0.00 | 0.00 | 0.00 | 38 | 1017.3 |
| 20260905180019 | 77 | 106 | 0.0 | 0.0 | 0.00 | 0.00 | 0.00 | 38 | 1017.6 |
| 20260905180003 | 77 | 0 | 1.7 | 0.0 | 0.00 | 0.00 | 0.00 | 38 | 1017.2 |
| 20260905175903 | 77 | 0 | 1.7 | 0.0 | 0.00 | 0.00 | 0.00 | 38 | 1017.3 |
| 20260905175803 | 78 | 0 | 1.7 | 0.0 | 0.00 | 0.00 | 0.00 | 38 | 1017.2 |
| 20260905175703 | 78 | 0 | 1.7 | 0.0 | 0.00 | 0.00 | 0.00 | 38 | 1017.2 |
| 20260905175603 | 78 | 0 | 1.7 | 0.0 | 0.00 | 0.00 | 0.00 | 38 | 1017.2 |
| 20260905175512 | 77 | 106 | 0.0 | 0.0 | 0.00 | 0.00 | 0.00 | 38 | 1017.5 |
| 20260905175503 | 78 | 0 | 1.7 | 0.0 | 0.00 | 0.00 | 0.00 | 38 | 1017.2 |
| 20260905175403 | 78 | 0 | 1.7 | 0.0 | 0.00 | 0.00 | 0.00 | 38 | 1017.2 |
| 20260905175306 | 78 | 0 | 1.7 | 0.0 | 0.00 | 0.00 | 0.00 | 37 | 1017.2 |
| 20260905175203 | 78 | 0 | 1.7 | 0.0 | 0.00 | 0.00 | 0.00 | 37 | 1017.2 |
| 20260905175117 | 78 | 0 | 1.7 | 0.0 | 0.00 | 0.00 | 0.00 | 37 | 1017.2 |
| 20260905175011 | 77 | 106 | 0.0 | 0.0 | 0.00 | 0.00 | 0.00 | 37 | 1017.5 |
| 20260905175003 | 78 | 0 | 1.7 | 0.0 | 0.00 | 0.00 | 0.00 | 36 | 1017.2 |
| 20260905174803 | 78 | 0 | 1.7 | 0.0 | 0.00 | 0.00 | 0.00 | 37 | 1017.2 |
| 20260905174703 | 78 | 0 | 1.7 | 0.0 | 0.00 | 0.00 | 0.00 | 37 | 1017.2 |
| 20260905174603 | 78 | 0 | 1.7 | 0.0 | 0.00 | 0.00 | 0.00 | 36 | 1017.2 |
| 20260905174526 | 78 | 106 | 0.0 | 0.0 | 0.00 | 0.00 | 0.00 | 36 | 1017.5 |
| 20260905174503 | 78 | 0 | 1.7 | 0.0 | 0.00 | 0.00 | 0.00 | 36 | 1017.1 |
| 20260905174403 | 78 | 0 | 1.7 | 0.0 | 0.00 | 0.00 | 0.00 | 36 | 1017.1 |
| 20260905174303 | 78 | 0 | 1.7 | 0.0 | 0.00 | 0.00 | 0.00 | 36 | 1017.1 |
| 20260905174203 | 79 | 0 | 1.7 | 0.0 | 0.00 | 0.00 | 0.00 | 36 | 1017.1 |
| 20260905174103 | 79 | 0 | 1.7 | 0.0 | 0.00 | 0.00 | 0.00 | 36 | 1017.1 |
| 20260905174013 | 78 | 106 | 0.0 | 0.0 | 0.00 | 0.00 | 0.00 | 35 | 1017.4 |
| 20260905173903 | 79 | 0 | 1.7 | 0.0 | 0.00 | 0.00 | 0.00 | 36 | 1017.1 |
| 20260905173803 | 79 | 0 | 1.7 | 0.0 | 0.00 | 0.00 | 0.00 | 36 | 1017.1 |
| 20260905173603 | 79 | 0 | 1.7 | 0.0 | 0.00 | 0.00 | 0.00 | 36 | 1017.0 |
| 20260905173514 | 79 | 106 | 0.0 | 0.0 | 0.00 | 0.00 | 0.00 | 35 | 1017.3 |
| 20260905173503 | 79 | 0 | 1.7 | 0.0 | 0.00 | 0.00 | 0.00 | 36 | 1017.0 |
| 20260905173403 | 79 | 0 | 1.7 | 0.0 | 0.00 | 0.00 | 0.00 | 35 | 1017.0 |
| 20260905173203 | 80 | 0 | 1.7 | 0.0 | 0.00 | 0.00 | 0.00 | 35 | 1017.0 |
| 20260905173103 | 80 | 0 | 1.7 | 0.0 | 0.00 | 0.00 | 0.00 | 35 | 1017.0 |
| 20260905173041 | 79 | 106 | 0.0 | 0.0 | 0.00 | 0.00 | 0.00 | 35 | 1017.2 |
| 20260905173003 | 80 | 0 | 1.7 | 0.0 | 0.00 | 0.00 | 0.00 | 35 | 1017.0 |
| 20260905172903 | 80 | 0 | 1.7 | 0.0 | 0.00 | 0.00 | 0.00 | 35 | 1017.0 |
| 20260905172803 | 80 | 0 | 1.7 | 0.0 | 0.00 | 0.00 | 0.00 | 35 | 1016.9 |
| 20260905172703 | 80 | 0 | 1.7 | 0.0 | 0.00 | 0.00 | 0.00 | 35 | 1017.0 |
| 20260905172603 | 80 | 0 | 1.7 | 0.9 | 0.00 | 0.00 | 0.00 | 35 | 1017.0 |
| 20260905172516 | 80 | 106 | 0.0 | 0.0 | 0.00 | 0.00 | 0.00 | 34 | 1017.2 |
| 20260905172503 | 80 | 0 | 1.7 | 0.9 | 0.00 | 0.00 | 0.00 | 34 | 1016.9 |
| 20260905172305 | 80 | 0 | 1.7 | 0.9 | 0.00 | 0.00 | 0.00 | 34 | 1016.9 |
| 20260905172203 | 80 | 0 | 1.7 | 0.9 | 0.00 | 0.00 | 0.00 | 34 | 1016.9 |
| 20260905172103 | 81 | 0 | 1.7 | 0.9 | 0.00 | 0.00 | 0.00 | 34 | 1016.9 |
| 20260905172014 | 80 | 105 | 0.0 | 0.9 | 0.00 | 0.00 | 0.00 | 34 | 1017.2 |
| 20260905172003 | 81 | 0 | 1.7 | 0.9 | 0.00 | 0.00 | 0.00 | 34 | 1016.9 |
| 20260905171903 | 81 | 0 | 1.7 | 0.9 | 0.00 | 0.00 | 0.00 | 34 | 1016.9 |
| 20260905171803 | 81 | 0 | 1.7 | 0.9 | 0.00 | 0.00 | 0.00 | 34 | 1016.9 |
| 20260905171603 | 81 | 75 | 1.7 | 0.9 | 0.00 | 0.00 | 0.00 | 33 | 1016.9 |
| 20260905171508 | 81 | 105 | 0.0 | 0.9 | 0.00 | 0.00 | 0.00 | 33 | 1017.1 |
| 20260905171503 | 81 | 75 | 1.7 | 0.0 | 0.00 | 0.00 | 0.00 | 33 | 1016.9 |
| 20260905171417 | 81 | 75 | 1.7 | 0.0 | 0.00 | 0.00 | 0.00 | 33 | 1016.9 |
| 20260905171303 | 81 | 112 | 1.7 | 1.7 | 0.00 | 0.00 | 0.00 | 33 | 1016.9 |
| 20260905171117 | 82 | 112 | 1.7 | 1.7 | 0.00 | 0.00 | 0.00 | 33 | 1016.9 |
| 20260905171005 | 81 | 88 | 0.0 | 1.7 | 0.00 | 0.00 | 0.00 | 32 | 1017.1 |
| 20260905171003 | 82 | 150 | 1.7 | 1.7 | 0.00 | 0.00 | 0.00 | 32 | 1016.9 |
| 20260905170918 | 82 | 152 | 1.7 | 1.7 | 0.00 | 0.00 | 0.00 | 32 | 1016.9 |
| 20260905170803 | 82 | 152 | 1.7 | 1.7 | 0.00 | 0.00 | 0.00 | 32 | 1016.8 |
| 20260905170603 | 82 | 160 | 1.7 | 1.7 | 0.00 | 0.00 | 0.00 | 32 | 1016.8 |
| 20260905170506 | 82 | 147 | 0.0 | 1.7 | 0.00 | 0.00 | 0.00 | 32 | 1017.1 |
| 20260905170503 | 82 | 170 | 1.7 | 1.7 | 0.00 | 0.00 | 0.00 | 32 | 1016.8 |
| 20260905170403 | 82 | 170 | 1.7 | 1.7 | 0.00 | 0.00 | 0.00 | 32 | 1016.8 |
| 20260905170303 | 82 | 185 | 1.7 | 1.7 | 0.00 | 0.00 | 0.00 | 32 | 1016.8 |
| 20260905170203 | 82 | 192 | 1.7 | 1.7 | 0.00 | 0.00 | 0.00 | 32 | 1016.8 |
| 20260905170014 | 82 | 190 | 0.0 | 1.7 | 0.00 | 0.00 | 0.00 | 31 | 1017.1 |
| 20260905170003 | 83 | 152 | 1.7 | 1.7 | 0.00 | 0.00 | 0.00 | 32 | 1016.7 |
| 20260905165903 | 83 | 143 | 1.7 | 1.7 | 0.00 | 0.00 | 0.00 | 32 | 1016.8 |
| 20260905165803 | 83 | 141 | 1.7 | 1.7 | 0.00 | 0.00 | 0.00 | 32 | 1016.7 |
| 20260905165703 | 83 | 141 | 1.7 | 1.7 | 0.00 | 0.00 | 0.00 | 31 | 1016.8 |
| 20260905165506 | 83 | 242 | 0.0 | 1.7 | 0.00 | 0.00 | 0.00 | 31 | 1017.1 |
| 20260905165503 | 83 | 129 | 1.7 | 1.7 | 0.00 | 0.00 | 0.00 | 31 | 1016.8 |
| 20260905165403 | 84 | 129 | 1.7 | 1.7 | 0.00 | 0.00 | 0.00 | 31 | 1016.7 |
| 20260905165203 | 84 | 99 | 1.7 | 1.7 | 0.00 | 0.00 | 0.00 | 31 | 1016.8 |
| 20260905165103 | 84 | 107 | 1.7 | 0.9 | 0.00 | 0.00 | 0.00 | 31 | 1016.7 |
| 20260905165013 | 83 | 107 | 0.0 | 0.9 | 0.00 | 0.00 | 0.00 | 31 | 1017.0 |
| 20260905165003 | 84 | 107 | 1.7 | 0.9 | 0.00 | 0.00 | 0.00 | 31 | 1016.7 |
| 20260905164903 | 84 | 0 | 1.7 | 0.9 | 0.00 | 0.00 | 0.00 | 31 | 1016.8 |
| 20260905164803 | 84 | 0 | 1.7 | 0.9 | 0.00 | 0.00 | 0.00 | 31 | 1016.7 |
| 20260905164703 | 84 | 0 | 1.7 | 0.0 | 0.00 | 0.00 | 0.00 | 31 | 1016.8 |
| 20260905164603 | 85 | 0 | 1.7 | 0.0 | 0.00 | 0.00 | 0.00 | 31 | 1016.8 |
| 20260905164522 | 84 | 108 | 0.0 | 1.7 | 0.00 | 0.00 | 0.00 | 30 | 1017.1 |
| 20260905164503 | 85 | 0 | 1.7 | 1.7 | 0.00 | 0.00 | 0.00 | 30 | 1016.7 |
| 20260905164403 | 85 | 117 | 1.7 | 1.7 | 0.00 | 0.00 | 0.00 | 30 | 1016.8 |
| 20260905164303 | 85 | 117 | 1.7 | 1.7 | 0.00 | 0.00 | 0.00 | 30 | 1016.7 |
| 20260905164203 | 85 | 117 | 1.7 | 1.7 | 0.00 | 0.00 | 0.00 | 30 | 1016.8 |
| 20260905164103 | 85 | 117 | 1.7 | 1.7 | 0.00 | 0.00 | 0.00 | 30 | 1016.7 |
| 20260905164011 | 85 | 117 | 0.0 | 1.7 | 0.00 | 0.00 | 0.00 | 30 | 1017.0 |
| 20260905163903 | 86 | 117 | 1.7 | 1.7 | 0.00 | 0.00 | 0.00 | 30 | 1016.7 |
| 20260905163803 | 86 | 117 | 1.7 | 1.7 | 0.00 | 0.00 | 0.00 | 30 | 1016.7 |
| 20260905163703 | 86 | 117 | 1.7 | 1.7 | 0.00 | 0.00 | 0.00 | 30 | 1016.7 |
| 20260905163603 | 86 | 117 | 1.7 | 1.7 | 0.00 | 0.00 | 0.00 | 30 | 1016.7 |
| 20260905163513 | 85 | 109 | 0.0 | 1.7 | 0.00 | 0.00 | 0.00 | 29 | 1017.0 |
| 20260905163503 | 86 | 117 | 1.7 | 1.7 | 0.00 | 0.00 | 0.00 | 30 | 1016.7 |
| 20260905163403 | 86 | 117 | 1.7 | 1.7 | 0.00 | 0.00 | 0.00 | 30 | 1016.6 |
| 20260905163303 | 86 | 0 | 1.7 | 1.7 | 0.00 | 0.00 | 0.00 | 30 | 1016.6 |
| 20260905163203 | 86 | 129 | 1.7 | 1.7 | 0.00 | 0.00 | 0.00 | 30 | 1016.6 |
| 20260905163103 | 87 | 129 | 1.7 | 1.7 | 0.00 | 0.00 | 0.00 | 30 | 1016.7 |
| 20260905163029 | 86 | 132 | 0.0 | 1.7 | 0.00 | 0.00 | 0.00 | 29 | 1017.0 |
| 20260905163003 | 87 | 129 | 1.7 | 1.7 | 0.00 | 0.00 | 0.00 | 29 | 1016.7 |
| 20260905162903 | 87 | 129 | 1.7 | 1.7 | 0.00 | 0.00 | 0.00 | 29 | 1016.6 |
| 20260905162803 | 87 | 129 | 1.7 | 1.7 | 0.00 | 0.00 | 0.00 | 29 | 1016.7 |
| 20260905162703 | 87 | 129 | 1.7 | 1.7 | 0.00 | 0.00 | 0.00 | 29 | 1016.7 |
| 20260905162603 | 87 | 129 | 1.7 | 1.7 | 0.00 | 0.00 | 0.00 | 29 | 1016.7 |
| 20260905162514 | 87 | 139 | 0.0 | 1.7 | 0.00 | 0.00 | 0.00 | 28 | 1017.0 |
| 20260905162503 | 88 | 129 | 1.7 | 1.7 | 0.00 | 0.00 | 0.00 | 29 | 1016.7 |
| 20260905162403 | 88 | 129 | 1.7 | 1.7 | 0.00 | 0.00 | 0.00 | 28 | 1016.7 |
| 20260905162203 | 88 | 181 | 1.7 | 1.7 | 0.00 | 0.00 | 0.00 | 27 | 1016.7 |
| 20260905162103 | 88 | 162 | 1.7 | 1.7 | 0.00 | 0.00 | 0.00 | 27 | 1016.7 |
| 20260905162015 | 87 | 153 | 0.0 | 1.7 | 0.00 | 0.00 | 0.00 | 26 | 1017.0 |
| 20260905161903 | 88 | 162 | 1.7 | 1.7 | 0.00 | 0.00 | 0.00 | 26 | 1016.7 |
| 20260905161803 | 88 | 162 | 1.7 | 1.7 | 0.00 | 0.00 | 0.00 | 26 | 1016.7 |
| 20260905161703 | 88 | 162 | 1.7 | 1.7 | 0.00 | 0.00 | 0.00 | 26 | 1016.7 |
| 20260905161603 | 88 | 162 | 1.7 | 1.7 | 0.00 | 0.00 | 0.00 | 26 | 1016.7 |
| 20260905161531 | 88 | 177 | 0.0 | 1.7 | 0.00 | 0.00 | 0.00 | 25 | 1017.0 |
| 20260905161503 | 88 | 162 | 1.7 | 1.7 | 0.00 | 0.00 | 0.00 | 26 | 1016.7 |
| 20260905161403 | 88 | 162 | 1.7 | 1.7 | 0.00 | 0.00 | 0.00 | 26 | 1016.6 |
| 20260905161303 | 88 | 158 | 1.7 | 1.7 | 0.00 | 0.00 | 0.00 | 25 | 1016.7 |
| 20260905161103 | 89 | 157 | 1.7 | 0.9 | 0.00 | 0.00 | 0.00 | 25 | 1016.7 |
| 20260905161018 | 88 | 149 | 0.0 | 2.6 | 0.00 | 0.00 | 0.00 | 25 | 1017.0 |
| 20260905161003 | 89 | 150 | 1.7 | 2.6 | 0.00 | 0.00 | 0.00 | 25 | 1016.6 |
| 20260905160803 | 89 | 144 | 1.7 | 2.6 | 0.00 | 0.00 | 0.00 | 25 | 1016.7 |
| 20260905160703 | 89 | 144 | 1.7 | 2.6 | 0.00 | 0.00 | 0.00 | 25 | 1016.7 |
| 20260905160603 | 89 | 144 | 1.7 | 2.6 | 0.00 | 0.00 | 0.00 | 25 | 1016.7 |
| 20260905160518 | 89 | 152 | 1.7 | 2.6 | 0.00 | 0.00 | 0.00 | 25 | 1016.6 |
| 20260905160505 | 88 | 149 | 0.0 | 2.6 | 0.00 | 0.00 | 0.00 | 24 | 1017.0 |
| 20260905160203 | 89 | 136 | 1.7 | 2.6 | 0.00 | 0.00 | 0.00 | 24 | 1016.6 |
| 20260905160012 | 89 | 132 | 0.0 | 2.6 | 0.00 | 0.00 | 0.00 | 24 | 1016.9 |
| 20260905155903 | 89 | 42 | 1.7 | 1.7 | 0.00 | 0.00 | 0.00 | 24 | 1016.7 |
| 20260905155803 | 89 | 73 | 1.7 | 1.7 | 0.00 | 0.00 | 0.00 | 24 | 1016.7 |
| 20260905155604 | 89 | 73 | 1.7 | 1.7 | 0.00 | 0.00 | 0.00 | 24 | 1016.7 |
| 20260905155507 | 89 | 271 | 0.0 | 1.7 | 0.00 | 0.00 | 0.00 | 24 | 1017.0 |
| 20260905155503 | 89 | 92 | 1.7 | 1.7 | 0.00 | 0.00 | 0.00 | 24 | 1016.7 |
| 20260905155403 | 89 | 110 | 1.7 | 1.7 | 0.00 | 0.00 | 0.00 | 24 | 1016.6 |
| 20260905155306 | 89 | 110 | 1.7 | 1.7 | 0.00 | 0.00 | 0.00 | 24 | 1016.6 |
| 20260905155203 | 90 | 110 | 1.7 | 1.7 | 0.00 | 0.00 | 0.00 | 24 | 1016.7 |
| 20260905155103 | 90 | 110 | 1.7 | 1.7 | 0.00 | 0.00 | 0.00 | 24 | 1016.7 |
| 20260905155006 | 89 | 102 | 0.0 | 1.7 | 0.00 | 0.00 | 0.00 | 24 | 1017.0 |
| 20260905155003 | 90 | 115 | 1.7 | 1.7 | 0.00 | 0.00 | 0.00 | 24 | 1016.6 |
| 20260905154903 | 90 | 115 | 1.7 | 1.7 | 0.00 | 0.00 | 0.00 | 24 | 1016.6 |
| 20260905154803 | 90 | 137 | 1.7 | 1.7 | 0.00 | 0.00 | 0.00 | 24 | 1016.7 |
| 20260905154703 | 90 | 137 | 1.7 | 1.7 | 0.00 | 0.00 | 0.00 | 24 | 1016.6 |
| 20260905154603 | 90 | 137 | 1.7 | 1.7 | 0.00 | 0.00 | 0.00 | 24 | 1016.6 |
| 20260905154517 | 89 | 137 | 0.0 | 1.7 | 0.00 | 0.00 | 0.00 | 23 | 1016.9 |
| 20260905154503 | 90 | 0 | 1.7 | 1.7 | 0.00 | 0.00 | 0.00 | 24 | 1016.6 |
| 20260905154403 | 90 | 0 | 1.7 | 1.7 | 0.00 | 0.00 | 0.00 | 24 | 1016.6 |
| 20260905154303 | 90 | 132 | 1.7 | 1.7 | 0.00 | 0.00 | 0.00 | 24 | 1016.6 |
| 20260905154203 | 90 | 134 | 1.7 | 1.7 | 0.00 | 0.00 | 0.00 | 24 | 1016.6 |
| 20260905154103 | 90 | 134 | 1.7 | 0.9 | 0.00 | 0.00 | 0.00 | 24 | 1016.6 |
| 20260905154011 | 89 | 136 | 0.0 | 1.7 | 0.00 | 0.00 | 0.00 | 23 | 1016.9 |
| 20260905154003 | 90 | 119 | 1.7 | 0.9 | 0.00 | 0.00 | 0.00 | 24 | 1016.6 |
| 20260905153917 | 90 | 119 | 1.7 | 0.9 | 0.00 | 0.00 | 0.00 | 24 | 1016.6 |
| 20260905153803 | 90 | 122 | 1.7 | 0.9 | 0.00 | 0.00 | 0.00 | 24 | 1016.6 |
| 20260905153603 | 90 | 126 | 1.7 | 1.7 | 0.00 | 0.00 | 0.00 | 24 | 1016.6 |
| 20260905153511 | 90 | 136 | 0.0 | 1.7 | 0.00 | 0.00 | 0.00 | 23 | 1016.9 |
| 20260905153503 | 90 | 126 | 1.7 | 1.7 | 0.00 | 0.00 | 0.00 | 24 | 1016.6 |
| 20260905153403 | 90 | 126 | 1.7 | 1.7 | 0.00 | 0.00 | 0.00 | 24 | 1016.6 |
| 20260905153303 | 90 | 124 | 1.7 | 1.7 | 0.00 | 0.00 | 0.00 | 24 | 1016.6 |
| 20260905153203 | 90 | 115 | 1.7 | 1.7 | 0.00 | 0.00 | 0.00 | 24 | 1016.6 |
| 20260905153103 | 90 | 115 | 1.7 | 1.7 | 0.00 | 0.00 | 0.00 | 23 | 1016.6 |
| 20260905153033 | 90 | 65 | 0.0 | 1.7 | 0.00 | 0.00 | 0.00 | 23 | 1016.9 |
| 20260905153003 | 90 | 142 | 1.7 | 1.7 | 0.00 | 0.00 | 0.00 | 23 | 1016.6 |
| 20260905152903 | 90 | 132 | 1.7 | 1.7 | 0.00 | 0.00 | 0.00 | 23 | 1016.6 |
| 20260905152716 | 90 | 72 | 1.7 | 1.7 | 0.00 | 0.00 | 0.00 | 23 | 1016.6 |
| 20260905152603 | 90 | 60 | 1.7 | 1.7 | 0.00 | 0.00 | 0.00 | 23 | 1016.7 |
| 20260905152516 | 90 | 115 | 0.0 | 1.7 | 0.00 | 0.00 | 0.00 | 22 | 1017.0 |
| 20260905152403 | 90 | 14 | 1.7 | 1.7 | 0.00 | 0.00 | 0.00 | 23 | 1016.7 |
| 20260905152306 | 90 | 344 | 1.7 | 1.7 | 0.00 | 0.00 | 0.00 | 23 | 1016.7 |
| 20260905152103 | 90 | 322 | 1.7 | 1.7 | 0.00 | 0.00 | 0.00 | 23 | 1016.7 |
| 20260905152012 | 90 | 132 | 0.9 | 1.7 | 0.00 | 0.00 | 0.00 | 22 | 1017.0 |
| 20260905152003 | 90 | 321 | 1.7 | 1.7 | 0.00 | 0.00 | 0.00 | 23 | 1016.7 |
| 20260905151903 | 90 | 316 | 1.7 | 1.7 | 0.00 | 0.00 | 0.00 | 23 | 1016.7 |
| 20260905151803 | 90 | 310 | 1.7 | 1.7 | 0.00 | 0.00 | 0.00 | 23 | 1016.8 |
| 20260905151703 | 90 | 310 | 1.7 | 1.7 | 0.00 | 0.00 | 0.00 | 22 | 1016.8 |
| 20260905151603 | 91 | 314 | 1.7 | 1.7 | 0.00 | 0.00 | 0.00 | 22 | 1016.8 |
| 20260905151531 | 90 | 341 | 0.9 | 1.7 | 0.00 | 0.00 | 0.00 | 22 | 1017.1 |
| 20260905151503 | 91 | 331 | 1.7 | 1.7 | 0.00 | 0.00 | 0.00 | 22 | 1016.8 |
| 20260905151403 | 91 | 333 | 1.7 | 1.7 | 0.00 | 0.00 | 0.00 | 22 | 1016.8 |
| 20260905151317 | 91 | 44 | 1.7 | 1.7 | 0.00 | 0.00 | 0.00 | 22 | 1016.9 |
| 20260905151203 | 91 | 102 | 1.7 | 1.7 | 0.00 | 0.00 | 0.00 | 22 | 1016.8 |
| 20260905151016 | 90 | 242 | 0.0 | 1.7 | 0.00 | 0.00 | 0.00 | 22 | 1017.1 |
| 20260905151003 | 91 | 63 | 1.7 | 1.7 | 0.00 | 0.00 | 0.00 | 23 | 1016.8 |
| 20260905150903 | 91 | 63 | 1.7 | 1.7 | 0.00 | 0.00 | 0.00 | 22 | 1016.8 |
| 20260905150803 | 91 | 48 | 1.7 | 1.7 | 0.00 | 0.00 | 0.00 | 22 | 1016.9 |
| 20260905150703 | 91 | 19 | 1.7 | 1.7 | 0.00 | 0.00 | 0.00 | 22 | 1016.9 |
| 20260905150603 | 91 | 337 | 1.7 | 1.7 | 0.00 | 0.00 | 0.00 | 22 | 1016.9 |
| 20260905150519 | 90 | 75 | 0.0 | 1.7 | 0.00 | 0.00 | 0.00 | 22 | 1017.1 |
| 20260905150503 | 91 | 299 | 1.7 | 1.7 | 0.00 | 0.00 | 0.00 | 22 | 1016.9 |
| 20260905150303 | 91 | 302 | 1.7 | 1.7 | 0.00 | 0.00 | 0.00 | 22 | 1016.9 |
| 20260905150203 | 91 | 304 | 1.7 | 1.7 | 0.00 | 0.00 | 0.00 | 22 | 1016.9 |
| 20260905150031 | 90 | 295 | 0.0 | 2.6 | 0.00 | 0.00 | 0.00 | 22 | 1017.2 |
| 20260905150003 | 91 | 313 | 1.7 | 4.3 | 0.00 | 0.00 | 0.00 | 22 | 1016.9 |
| 20260905145903 | 91 | 318 | 1.7 | 4.3 | 0.00 | 0.00 | 0.00 | 22 | 1016.9 |
| 20260905145803 | 91 | 312 | 1.7 | 4.3 | 0.00 | 0.00 | 0.00 | 22 | 1016.9 |
| 20260905145703 | 91 | 312 | 1.7 | 4.3 | 0.00 | 0.00 | 0.00 | 22 | 1016.9 |
| 20260905145603 | 91 | 302 | 1.7 | 4.3 | 0.00 | 0.00 | 0.00 | 22 | 1016.9 |
| 20260905145508 | 90 | 288 | 0.0 | 3.5 | 0.00 | 0.00 | 0.00 | 22 | 1017.2 |
| 20260905145503 | 91 | 301 | 1.7 | 4.3 | 0.00 | 0.00 | 0.00 | 22 | 1016.9 |
| 20260905145403 | 91 | 308 | 1.7 | 4.3 | 0.00 | 0.00 | 0.00 | 22 | 1016.9 |
| 20260905145306 | 91 | 310 | 1.7 | 4.3 | 0.00 | 0.00 | 0.00 | 22 | 1016.9 |
| 20260905145006 | 90 | 332 | 1.7 | 3.5 | 0.00 | 0.00 | 0.00 | 21 | 1017.2 |
| 20260905145003 | 91 | 323 | 1.7 | 4.3 | 0.00 | 0.00 | 0.00 | 22 | 1016.9 |
| 20260905144903 | 91 | 325 | 1.7 | 3.5 | 0.00 | 0.00 | 0.00 | 22 | 1017.0 |
| 20260905144803 | 91 | 330 | 1.7 | 3.5 | 0.00 | 0.00 | 0.00 | 22 | 1016.9 |
| 20260905144703 | 91 | 333 | 1.7 | 3.5 | 0.00 | 0.00 | 0.00 | 22 | 1017.0 |
| 20260905144603 | 91 | 337 | 1.7 | 3.5 | 0.00 | 0.00 | 0.00 | 22 | 1017.0 |
| 20260905144519 | 90 | 286 | 0.0 | 3.5 | 0.00 | 0.00 | 0.00 | 21 | 1017.3 |
| 20260905144503 | 91 | 339 | 1.7 | 3.5 | 0.00 | 0.00 | 0.00 | 22 | 1017.0 |
| 20260905144403 | 91 | 328 | 1.7 | 3.5 | 0.00 | 0.00 | 0.00 | 22 | 1017.0 |
| 20260905144303 | 91 | 326 | 1.7 | 3.5 | 0.00 | 0.00 | 0.00 | 21 | 1017.0 |
| 20260905144203 | 91 | 302 | 1.7 | 3.5 | 0.00 | 0.00 | 0.00 | 21 | 1017.1 |
| 20260905144103 | 91 | 292 | 1.7 | 3.5 | 0.00 | 0.00 | 0.00 | 21 | 1017.1 |
| 20260905144010 | 91 | 300 | 0.9 | 3.5 | 0.00 | 0.00 | 0.00 | 21 | 1017.4 |
| 20260905144003 | 91 | 297 | 1.7 | 1.7 | 0.00 | 0.00 | 0.00 | 21 | 1017.1 |
| 20260905143803 | 91 | 288 | 1.7 | 0.9 | 0.00 | 0.00 | 0.00 | 21 | 1017.1 |
| 20260905143703 | 91 | 293 | 1.7 | 3.5 | 0.00 | 0.00 | 0.00 | 21 | 1017.1 |
| 20260905143603 | 91 | 298 | 1.7 | 3.5 | 0.00 | 0.00 | 0.00 | 21 | 1017.1 |
| 20260905143511 | 91 | 304 | 0.9 | 3.5 | 0.00 | 0.00 | 0.00 | 20 | 1017.4 |
| 20260905143403 | 91 | 300 | 1.7 | 3.5 | 0.00 | 0.00 | 0.00 | 21 | 1017.1 |
| 20260905143303 | 91 | 305 | 1.7 | 3.5 | 0.00 | 0.00 | 0.00 | 21 | 1017.1 |
| 20260905143203 | 91 | 310 | 1.7 | 3.5 | 0.00 | 0.00 | 0.00 | 21 | 1017.1 |
| 20260905143103 | 91 | 319 | 1.7 | 3.5 | 0.00 | 0.00 | 0.00 | 21 | 1017.1 |
| 20260905143033 | 90 | 321 | 0.9 | 3.5 | 0.00 | 0.00 | 0.00 | 21 | 1017.4 |
| 20260905143003 | 91 | 316 | 1.7 | 3.5 | 0.00 | 0.00 | 0.00 | 21 | 1017.1 |
| 20260905142903 | 91 | 318 | 1.7 | 3.5 | 0.00 | 0.00 | 0.00 | 21 | 1017.1 |
| 20260905142803 | 91 | 321 | 1.7 | 3.5 | 0.00 | 0.00 | 0.00 | 21 | 1017.1 |
| 20260905142703 | 91 | 317 | 1.7 | 3.5 | 0.00 | 0.00 | 0.00 | 21 | 1017.1 |
| 20260905142511 | 91 | 274 | 0.0 | 2.6 | 0.00 | 0.00 | 0.00 | 20 | 1017.4 |
| 20260905142503 | 91 | 323 | 1.7 | 3.5 | 0.00 | 0.00 | 0.00 | 21 | 1017.1 |
| 20260905142403 | 91 | 316 | 1.7 | 3.5 | 0.00 | 0.00 | 0.00 | 21 | 1017.1 |
| 20260905142306 | 91 | 310 | 1.7 | 3.5 | 0.00 | 0.00 | 0.00 | 21 | 1017.1 |
| 20260905142203 | 91 | 291 | 1.7 | 3.5 | 0.00 | 0.00 | 0.00 | 21 | 1017.1 |
| 20260905142103 | 91 | 252 | 1.7 | 3.5 | 0.00 | 0.00 | 0.00 | 20 | 1017.2 |
| 20260905142012 | 90 | 288 | 0.0 | 2.6 | 0.00 | 0.00 | 0.00 | 20 | 1017.5 |
| 20260905142003 | 91 | 196 | 1.7 | 3.5 | 0.00 | 0.00 | 0.00 | 21 | 1017.2 |
| 20260905141903 | 91 | 176 | 1.7 | 3.5 | 0.00 | 0.00 | 0.00 | 21 | 1017.2 |
| 20260905141803 | 91 | 156 | 1.7 | 3.5 | 0.00 | 0.00 | 0.00 | 21 | 1017.1 |
| 20260905141703 | 91 | 138 | 1.7 | 3.5 | 0.00 | 0.00 | 0.00 | 21 | 1017.2 |
| 20260905141603 | 91 | 126 | 1.7 | 3.5 | 0.00 | 0.00 | 0.00 | 21 | 1017.1 |
| 20260905141530 | 90 | 300 | 0.9 | 2.6 | 0.00 | 0.00 | 0.00 | 20 | 1017.4 |
| 20260905141503 | 91 | 122 | 1.7 | 2.6 | 0.00 | 0.00 | 0.00 | 21 | 1017.1 |
| 20260905141203 | 91 | 97 | 1.7 | 1.7 | 0.00 | 0.00 | 0.00 | 20 | 1017.1 |
| 20260905141103 | 91 | 90 | 1.7 | 1.7 | 0.00 | 0.00 | 0.00 | 20 | 1017.1 |
| 20260905141015 | 90 | 119 | 0.9 | 4.3 | 0.00 | 0.00 | 0.00 | 20 | 1017.4 |
| 20260905141003 | 91 | 61 | 1.7 | 1.7 | 0.00 | 0.00 | 0.00 | 20 | 1017.1 |
| 20260905140903 | 91 | 26 | 1.7 | 5.2 | 0.00 | 0.00 | 0.00 | 20 | 1017.2 |
| 20260905140803 | 91 | 347 | 1.7 | 5.2 | 0.00 | 0.00 | 0.00 | 21 | 1017.2 |
| 20260905140703 | 91 | 328 | 1.7 | 5.2 | 0.00 | 0.00 | 0.00 | 21 | 1017.2 |
| 20260905140603 | 91 | 322 | 1.7 | 5.2 | 0.00 | 0.00 | 0.00 | 21 | 1017.2 |
| 20260905140515 | 90 | 329 | 0.9 | 4.3 | 0.00 | 0.00 | 0.00 | 20 | 1017.5 |
| 20260905140503 | 91 | 324 | 1.7 | 5.2 | 0.00 | 0.00 | 0.00 | 20 | 1017.2 |
| 20260905140303 | 91 | 309 | 1.7 | 5.2 | 0.00 | 0.00 | 0.00 | 20 | 1017.2 |
| 20260905140203 | 91 | 310 | 1.7 | 5.2 | 0.00 | 0.00 | 0.00 | 20 | 1017.2 |
| 20260905140103 | 91 | 308 | 1.7 | 5.2 | 0.00 | 0.00 | 0.00 | 20 | 1017.2 |
| 20260905140033 | 90 | 323 | 0.9 | 4.3 | 0.00 | 0.00 | 0.00 | 20 | 1017.5 |
| 20260905140003 | 91 | 305 | 1.7 | 5.2 | 0.00 | 0.00 | 0.00 | 20 | 1017.2 |
| 20260905135903 | 91 | 298 | 1.7 | 5.2 | 0.00 | 0.00 | 0.00 | 20 | 1017.2 |
| 20260905135803 | 91 | 299 | 1.7 | 4.3 | 0.00 | 0.00 | 0.00 | 20 | 1017.2 |
| 20260905135703 | 91 | 298 | 1.7 | 3.5 | 0.00 | 0.00 | 0.00 | 20 | 1017.2 |
| 20260905135603 | 91 | 296 | 1.7 | 3.5 | 0.00 | 0.00 | 0.00 | 20 | 1017.2 |
| 20260905135517 | 90 | 121 | 1.7 | 3.5 | 0.00 | 0.00 | 0.00 | 19 | 1017.5 |
| 20260905135503 | 91 | 296 | 1.7 | 3.5 | 0.00 | 0.00 | 0.00 | 20 | 1017.2 |
| 20260905135403 | 91 | 297 | 1.7 | 3.5 | 0.00 | 0.00 | 0.00 | 20 | 1017.2 |
| 20260905135203 | 91 | 285 | 1.7 | 3.5 | 0.00 | 0.00 | 0.00 | 20 | 1017.2 |
| 20260905135103 | 91 | 284 | 1.7 | 3.5 | 0.00 | 0.00 | 0.00 | 20 | 1017.2 |
| 20260905135018 | 90 | 296 | 1.7 | 3.5 | 0.00 | 0.00 | 0.00 | 19 | 1017.5 |
| 20260905135003 | 91 | 129 | 1.7 | 3.5 | 0.00 | 0.00 | 0.00 | 20 | 1017.2 |
| 20260905134903 | 90 | 106 | 1.7 | 3.5 | 0.00 | 0.00 | 0.00 | 20 | 1017.2 |
| 20260905134803 | 90 | 109 | 1.7 | 3.5 | 0.00 | 0.00 | 0.00 | 20 | 1017.2 |
| 20260905134718 | 90 | 115 | 1.7 | 3.5 | 0.00 | 0.00 | 0.00 | 20 | 1017.2 |
| 20260905134603 | 90 | 126 | 1.7 | 3.5 | 0.00 | 0.00 | 0.00 | 20 | 1017.2 |
| 20260905134525 | 90 | 12 | 0.0 | 2.6 | 0.00 | 0.00 | 0.00 | 20 | 1017.5 |
| 20260905134403 | 90 | 126 | 1.7 | 3.5 | 0.00 | 0.00 | 0.00 | 20 | 1017.2 |
| 20260905134303 | 90 | 128 | 1.7 | 3.5 | 0.00 | 0.00 | 0.00 | 20 | 1017.2 |
| 20260905134203 | 90 | 128 | 1.7 | 3.5 | 0.00 | 0.00 | 0.00 | 20 | 1017.2 |
| 20260905134103 | 90 | 136 | 1.7 | 3.5 | 0.00 | 0.00 | 0.00 | 20 | 1017.2 |
| 20260905134018 | 90 | 220 | 1.7 | 3.5 | 0.00 | 0.00 | 0.00 | 21 | 1017.3 |
| 20260905134006 | 90 | 117 | 0.9 | 2.6 | 0.00 | 0.00 | 0.00 | 20 | 1017.5 |
| 20260905133903 | 90 | 30 | 1.7 | 3.5 | 0.00 | 0.00 | 0.00 | 21 | 1017.4 |
| 20260905133703 | 90 | 341 | 1.7 | 3.5 | 0.00 | 0.00 | 0.00 | 21 | 1017.4 |
| 20260905133603 | 90 | 65 | 1.7 | 3.5 | 0.00 | 0.00 | 0.00 | 21 | 1017.4 |
| 20260905133510 | 90 | 136 | 0.0 | 2.6 | 0.00 | 0.00 | 0.00 | 20 | 1017.7 |
| 20260905133503 | 90 | 63 | 1.7 | 3.5 | 0.00 | 0.00 | 0.00 | 21 | 1017.4 |
| 20260905133403 | 90 | 75 | 1.7 | 3.5 | 0.00 | 0.00 | 0.00 | 21 | 1017.3 |
| 20260905133303 | 90 | 75 | 1.7 | 3.5 | 0.00 | 0.00 | 0.00 | 21 | 1017.4 |
| 20260905133203 | 90 | 92 | 1.7 | 3.5 | 0.00 | 0.00 | 0.00 | 21 | 1017.3 |
| 20260905133103 | 90 | 98 | 1.7 | 3.5 | 0.00 | 0.00 | 0.00 | 21 | 1017.4 |
| 20260905133027 | 90 | 301 | 1.7 | 2.6 | 0.00 | 0.00 | 0.00 | 20 | 1017.7 |
| 20260905133003 | 90 | 100 | 1.7 | 3.5 | 0.00 | 0.00 | 0.00 | 21 | 1017.4 |
| 20260905132903 | 90 | 117 | 1.7 | 2.6 | 0.00 | 0.00 | 0.00 | 21 | 1017.4 |
| 20260905132803 | 90 | 79 | 1.7 | 1.7 | 0.00 | 0.00 | 0.00 | 21 | 1017.4 |
| 20260905132703 | 90 | 92 | 1.7 | 1.7 | 0.00 | 0.00 | 0.00 | 21 | 1017.3 |
| 20260905132603 | 90 | 358 | 1.7 | 2.6 | 0.00 | 0.00 | 0.00 | 21 | 1017.3 |
| 20260905132512 | 90 | 121 | 0.0 | 1.7 | 0.00 | 0.00 | 0.00 | 21 | 1017.6 |
| 20260905132503 | 90 | 317 | 1.7 | 2.6 | 0.00 | 0.00 | 0.00 | 21 | 1017.4 |
| 20260905132403 | 90 | 326 | 1.7 | 2.6 | 0.00 | 0.00 | 0.00 | 21 | 1017.4 |
| 20260905132305 | 90 | 329 | 1.7 | 2.6 | 0.00 | 0.00 | 0.00 | 21 | 1017.3 |
| 20260905132203 | 90 | 323 | 1.7 | 7.0 | 0.00 | 0.00 | 0.00 | 21 | 1017.4 |
| 20260905132103 | 90 | 318 | 1.7 | 7.0 | 0.00 | 0.00 | 0.00 | 21 | 1017.4 |
| 20260905132014 | 90 | 328 | 0.0 | 7.0 | 0.00 | 0.00 | 0.00 | 21 | 1017.7 |
| 20260905132003 | 90 | 321 | 1.7 | 7.0 | 0.00 | 0.00 | 0.00 | 21 | 1017.4 |
| 20260905131903 | 90 | 326 | 1.7 | 7.0 | 0.00 | 0.00 | 0.00 | 21 | 1017.4 |
| 20260905131703 | 90 | 325 | 1.7 | 7.0 | 0.00 | 0.00 | 0.00 | 21 | 1017.4 |
| 20260905131603 | 90 | 315 | 1.7 | 7.0 | 0.00 | 0.00 | 0.00 | 21 | 1017.5 |
| 20260905131526 | 90 | 304 | 0.9 | 7.0 | 0.00 | 0.00 | 0.00 | 21 | 1017.7 |
| 20260905131503 | 90 | 310 | 1.7 | 7.0 | 0.00 | 0.00 | 0.00 | 21 | 1017.4 |
| 20260905131403 | 90 | 305 | 1.7 | 7.0 | 0.00 | 0.00 | 0.00 | 22 | 1017.4 |
| 20260905131303 | 90 | 306 | 1.7 | 7.0 | 0.00 | 0.00 | 0.00 | 22 | 1017.4 |
| 20260905131103 | 90 | 309 | 1.7 | 4.3 | 0.00 | 0.00 | 0.00 | 21 | 1017.4 |
| 20260905131017 | 90 | 329 | 0.9 | 4.3 | 0.00 | 0.00 | 0.00 | 21 | 1017.7 |
| 20260905131003 | 90 | 304 | 1.7 | 4.3 | 0.00 | 0.00 | 0.00 | 21 | 1017.5 |
| 20260905130903 | 90 | 301 | 1.7 | 4.3 | 0.00 | 0.00 | 0.00 | 21 | 1017.5 |
| 20260905130803 | 90 | 302 | 1.7 | 4.3 | 0.00 | 0.00 | 0.00 | 21 | 1017.5 |
| 20260905130703 | 90 | 301 | 1.7 | 4.3 | 0.00 | 0.00 | 0.00 | 21 | 1017.4 |
| 20260905130603 | 90 | 300 | 1.7 | 4.3 | 0.00 | 0.00 | 0.00 | 21 | 1017.5 |
| 20260905130515 | 90 | 282 | 1.7 | 4.3 | 0.00 | 0.00 | 0.00 | 21 | 1017.8 |
| 20260905130503 | 90 | 302 | 1.7 | 4.3 | 0.00 | 0.00 | 0.00 | 21 | 1017.5 |
| 20260905130403 | 90 | 295 | 1.7 | 4.3 | 0.00 | 0.00 | 0.00 | 22 | 1017.5 |
| 20260905130303 | 90 | 292 | 1.7 | 4.3 | 0.00 | 0.00 | 0.00 | 22 | 1017.5 |
| 20260905130031 | 90 | 305 | 1.7 | 4.3 | 0.00 | 0.00 | 0.00 | 21 | 1017.8 |
| 20260905130003 | 91 | 293 | 1.7 | 4.3 | 0.00 | 0.00 | 0.00 | 22 | 1017.5 |
| 20260905125903 | 91 | 293 | 1.7 | 4.3 | 0.00 | 0.00 | 0.00 | 22 | 1017.5 |
| 20260905125803 | 91 | 289 | 1.7 | 4.3 | 0.00 | 0.00 | 0.00 | 22 | 1017.5 |
| 20260905125703 | 91 | 285 | 1.7 | 4.3 | 0.00 | 0.00 | 0.00 | 22 | 1017.6 |
| 20260905125603 | 91 | 282 | 1.7 | 4.3 | 0.00 | 0.00 | 0.00 | 22 | 1017.6 |
| 20260905125503 | 90 | 289 | 2.6 | 4.3 | 0.00 | 0.00 | 0.00 | 21 | 1017.8 |
| 20260905125403 | 90 | 303 | 1.7 | 3.5 | 0.00 | 0.00 | 0.00 | 22 | 1017.6 |
| 20260905125306 | 91 | 304 | 1.7 | 3.5 | 0.00 | 0.00 | 0.00 | 21 | 1017.6 |
| 20260905125203 | 91 | 302 | 1.7 | 5.2 | 0.00 | 0.00 | 0.00 | 21 | 1017.6 |
| 20260905125007 | 90 | 20 | 0.9 | 4.3 | 0.00 | 0.00 | 0.00 | 21 | 1017.8 |
| 20260905125003 | 91 | 303 | 1.7 | 5.2 | 0.00 | 0.00 | 0.00 | 22 | 1017.6 |
| 20260905124903 | 91 | 303 | 1.7 | 5.2 | 0.00 | 0.00 | 0.00 | 22 | 1017.6 |
| 20260905124803 | 91 | 302 | 1.7 | 5.2 | 0.00 | 0.00 | 0.00 | 21 | 1017.6 |
| 20260905124717 | 91 | 299 | 1.7 | 5.2 | 0.00 | 0.00 | 0.00 | 22 | 1017.7 |
| 20260905124603 | 91 | 301 | 1.7 | 5.2 | 0.00 | 0.00 | 0.00 | 22 | 1017.7 |
| 20260905124521 | 90 | 329 | 1.7 | 4.3 | 0.00 | 0.00 | 0.00 | 21 | 1018.0 |
| 20260905124403 | 91 | 190 | 1.7 | 5.2 | 0.00 | 0.00 | 0.00 | 22 | 1017.7 |
| 20260905124303 | 90 | 142 | 1.7 | 5.2 | 0.00 | 0.00 | 0.00 | 22 | 1017.7 |
| 20260905124203 | 90 | 132 | 1.7 | 5.2 | 0.00 | 0.00 | 0.00 | 22 | 1017.6 |
| 20260905124103 | 90 | 145 | 1.7 | 3.5 | 0.00 | 0.00 | 0.00 | 22 | 1017.6 |
| 20260905124008 | 90 | 307 | 0.9 | 3.5 | 0.00 | 0.00 | 0.00 | 21 | 1017.9 |
| 20260905124003 | 90 | 142 | 1.7 | 6.1 | 0.00 | 0.00 | 0.00 | 22 | 1017.7 |
| 20260905123803 | 90 | 170 | 1.7 | 6.1 | 0.00 | 0.00 | 0.00 | 22 | 1017.7 |
| 20260905123703 | 90 | 204 | 1.7 | 6.1 | 0.00 | 0.00 | 0.00 | 22 | 1017.7 |
| 20260905123511 | 90 | 140 | 0.9 | 6.1 | 0.00 | 0.00 | 0.00 | 21 | 1018.0 |
| 20260905123503 | 90 | 294 | 1.7 | 6.1 | 0.00 | 0.00 | 0.00 | 22 | 1017.7 |
| 20260905123403 | 90 | 296 | 1.7 | 6.1 | 0.00 | 0.00 | 0.00 | 22 | 1017.7 |
| 20260905123303 | 90 | 306 | 1.7 | 6.1 | 0.00 | 0.00 | 0.00 | 22 | 1017.7 |
| 20260905123203 | 90 | 313 | 1.7 | 6.1 | 0.00 | 0.00 | 0.00 | 22 | 1017.7 |
| 20260905123103 | 90 | 318 | 1.7 | 6.1 | 0.00 | 0.00 | 0.00 | 22 | 1017.7 |
| 20260905123050 | 90 | 313 | 2.6 | 6.1 | 0.00 | 0.00 | 0.00 | 22 | 1018.0 |
| 20260905123003 | 90 | 328 | 1.7 | 6.1 | 0.00 | 0.00 | 0.00 | 23 | 1017.7 |
| 20260905122903 | 90 | 333 | 1.7 | 3.5 | 0.00 | 0.00 | 0.00 | 23 | 1017.7 |
| 20260905122803 | 90 | 334 | 1.7 | 3.5 | 0.00 | 0.00 | 0.00 | 23 | 1017.7 |
| 20260905122603 | 90 | 328 | 1.7 | 3.5 | 0.00 | 0.00 | 0.00 | 23 | 1017.8 |
| 20260905122511 | 89 | 300 | 0.9 | 3.5 | 0.00 | 0.00 | 0.00 | 23 | 1018.1 |
| 20260905122503 | 90 | 338 | 1.7 | 3.5 | 0.00 | 0.00 | 0.00 | 23 | 1017.8 |
| 20260905122403 | 90 | 332 | 1.7 | 3.5 | 0.00 | 0.00 | 0.00 | 23 | 1017.8 |
| 20260905122306 | 90 | 310 | 1.7 | 3.5 | 0.00 | 0.00 | 0.00 | 23 | 1017.9 |
| 20260905122203 | 90 | 286 | 1.7 | 3.5 | 0.00 | 0.00 | 0.00 | 24 | 1017.8 |
| 20260905122012 | 90 | 44 | 1.7 | 3.5 | 0.00 | 0.00 | 0.00 | 24 | 1018.2 |
| 20260905122003 | 90 | 205 | 1.7 | 3.5 | 0.00 | 0.00 | 0.00 | 24 | 1017.9 |
| 20260905121903 | 90 | 228 | 1.7 | 3.5 | 0.00 | 0.00 | 0.00 | 24 | 1017.9 |
| 20260905121703 | 90 | 288 | 1.7 | 4.3 | 0.00 | 0.00 | 0.00 | 24 | 1017.9 |
| 20260905121603 | 90 | 300 | 1.7 | 4.3 | 0.00 | 0.00 | 0.00 | 24 | 1017.9 |
| 20260905121524 | 89 | 292 | 0.9 | 4.3 | 0.00 | 0.00 | 0.00 | 24 | 1018.2 |
| 20260905121503 | 90 | 315 | 1.7 | 4.3 | 0.00 | 0.00 | 0.00 | 24 | 1018.0 |
| 20260905121403 | 90 | 332 | 1.7 | 4.3 | 0.00 | 0.00 | 0.00 | 24 | 1017.9 |
| 20260905121303 | 90 | 325 | 1.7 | 4.3 | 0.00 | 0.00 | 0.00 | 24 | 1018.0 |
| 20260905121203 | 90 | 315 | 1.7 | 4.3 | 0.00 | 0.00 | 0.00 | 25 | 1018.0 |
| 20260905121103 | 90 | 314 | 1.7 | 4.3 | 0.00 | 0.00 | 0.00 | 25 | 1018.0 |
| 20260905121014 | 89 | 302 | 0.9 | 4.3 | 0.00 | 0.00 | 0.00 | 24 | 1018.3 |
| 20260905121003 | 90 | 316 | 1.7 | 4.3 | 0.00 | 0.00 | 0.00 | 25 | 1018.0 |
| 20260905120903 | 90 | 324 | 1.7 | 4.3 | 0.00 | 0.00 | 0.00 | 25 | 1018.0 |
| 20260905120803 | 90 | 326 | 1.7 | 4.3 | 0.00 | 0.00 | 0.00 | 25 | 1018.0 |
| 20260905120703 | 90 | 343 | 1.7 | 4.3 | 0.00 | 0.00 | 0.00 | 24 | 1018.0 |
| 20260905120603 | 90 | 11 | 1.7 | 3.5 | 0.00 | 0.00 | 0.00 | 24 | 1018.0 |
| 20260905120511 | 89 | 348 | 1.7 | 3.5 | 0.00 | 0.00 | 0.00 | 24 | 1018.3 |
| 20260905120503 | 90 | 83 | 1.7 | 3.5 | 0.00 | 0.00 | 0.00 | 25 | 1018.1 |
| 20260905120303 | 90 | 122 | 1.7 | 4.3 | 0.00 | 0.00 | 0.00 | 25 | 1018.1 |
| 20260905120203 | 90 | 94 | 1.7 | 4.3 | 0.00 | 0.00 | 0.00 | 24 | 1018.1 |
| 20260905120103 | 90 | 69 | 1.7 | 4.3 | 0.00 | 0.00 | 0.00 | 24 | 1018.1 |
| 20260905120029 | 89 | 15 | 0.9 | 4.3 | 0.00 | 0.00 | 0.00 | 24 | 1018.3 |
| 20260905120004 | 90 | 66 | 1.7 | 4.3 | 0.00 | 0.00 | 0.00 | 24 | 1018.1 |
| 20260905115703 | 90 | 356 | 1.7 | 4.3 | 0.00 | 0.00 | 0.00 | 24 | 1018.1 |
| 20260905115603 | 89 | 3 | 1.7 | 4.3 | 0.00 | 0.00 | 0.00 | 24 | 1018.1 |
| 20260905115518 | 89 | 86 | 0.0 | 4.3 | 0.00 | 0.00 | 0.00 | 23 | 1018.4 |
| 20260905115503 | 90 | 7 | 1.7 | 4.3 | 0.00 | 0.00 | 0.00 | 24 | 1018.2 |
| 20260905115403 | 89 | 10 | 1.7 | 4.3 | 0.00 | 0.00 | 0.00 | 24 | 1018.1 |
| 20260905115218 | 90 | 18 | 1.7 | 3.5 | 0.00 | 0.00 | 0.00 | 25 | 1018.2 |
| 20260905115103 | 90 | 11 | 1.7 | 3.5 | 0.00 | 0.00 | 0.00 | 25 | 1018.2 |
| 20260905115004 | 89 | 302 | 0.9 | 3.5 | 0.00 | 0.00 | 0.00 | 25 | 1018.4 |
| 20260905114903 | 90 | 356 | 1.7 | 3.5 | 0.00 | 0.00 | 0.00 | 25 | 1018.1 |
| 20260905114803 | 90 | 337 | 1.7 | 3.5 | 0.00 | 0.00 | 0.00 | 25 | 1018.2 |
| 20260905114703 | 90 | 318 | 1.7 | 3.5 | 0.00 | 0.00 | 0.00 | 25 | 1018.3 |
| 20260905114603 | 90 | 300 | 1.7 | 3.5 | 0.00 | 0.00 | 0.00 | 25 | 1018.3 |
| 20260905114515 | 90 | 111 | 0.9 | 3.5 | 0.00 | 0.00 | 0.00 | 25 | 1018.5 |
| 20260905114503 | 90 | 297 | 1.7 | 3.5 | 0.00 | 0.00 | 0.00 | 25 | 1018.3 |
| 20260905114403 | 90 | 295 | 1.7 | 3.5 | 0.00 | 0.00 | 0.00 | 25 | 1018.3 |
| 20260905114303 | 90 | 291 | 1.7 | 3.5 | 0.00 | 0.00 | 0.00 | 26 | 1018.3 |
| 20260905114203 | 90 | 291 | 1.7 | 3.5 | 0.00 | 0.00 | 0.00 | 26 | 1018.3 |
| 20260905114009 | 90 | 234 | 0.9 | 2.6 | 0.00 | 0.00 | 0.00 | 26 | 1018.6 |
| 20260905113903 | 90 | 299 | 1.7 | 3.5 | 0.00 | 0.00 | 0.00 | 26 | 1018.3 |
| 20260905113803 | 90 | 297 | 1.7 | 3.5 | 0.00 | 0.00 | 0.00 | 26 | 1018.3 |
| 20260905113703 | 90 | 298 | 1.7 | 3.5 | 0.00 | 0.00 | 0.00 | 27 | 1018.3 |
| 20260905113603 | 90 | 296 | 1.7 | 3.5 | 0.00 | 0.00 | 0.00 | 27 | 1018.3 |
| 20260905113505 | 89 | 270 | 1.7 | 3.5 | 0.00 | 0.00 | 0.00 | 26 | 1018.6 |
| 20260905113503 | 90 | 295 | 1.7 | 3.5 | 0.00 | 0.00 | 0.00 | 27 | 1018.3 |
| 20260905113403 | 89 | 295 | 1.7 | 5.2 | 0.00 | 0.00 | 0.00 | 27 | 1018.4 |
| 20260905113303 | 89 | 310 | 1.7 | 5.2 | 0.00 | 0.00 | 0.00 | 27 | 1018.4 |
| 20260905113203 | 89 | 315 | 1.7 | 5.2 | 0.00 | 0.00 | 0.00 | 27 | 1018.4 |
| 20260905113103 | 89 | 309 | 1.7 | 5.2 | 0.00 | 0.00 | 0.00 | 27 | 1018.3 |
| 20260905113019 | 89 | 307 | 0.9 | 5.2 | 0.00 | 0.00 | 0.00 | 27 | 1018.6 |
| 20260905113003 | 89 | 303 | 1.7 | 5.2 | 0.00 | 0.00 | 0.00 | 27 | 1018.4 |
| 20260905112803 | 89 | 311 | 1.7 | 5.2 | 0.00 | 0.00 | 0.00 | 28 | 1018.4 |
| 20260905112703 | 89 | 306 | 1.7 | 5.2 | 0.00 | 0.00 | 0.00 | 28 | 1018.4 |
| 20260905112603 | 88 | 304 | 1.7 | 5.2 | 0.00 | 0.00 | 0.00 | 28 | 1018.4 |
| 20260905112508 | 88 | 254 | 0.9 | 5.2 | 0.00 | 0.00 | 0.00 | 28 | 1018.7 |
| 20260905112503 | 88 | 307 | 1.7 | 5.2 | 0.00 | 0.00 | 0.00 | 28 | 1018.4 |
| 20260905112305 | 88 | 291 | 1.7 | 5.2 | 0.00 | 0.00 | 0.00 | 28 | 1018.4 |
| 20260905112203 | 88 | 281 | 1.7 | 5.2 | 0.00 | 0.00 | 0.00 | 28 | 1018.5 |
| 20260905112103 | 88 | 281 | 1.7 | 5.2 | 0.00 | 0.00 | 0.00 | 28 | 1018.4 |
| 20260905112009 | 88 | 198 | 1.7 | 4.3 | 0.00 | 0.00 | 0.00 | 28 | 1018.7 |
| 20260905112003 | 88 | 299 | 1.7 | 5.2 | 0.00 | 0.00 | 0.00 | 29 | 1018.5 |
| 20260905111903 | 88 | 303 | 1.7 | 5.2 | 0.00 | 0.00 | 0.00 | 29 | 1018.5 |
| 20260905111803 | 88 | 296 | 1.7 | 5.2 | 0.00 | 0.00 | 0.00 | 29 | 1018.5 |
| 20260905111703 | 88 | 309 | 1.7 | 5.2 | 0.00 | 0.00 | 0.00 | 29 | 1018.5 |
| 20260905111603 | 88 | 318 | 1.7 | 5.2 | 0.00 | 0.00 | 0.00 | 29 | 1018.5 |
| 20260905111526 | 88 | 323 | 2.6 | 4.3 | 0.00 | 0.00 | 0.00 | 29 | 1018.8 |
| 20260905111503 | 88 | 316 | 1.7 | 5.2 | 0.00 | 0.00 | 0.00 | 29 | 1018.5 |
| 20260905111403 | 88 | 294 | 1.7 | 4.3 | 0.00 | 0.00 | 0.00 | 29 | 1018.5 |
| 20260905111303 | 88 | 314 | 1.7 | 4.3 | 0.00 | 0.00 | 0.00 | 29 | 1018.5 |
| 20260905111103 | 88 | 310 | 1.7 | 4.3 | 0.00 | 0.00 | 0.00 | 29 | 1018.5 |
| 20260905111011 | 88 | 360 | 1.7 | 4.3 | 0.00 | 0.00 | 0.00 | 29 | 1018.8 |
| 20260905111003 | 88 | 299 | 1.7 | 4.3 | 0.00 | 0.00 | 0.00 | 29 | 1018.5 |
| 20260905110903 | 88 | 301 | 1.7 | 4.3 | 0.00 | 0.00 | 0.00 | 29 | 1018.6 |
| 20260905110803 | 88 | 300 | 1.7 | 4.3 | 0.00 | 0.00 | 0.00 | 29 | 1018.6 |
| 20260905110703 | 88 | 296 | 1.7 | 4.3 | 0.00 | 0.00 | 0.00 | 29 | 1018.5 |
| 20260905110517 | 88 | 311 | 0.9 | 4.3 | 0.00 | 0.00 | 0.00 | 29 | 1018.8 |
| 20260905110503 | 88 | 304 | 1.7 | 4.3 | 0.00 | 0.00 | 0.00 | 30 | 1018.5 |
| 20260905110403 | 88 | 317 | 1.7 | 3.5 | 0.00 | 0.00 | 0.00 | 30 | 1018.6 |
| 20260905110303 | 88 | 326 | 1.7 | 3.5 | 0.00 | 0.00 | 0.00 | 30 | 1018.6 |
| 20260905110203 | 88 | 328 | 1.7 | 3.5 | 0.00 | 0.00 | 0.00 | 30 | 1018.6 |
| 20260905110026 | 87 | 266 | 0.0 | 4.3 | 0.00 | 0.00 | 0.00 | 29 | 1018.9 |
| 20260905110003 | 88 | 328 | 1.7 | 7.0 | 0.00 | 0.00 | 0.00 | 30 | 1018.5 |
| 20260905105903 | 88 | 322 | 1.7 | 7.0 | 0.00 | 0.00 | 0.00 | 30 | 1018.6 |
| 20260905105703 | 88 | 319 | 1.7 | 7.0 | 0.00 | 0.00 | 0.00 | 29 | 1018.6 |
| 20260905105603 | 88 | 312 | 1.7 | 7.0 | 0.00 | 0.00 | 0.00 | 29 | 1018.6 |
| 20260905105514 | 88 | 331 | 2.6 | 6.1 | 0.00 | 0.00 | 0.00 | 29 | 1018.9 |
| 20260905105503 | 88 | 310 | 1.7 | 7.0 | 0.00 | 0.00 | 0.00 | 29 | 1018.6 |
| 20260905105403 | 88 | 307 | 1.7 | 7.0 | 0.00 | 0.00 | 0.00 | 29 | 1018.6 |
| 20260905105306 | 88 | 301 | 1.7 | 7.0 | 0.00 | 0.00 | 0.00 | 29 | 1018.6 |
| 20260905105103 | 89 | 301 | 1.7 | 7.0 | 0.00 | 0.00 | 0.00 | 30 | 1018.6 |
| 20260905105016 | 88 | 306 | 2.6 | 6.1 | 0.00 | 0.00 | 0.00 | 29 | 1018.9 |
| 20260905105003 | 89 | 303 | 1.7 | 7.0 | 0.00 | 0.00 | 0.00 | 30 | 1018.6 |
| 20260905104803 | 89 | 303 | 1.7 | 3.5 | 0.00 | 0.00 | 0.00 | 30 | 1018.5 |
| 20260905104703 | 89 | 297 | 1.7 | 3.5 | 0.00 | 0.00 | 0.00 | 30 | 1018.6 |
| 20260905104603 | 89 | 86 | 1.7 | 3.5 | 0.00 | 0.00 | 0.00 | 30 | 1018.6 |
| 20260905104530 | 88 | 294 | 0.9 | 3.5 | 0.00 | 0.00 | 0.00 | 30 | 1018.9 |
| 20260905104503 | 89 | 78 | 1.7 | 2.6 | 0.00 | 0.00 | 0.00 | 30 | 1018.6 |
| 20260905104403 | 89 | 96 | 1.7 | 2.6 | 0.00 | 0.00 | 0.00 | 30 | 1018.7 |
| 20260905104317 | 89 | 75 | 1.7 | 1.7 | 0.00 | 0.00 | 0.00 | 30 | 1018.6 |
| 20260905104203 | 89 | 71 | 1.7 | 1.7 | 0.00 | 0.00 | 0.00 | 30 | 1018.6 |
| 20260905104004 | 88 | 346 | 0.0 | 1.7 | 0.00 | 0.00 | 0.00 | 30 | 1018.9 |
| 20260905103903 | 88 | 121 | 1.7 | 1.7 | 0.00 | 0.00 | 0.00 | 30 | 1018.7 |
| 20260905103803 | 88 | 149 | 1.7 | 1.7 | 0.00 | 0.00 | 0.00 | 30 | 1018.8 |
| 20260905103703 | 88 | 216 | 1.7 | 1.7 | 0.00 | 0.00 | 0.00 | 30 | 1018.8 |
| 20260905103603 | 88 | 251 | 1.7 | 1.7 | 0.00 | 0.00 | 0.00 | 30 | 1018.8 |
| 20260905103505 | 88 | 301 | 0.0 | 1.7 | 0.00 | 0.00 | 0.00 | 30 | 1019.1 |
| 20260905103503 | 88 | 273 | 1.7 | 1.7 | 0.00 | 0.00 | 0.00 | 30 | 1018.8 |
| 20260905103403 | 88 | 311 | 1.7 | 1.7 | 0.00 | 0.00 | 0.00 | 31 | 1018.8 |
| 20260905103203 | 88 | 220 | 1.7 | 1.7 | 0.00 | 0.00 | 0.00 | 31 | 1018.9 |
| 20260905103103 | 88 | 230 | 1.7 | 1.7 | 0.00 | 0.00 | 0.00 | 31 | 1018.9 |
| 20260905103012 | 87 | 132 | 0.0 | 1.7 | 0.00 | 0.00 | 0.00 | 31 | 1019.2 |
| 20260905103003 | 87 | 243 | 1.7 | 1.7 | 0.00 | 0.00 | 0.00 | 32 | 1019.0 |
| 20260905102903 | 87 | 272 | 1.7 | 1.7 | 0.00 | 0.00 | 0.00 | 32 | 1018.9 |
| 20260905102803 | 87 | 247 | 1.7 | 1.7 | 0.00 | 0.00 | 0.00 | 32 | 1019.0 |
| 20260905102603 | 87 | 334 | 1.7 | 1.7 | 0.00 | 0.00 | 0.00 | 32 | 1019.0 |
| 20260905102510 | 86 | 341 | 0.0 | 1.7 | 0.00 | 0.00 | 0.00 | 32 | 1019.3 |
| 20260905102503 | 87 | 319 | 1.7 | 1.7 | 0.00 | 0.00 | 0.00 | 32 | 1019.0 |
| 20260905102306 | 86 | 295 | 1.7 | 2.6 | 0.00 | 0.00 | 0.00 | 32 | 1019.1 |
| 20260905102203 | 86 | 304 | 1.7 | 2.6 | 0.00 | 0.00 | 0.00 | 32 | 1019.0 |
| 20260905102103 | 86 | 309 | 1.7 | 2.6 | 0.00 | 0.00 | 0.00 | 32 | 1019.1 |
| 20260905102008 | 86 | 323 | 0.0 | 1.7 | 0.00 | 0.00 | 0.00 | 32 | 1019.4 |
| 20260905102003 | 86 | 310 | 1.7 | 2.6 | 0.00 | 0.00 | 0.00 | 33 | 1019.1 |
| 20260905101903 | 86 | 306 | 1.7 | 2.6 | 0.00 | 0.00 | 0.00 | 33 | 1019.1 |
| 20260905101803 | 86 | 311 | 1.7 | 2.6 | 0.00 | 0.00 | 0.00 | 33 | 1019.1 |
| 20260905101703 | 85 | 314 | 1.7 | 2.6 | 0.00 | 0.00 | 0.00 | 33 | 1019.2 |
| 20260905101603 | 85 | 301 | 1.7 | 2.6 | 0.00 | 0.00 | 0.00 | 33 | 1019.2 |
| 20260905101521 | 85 | 260 | 0.9 | 2.6 | 0.00 | 0.00 | 0.00 | 33 | 1019.5 |
| 20260905101503 | 85 | 309 | 1.7 | 2.6 | 0.00 | 0.00 | 0.00 | 34 | 1019.2 |
| 20260905101403 | 85 | 313 | 1.7 | 2.6 | 0.00 | 0.00 | 0.00 | 34 | 1019.2 |
| 20260905101303 | 85 | 340 | 1.7 | 2.6 | 0.00 | 0.00 | 0.00 | 34 | 1019.2 |
| 20260905101203 | 85 | 336 | 1.7 | 2.6 | 0.00 | 0.00 | 0.00 | 34 | 1019.2 |
| 20260905101103 | 85 | 333 | 1.7 | 2.6 | 0.00 | 0.00 | 0.00 | 34 | 1019.2 |
| 20260905101010 | 84 | 326 | 0.9 | 2.6 | 0.00 | 0.00 | 0.00 | 34 | 1019.5 |
| 20260905101003 | 85 | 334 | 1.7 | 2.6 | 0.00 | 0.00 | 0.00 | 34 | 1019.3 |
| 20260905100803 | 84 | 336 | 1.7 | 2.6 | 0.00 | 0.00 | 0.00 | 34 | 1019.3 |
| 20260905100703 | 84 | 335 | 1.7 | 3.5 | 0.00 | 0.00 | 0.00 | 34 | 1019.3 |
| 20260905100603 | 84 | 64 | 1.7 | 3.5 | 0.00 | 0.00 | 0.00 | 35 | 1019.3 |
| 20260905100511 | 84 | 96 | 0.0 | 2.6 | 0.00 | 0.00 | 0.00 | 34 | 1019.6 |
| 20260905100503 | 84 | 19 | 1.7 | 3.5 | 0.00 | 0.00 | 0.00 | 35 | 1019.3 |
| 20260905100403 | 84 | 88 | 1.7 | 3.5 | 0.00 | 0.00 | 0.00 | 35 | 1019.3 |
| 20260905100303 | 84 | 79 | 1.7 | 3.5 | 0.00 | 0.00 | 0.00 | 35 | 1019.4 |
| 20260905100203 | 84 | 80 | 1.7 | 3.5 | 0.00 | 0.00 | 0.00 | 35 | 1019.4 |
| 20260905100033 | 83 | 310 | 0.9 | 2.6 | 0.00 | 0.00 | 0.00 | 35 | 1019.6 |
| 20260905100003 | 84 | 81 | 1.7 | 3.5 | 0.00 | 0.00 | 0.00 | 35 | 1019.4 |
| 20260905095903 | 83 | 88 | 1.7 | 3.5 | 0.00 | 0.00 | 0.00 | 35 | 1019.4 |
| 20260905095803 | 83 | 95 | 1.7 | 3.5 | 0.00 | 0.00 | 0.00 | 35 | 1019.4 |
| 20260905095703 | 83 | 105 | 1.7 | 3.5 | 0.00 | 0.00 | 0.00 | 35 | 1019.4 |
| 20260905095603 | 83 | 78 | 1.7 | 3.5 | 0.00 | 0.00 | 0.00 | 35 | 1019.4 |
| 20260905095515 | 83 | 360 | 0.9 | 3.5 | 0.00 | 0.00 | 0.00 | 35 | 1019.7 |
| 20260905095503 | 83 | 72 | 1.7 | 3.5 | 0.00 | 0.00 | 0.00 | 35 | 1019.5 |
| 20260905095403 | 83 | 50 | 1.7 | 3.5 | 0.00 | 0.00 | 0.00 | 35 | 1019.5 |
| 20260905095305 | 83 | 60 | 1.7 | 3.5 | 0.00 | 0.00 | 0.00 | 35 | 1019.5 |
| 20260905095203 | 83 | 65 | 1.7 | 3.5 | 0.00 | 0.00 | 0.00 | 36 | 1019.5 |
| 20260905095103 | 83 | 65 | 1.7 | 3.5 | 0.00 | 0.00 | 0.00 | 36 | 1019.5 |
| 20260905095013 | 83 | 24 | 0.9 | 3.5 | 0.00 | 0.00 | 0.00 | 36 | 1019.8 |
| 20260905095003 | 83 | 61 | 1.7 | 3.5 | 0.00 | 0.00 | 0.00 | 36 | 1019.5 |
| 20260905094903 | 83 | 48 | 1.7 | 3.5 | 0.00 | 0.00 | 0.00 | 36 | 1019.5 |
| 20260905094703 | 83 | 10 | 1.7 | 3.5 | 0.00 | 0.00 | 0.00 | 36 | 1019.5 |
| 20260905094603 | 83 | 31 | 1.7 | 3.5 | 0.00 | 0.00 | 0.00 | 35 | 1019.6 |
| 20260905094529 | 83 | 14 | 0.9 | 2.6 | 0.00 | 0.00 | 0.00 | 35 | 1019.9 |
| 20260905094503 | 83 | 50 | 1.7 | 3.5 | 0.00 | 0.00 | 0.00 | 35 | 1019.5 |
| 20260905094403 | 83 | 60 | 1.7 | 3.5 | 0.00 | 0.00 | 0.00 | 35 | 1019.5 |
| 20260905094317 | 83 | 50 | 1.7 | 3.5 | 0.00 | 0.00 | 0.00 | 35 | 1019.6 |
| 20260905094203 | 83 | 15 | 1.7 | 3.5 | 0.00 | 0.00 | 0.00 | 35 | 1019.6 |
| 20260905094014 | 82 | 352 | 1.7 | 2.6 | 0.00 | 0.00 | 0.00 | 35 | 1019.9 |
| 20260905093903 | 83 | 35 | 1.7 | 3.5 | 0.00 | 0.00 | 0.00 | 36 | 1019.6 |
| 20260905093803 | 83 | 52 | 1.7 | 3.5 | 0.00 | 0.00 | 0.00 | 36 | 1019.6 |
| 20260905093703 | 83 | 20 | 1.7 | 3.5 | 0.00 | 0.00 | 0.00 | 36 | 1019.6 |
| 20260905093603 | 83 | 4 | 1.7 | 3.5 | 0.00 | 0.00 | 0.00 | 36 | 1019.6 |
| 20260905093518 | 82 | 141 | 0.9 | 3.5 | 0.00 | 0.00 | 0.00 | 35 | 1019.9 |
| 20260905093503 | 83 | 354 | 1.7 | 3.5 | 0.00 | 0.00 | 0.00 | 36 | 1019.6 |
| 20260905093403 | 83 | 346 | 1.7 | 3.5 | 0.00 | 0.00 | 0.00 | 36 | 1019.6 |
| 20260905093303 | 83 | 344 | 1.7 | 3.5 | 0.00 | 0.00 | 0.00 | 36 | 1019.6 |
| 20260905093203 | 83 | 354 | 1.7 | 3.5 | 0.00 | 0.00 | 0.00 | 36 | 1019.6 |
| 20260905093103 | 83 | 4 | 1.7 | 3.5 | 0.00 | 0.00 | 0.00 | 36 | 1019.7 |
| 20260905093013 | 82 | 325 | 0.9 | 3.5 | 0.00 | 0.00 | 0.00 | 35 | 1020.0 |
| 20260905092903 | 83 | 14 | 1.7 | 3.5 | 0.00 | 0.00 | 0.00 | 36 | 1019.7 |
| 20260905092803 | 83 | 45 | 1.7 | 4.3 | 0.00 | 0.00 | 0.00 | 36 | 1019.7 |
| 20260905092603 | 83 | 14 | 1.7 | 4.3 | 0.00 | 0.00 | 0.00 | 36 | 1019.7 |
| 20260905092508 | 83 | 333 | 0.9 | 4.3 | 0.00 | 0.00 | 0.00 | 35 | 1020.0 |
| 20260905092503 | 83 | 75 | 1.7 | 4.3 | 0.00 | 0.00 | 0.00 | 36 | 1019.7 |
| 20260905092403 | 83 | 82 | 1.7 | 4.3 | 0.00 | 0.00 | 0.00 | 36 | 1019.6 |
| 20260905092306 | 83 | 18 | 1.7 | 4.3 | 0.00 | 0.00 | 0.00 | 36 | 1019.7 |
| 20260905092203 | 83 | 328 | 1.7 | 4.3 | 0.00 | 0.00 | 0.00 | 36 | 1019.6 |
| 20260905092103 | 83 | 301 | 1.7 | 4.3 | 0.00 | 0.00 | 0.00 | 36 | 1019.7 |
| 20260905092009 | 83 | 12 | 0.9 | 4.3 | 0.00 | 0.00 | 0.00 | 35 | 1020.0 |
| 20260905092003 | 83 | 297 | 1.7 | 4.3 | 0.00 | 0.00 | 0.00 | 36 | 1019.7 |
| 20260905091703 | 83 | 348 | 1.7 | 3.5 | 0.00 | 0.00 | 0.00 | 36 | 1019.8 |
| 20260905091603 | 83 | 31 | 1.7 | 3.5 | 0.00 | 0.00 | 0.00 | 36 | 1019.8 |
| 20260905091519 | 83 | 149 | 0.9 | 3.5 | 0.00 | 0.00 | 0.00 | 36 | 1020.0 |
| 20260905091403 | 83 | 360 | 1.7 | 3.5 | 0.00 | 0.00 | 0.00 | 36 | 1019.8 |
| 20260905091303 | 83 | 50 | 1.7 | 3.5 | 0.00 | 0.00 | 0.00 | 36 | 1019.9 |
| 20260905091203 | 83 | 43 | 1.7 | 2.6 | 0.00 | 0.00 | 0.00 | 36 | 1019.8 |
| 20260905091103 | 83 | 62 | 1.7 | 2.6 | 0.00 | 0.00 | 0.00 | 36 | 1019.9 |
| 20260905091008 | 83 | 315 | 0.9 | 1.7 | 0.00 | 0.00 | 0.00 | 36 | 1020.2 |
| 20260905091003 | 83 | 69 | 1.7 | 2.6 | 0.00 | 0.00 | 0.00 | 37 | 1019.9 |
| 20260905090803 | 83 | 347 | 1.7 | 2.6 | 0.00 | 0.00 | 0.00 | 37 | 1019.9 |
| 20260905090703 | 83 | 293 | 1.7 | 2.6 | 0.00 | 0.00 | 0.00 | 37 | 1019.9 |
| 20260905090603 | 82 | 255 | 1.7 | 2.6 | 0.00 | 0.00 | 0.00 | 37 | 1019.9 |
| 20260905090512 | 82 | 85 | 0.9 | 2.6 | 0.00 | 0.00 | 0.00 | 37 | 1020.2 |
| 20260905090503 | 82 | 182 | 1.7 | 3.5 | 0.00 | 0.00 | 0.00 | 37 | 1019.9 |
| 20260905090203 | 82 | 140 | 1.7 | 3.5 | 0.00 | 0.00 | 0.00 | 37 | 1019.9 |
| 20260905090103 | 82 | 135 | 1.7 | 3.5 | 0.00 | 0.00 | 0.00 | 38 | 1019.9 |
| 20260905090024 | 81 | 284 | 0.9 | 3.5 | 0.00 | 0.00 | 0.00 | 37 | 1020.2 |
| 20260905090003 | 82 | 135 | 1.7 | 3.5 | 0.00 | 0.00 | 0.00 | 38 | 1019.9 |
| 20260905085903 | 82 | 119 | 1.7 | 3.5 | 0.00 | 0.00 | 0.00 | 38 | 1019.9 |
| 20260905085703 | 82 | 121 | 1.7 | 3.5 | 0.00 | 0.00 | 0.00 | 38 | 1019.9 |
| 20260905085603 | 82 | 120 | 1.7 | 3.5 | 0.00 | 0.00 | 0.00 | 38 | 1020.0 |
| 20260905085515 | 81 | 126 | 1.7 | 3.5 | 0.00 | 0.00 | 0.00 | 37 | 1020.2 |
| 20260905085503 | 82 | 82 | 1.7 | 3.5 | 0.00 | 0.00 | 0.00 | 38 | 1020.0 |
| 20260905085305 | 81 | 4 | 1.7 | 2.6 | 0.00 | 0.00 | 0.00 | 38 | 1020.0 |
| 20260905085203 | 81 | 39 | 1.7 | 2.6 | 0.00 | 0.00 | 0.00 | 38 | 1020.0 |
| 20260905085103 | 81 | 53 | 1.7 | 2.6 | 0.00 | 0.00 | 0.00 | 38 | 1020.0 |
| 20260905085016 | 81 | 261 | 0.0 | 2.6 | 0.00 | 0.00 | 0.00 | 38 | 1020.3 |
| 20260905085003 | 81 | 77 | 1.7 | 2.6 | 0.00 | 0.00 | 0.00 | 38 | 1020.0 |
| 20260905084903 | 81 | 66 | 1.7 | 2.6 | 0.00 | 0.00 | 0.00 | 38 | 1020.0 |
| 20260905084803 | 80 | 74 | 1.7 | 2.6 | 0.00 | 0.00 | 0.00 | 38 | 1020.1 |
| 20260905084526 | 80 | 90 | 0.9 | 2.6 | 0.00 | 0.00 | 0.00 | 39 | 1020.4 |
| 20260905084503 | 80 | 46 | 1.7 | 2.6 | 0.00 | 0.00 | 0.00 | 39 | 1020.1 |
| 20260905084403 | 80 | 38 | 1.7 | 2.6 | 0.00 | 0.00 | 0.00 | 39 | 1020.1 |
| 20260905084303 | 80 | 61 | 1.7 | 2.6 | 0.00 | 0.00 | 0.00 | 40 | 1020.1 |
| 20260905084203 | 80 | 29 | 1.7 | 2.6 | 0.00 | 0.00 | 0.00 | 40 | 1020.2 |
| 20260905084103 | 80 | 18 | 1.7 | 1.7 | 0.00 | 0.00 | 0.00 | 40 | 1020.1 |
| 20260905084016 | 79 | 131 | 0.9 | 2.6 | 0.00 | 0.00 | 0.00 | 39 | 1020.4 |
| 20260905084003 | 80 | 356 | 1.7 | 2.6 | 0.00 | 0.00 | 0.00 | 40 | 1020.2 |
| 20260905083903 | 80 | 353 | 1.7 | 2.6 | 0.00 | 0.00 | 0.00 | 40 | 1020.2 |
| 20260905083803 | 80 | 353 | 1.7 | 2.6 | 0.00 | 0.00 | 0.00 | 40 | 1020.2 |
| 20260905083703 | 80 | 4 | 1.7 | 2.6 | 0.00 | 0.00 | 0.00 | 40 | 1020.2 |
| 20260905083603 | 80 | 7 | 1.7 | 2.6 | 0.00 | 0.00 | 0.00 | 40 | 1020.2 |
| 20260905083517 | 79 | 306 | 0.9 | 2.6 | 0.00 | 0.00 | 0.00 | 40 | 1020.5 |
| 20260905083303 | 80 | 336 | 1.7 | 2.6 | 0.00 | 0.00 | 0.00 | 40 | 1020.2 |
| 20260905083203 | 80 | 330 | 1.7 | 2.6 | 0.00 | 0.00 | 0.00 | 40 | 1020.3 |
| 20260905083103 | 80 | 339 | 1.7 | 2.6 | 0.00 | 0.00 | 0.00 | 40 | 1020.3 |
| 20260905083032 | 79 | 298 | 0.9 | 2.6 | 0.00 | 0.00 | 0.00 | 39 | 1020.5 |
| 20260905083003 | 80 | 340 | 1.7 | 2.6 | 0.00 | 0.00 | 0.00 | 40 | 1020.3 |
| 20260905082903 | 79 | 29 | 1.7 | 1.7 | 0.00 | 0.00 | 0.00 | 40 | 1020.3 |
| 20260905082703 | 79 | 71 | 1.7 | 1.7 | 0.00 | 0.00 | 0.00 | 40 | 1020.3 |
| 20260905082603 | 79 | 171 | 1.7 | 1.7 | 0.00 | 0.00 | 0.00 | 40 | 1020.3 |
| 20260905082514 | 79 | 344 | 0.9 | 1.7 | 0.00 | 0.00 | 0.00 | 40 | 1020.6 |
| 20260905082503 | 79 | 154 | 1.7 | 2.6 | 0.00 | 0.00 | 0.00 | 41 | 1020.3 |
| 20260905082403 | 79 | 95 | 1.7 | 2.6 | 0.00 | 0.00 | 0.00 | 41 | 1020.3 |
| 20260905082306 | 79 | 60 | 1.7 | 2.6 | 0.00 | 0.00 | 0.00 | 41 | 1020.3 |
| 20260905082103 | 78 | 31 | 1.7 | 2.6 | 0.00 | 0.00 | 0.00 | 41 | 1020.3 |
| 20260905082007 | 78 | 188 | 0.0 | 2.6 | 0.00 | 0.00 | 0.00 | 41 | 1020.6 |
| 20260905082003 | 78 | 18 | 1.7 | 2.6 | 0.00 | 0.00 | 0.00 | 41 | 1020.4 |
| 20260905081903 | 78 | 30 | 1.7 | 2.6 | 0.00 | 0.00 | 0.00 | 41 | 1020.3 |
| 20260905081803 | 78 | 349 | 1.7 | 2.6 | 0.00 | 0.00 | 0.00 | 41 | 1020.4 |
| 20260905081703 | 78 | 341 | 1.7 | 2.6 | 0.00 | 0.00 | 0.00 | 41 | 1020.4 |
| 20260905081603 | 78 | 344 | 1.7 | 2.6 | 0.00 | 0.00 | 0.00 | 41 | 1020.4 |
| 20260905081520 | 78 | 40 | 0.9 | 2.6 | 0.00 | 0.00 | 0.00 | 41 | 1020.7 |
| 20260905081503 | 78 | 342 | 1.7 | 2.6 | 0.00 | 0.00 | 0.00 | 41 | 1020.4 |
| 20260905081403 | 78 | 341 | 1.7 | 2.6 | 0.00 | 0.00 | 0.00 | 41 | 1020.4 |
| 20260905081203 | 78 | 50 | 1.7 | 2.6 | 0.00 | 0.00 | 0.00 | 42 | 1020.4 |
| 20260905081103 | 78 | 57 | 1.7 | 2.6 | 0.00 | 0.00 | 0.00 | 42 | 1020.4 |
| 20260905081008 | 78 | 352 | 0.9 | 2.6 | 0.00 | 0.00 | 0.00 | 41 | 1020.7 |
| 20260905081003 | 78 | 78 | 1.7 | 2.6 | 0.00 | 0.00 | 0.00 | 42 | 1020.4 |
| 20260905080903 | 78 | 41 | 1.7 | 2.6 | 0.00 | 0.00 | 0.00 | 42 | 1020.5 |
| 20260905080803 | 78 | 78 | 1.7 | 2.6 | 0.00 | 0.00 | 0.00 | 42 | 1020.4 |
| 20260905080703 | 78 | 84 | 1.7 | 2.6 | 0.00 | 0.00 | 0.00 | 42 | 1020.4 |
| 20260905080603 | 77 | 70 | 1.7 | 2.6 | 0.00 | 0.00 | 0.00 | 42 | 1020.4 |
| 20260905080507 | 77 | 53 | 0.9 | 2.6 | 0.00 | 0.00 | 0.00 | 42 | 1020.7 |
| 20260905080503 | 77 | 83 | 1.7 | 2.6 | 0.00 | 0.00 | 0.00 | 42 | 1020.5 |
| 20260905080403 | 77 | 91 | 1.7 | 2.6 | 0.00 | 0.00 | 0.00 | 42 | 1020.5 |
| 20260905080303 | 77 | 75 | 1.7 | 2.6 | 0.00 | 0.00 | 0.00 | 42 | 1020.5 |
| 20260905080203 | 77 | 78 | 1.7 | 2.6 | 0.00 | 0.00 | 0.00 | 43 | 1020.5 |
| 20260905080027 | 76 | 304 | 0.0 | 2.6 | 0.00 | 0.00 | 0.00 | 42 | 1020.7 |
| 20260905080003 | 77 | 78 | 1.7 | 2.6 | 0.00 | 0.00 | 0.00 | 43 | 1020.5 |
| 20260905075903 | 77 | 80 | 1.7 | 2.6 | 0.00 | 0.00 | 0.00 | 43 | 1020.5 |
| 20260905075603 | 76 | 98 | 1.7 | 3.5 | 0.00 | 0.00 | 0.00 | 43 | 1020.5 |
| 20260905075512 | 76 | 120 | 0.9 | 2.6 | 0.00 | 0.00 | 0.00 | 43 | 1020.7 |
| 20260905075503 | 76 | 87 | 1.7 | 3.5 | 0.00 | 0.00 | 0.00 | 43 | 1020.5 |
| 20260905075403 | 76 | 66 | 1.7 | 3.5 | 0.00 | 0.00 | 0.00 | 43 | 1020.5 |
| 20260905075306 | 76 | 41 | 1.7 | 3.5 | 0.00 | 0.00 | 0.00 | 43 | 1020.5 |
| 20260905075203 | 76 | 344 | 1.7 | 3.5 | 0.00 | 0.00 | 0.00 | 43 | 1020.5 |
| 20260905075103 | 76 | 346 | 1.7 | 3.5 | 0.00 | 0.00 | 0.00 | 43 | 1020.5 |
| 20260905075011 | 76 | 77 | 0.0 | 2.6 | 0.00 | 0.00 | 0.00 | 43 | 1020.7 |
| 20260905075003 | 76 | 348 | 1.7 | 3.5 | 0.00 | 0.00 | 0.00 | 43 | 1020.5 |
| 20260905074903 | 76 | 338 | 1.7 | 3.5 | 0.00 | 0.00 | 0.00 | 43 | 1020.5 |
| 20260905074817 | 76 | 335 | 1.7 | 3.5 | 0.00 | 0.00 | 0.00 | 43 | 1020.5 |
| 20260905074703 | 77 | 333 | 1.7 | 3.5 | 0.00 | 0.00 | 0.00 | 42 | 1020.5 |
| 20260905074528 | 76 | 81 | 0.9 | 1.7 | 0.00 | 0.00 | 0.00 | 42 | 1020.8 |
| 20260905074503 | 77 | 351 | 1.7 | 1.7 | 0.00 | 0.00 | 0.00 | 42 | 1020.5 |
| 20260905074403 | 77 | 6 | 1.7 | 1.7 | 0.00 | 0.00 | 0.00 | 42 | 1020.5 |
| 20260905074303 | 77 | 37 | 1.7 | 3.5 | 0.00 | 0.00 | 0.00 | 42 | 1020.6 |
| 20260905074203 | 77 | 90 | 1.7 | 3.5 | 0.00 | 0.00 | 0.00 | 42 | 1020.6 |
| 20260905074103 | 78 | 114 | 1.7 | 3.5 | 0.00 | 0.00 | 0.00 | 42 | 1020.5 |
| 20260905074013 | 77 | 360 | 0.0 | 3.5 | 0.00 | 0.00 | 0.00 | 41 | 1020.8 |
| 20260905074003 | 77 | 119 | 1.7 | 3.5 | 0.00 | 0.00 | 0.00 | 42 | 1020.6 |
| 20260905073918 | 77 | 124 | 1.7 | 3.5 | 0.00 | 0.00 | 0.00 | 42 | 1020.6 |
| 20260905073717 | 77 | 124 | 1.7 | 3.5 | 0.00 | 0.00 | 0.00 | 42 | 1020.6 |
| 20260905073603 | 77 | 123 | 1.7 | 3.5 | 0.00 | 0.00 | 0.00 | 42 | 1020.5 |
| 20260905073513 | 77 | 65 | 0.0 | 3.5 | 0.00 | 0.00 | 0.00 | 42 | 1020.8 |
| 20260905073403 | 77 | 125 | 1.7 | 3.5 | 0.00 | 0.00 | 0.00 | 42 | 1020.6 |
| 20260905073303 | 77 | 121 | 1.7 | 3.5 | 0.00 | 0.00 | 0.00 | 42 | 1020.6 |
| 20260905073203 | 77 | 124 | 1.7 | 3.5 | 0.00 | 0.00 | 0.00 | 43 | 1020.5 |
| 20260905073103 | 76 | 120 | 1.7 | 3.5 | 0.00 | 0.00 | 0.00 | 43 | 1020.5 |
| 20260905073031 | 76 | 89 | 0.0 | 2.6 | 0.00 | 0.00 | 0.00 | 43 | 1020.8 |
| 20260905073003 | 76 | 124 | 1.7 | 3.5 | 0.00 | 0.00 | 0.00 | 43 | 1020.6 |
| 20260905072903 | 76 | 119 | 1.7 | 3.5 | 0.00 | 0.00 | 0.00 | 43 | 1020.5 |
| 20260905072803 | 76 | 114 | 1.7 | 3.5 | 0.00 | 0.00 | 0.00 | 43 | 1020.5 |
| 20260905072703 | 76 | 107 | 1.7 | 3.5 | 0.00 | 0.00 | 0.00 | 43 | 1020.5 |
| 20260905072603 | 76 | 109 | 1.7 | 3.5 | 0.00 | 0.00 | 0.00 | 43 | 1020.5 |
| 20260905072521 | 76 | 194 | 0.9 | 2.6 | 0.00 | 0.00 | 0.00 | 43 | 1020.8 |
| 20260905072403 | 76 | 107 | 1.7 | 2.6 | 0.00 | 0.00 | 0.00 | 44 | 1020.5 |
| 20260905072306 | 76 | 103 | 1.7 | 2.6 | 0.00 | 0.00 | 0.00 | 44 | 1020.6 |
| 20260905072203 | 76 | 100 | 1.7 | 2.6 | 0.00 | 0.00 | 0.00 | 44 | 1020.5 |
| 20260905072103 | 76 | 105 | 1.7 | 2.6 | 0.00 | 0.00 | 0.00 | 44 | 1020.5 |
| 20260905072018 | 75 | 71 | 0.0 | 2.6 | 0.00 | 0.00 | 0.00 | 44 | 1020.8 |
| 20260905072003 | 76 | 106 | 1.7 | 2.6 | 0.00 | 0.00 | 0.00 | 44 | 1020.5 |
| 20260905071918 | 76 | 112 | 1.7 | 2.6 | 0.00 | 0.00 | 0.00 | 44 | 1020.5 |
| 20260905071803 | 76 | 107 | 1.7 | 2.6 | 0.00 | 0.00 | 0.00 | 44 | 1020.4 |
| 20260905071603 | 76 | 113 | 1.7 | 2.6 | 0.00 | 0.00 | 0.00 | 44 | 1020.5 |
| 20260905071531 | 75 | 119 | 0.0 | 2.6 | 0.00 | 0.00 | 0.00 | 44 | 1020.7 |
| 20260905071503 | 76 | 112 | 1.7 | 2.6 | 0.00 | 0.00 | 0.00 | 44 | 1020.5 |
| 20260905071303 | 76 | 113 | 1.7 | 2.6 | 0.00 | 0.00 | 0.00 | 44 | 1020.5 |
| 20260905071203 | 76 | 116 | 1.7 | 2.6 | 0.00 | 0.00 | 0.00 | 44 | 1020.5 |
| 20260905071103 | 76 | 115 | 1.7 | 1.7 | 0.00 | 0.00 | 0.00 | 44 | 1020.5 |
| 20260905071008 | 75 | 119 | 0.0 | 1.7 | 0.00 | 0.00 | 0.00 | 44 | 1020.8 |
| 20260905071003 | 76 | 114 | 1.7 | 1.7 | 0.00 | 0.00 | 0.00 | 44 | 1020.5 |
| 20260905070903 | 76 | 105 | 1.7 | 1.7 | 0.00 | 0.00 | 0.00 | 45 | 1020.6 |
| 20260905070703 | 75 | 125 | 1.7 | 1.7 | 0.00 | 0.00 | 0.00 | 45 | 1020.6 |
| 20260905070603 | 75 | 119 | 1.7 | 1.7 | 0.00 | 0.00 | 0.00 | 45 | 1020.5 |
| 20260905070508 | 75 | 126 | 0.9 | 1.7 | 0.00 | 0.00 | 0.00 | 45 | 1020.8 |
| 20260905070503 | 75 | 115 | 1.7 | 1.7 | 0.00 | 0.00 | 0.00 | 46 | 1020.6 |
| 20260905070403 | 75 | 117 | 1.7 | 1.7 | 0.00 | 0.00 | 0.00 | 46 | 1020.6 |
| 20260905070303 | 74 | 73 | 1.7 | 1.7 | 0.00 | 0.00 | 0.00 | 46 | 1020.6 |
| 20260905070031 | 74 | 104 | 0.0 | 1.7 | 0.00 | 0.00 | 0.00 | 46 | 1020.8 |
| 20260905070003 | 74 | 45 | 1.7 | 1.7 | 0.00 | 0.00 | 0.00 | 46 | 1020.5 |
| 20260905065903 | 74 | 45 | 1.7 | 1.7 | 0.00 | 0.00 | 0.00 | 46 | 1020.6 |
| 20260905065803 | 74 | 61 | 1.7 | 1.7 | 0.00 | 0.00 | 0.00 | 47 | 1020.6 |
| 20260905065510 | 73 | 336 | 0.0 | 1.7 | 0.00 | 0.00 | 0.00 | 46 | 1020.8 |
| 20260905065503 | 73 | 95 | 1.7 | 1.7 | 0.00 | 0.00 | 0.00 | 47 | 1020.5 |
| 20260905065403 | 73 | 109 | 1.7 | 1.7 | 0.00 | 0.00 | 0.00 | 47 | 1020.6 |
| 20260905065306 | 73 | 118 | 1.7 | 2.6 | 0.00 | 0.00 | 0.00 | 47 | 1020.6 |
| 20260905065103 | 73 | 116 | 1.7 | 2.6 | 0.00 | 0.00 | 0.00 | 47 | 1020.6 |
| 20260905065012 | 73 | 63 | 0.0 | 2.6 | 0.00 | 0.00 | 0.00 | 47 | 1020.8 |
| 20260905065003 | 73 | 123 | 1.7 | 2.6 | 0.00 | 0.00 | 0.00 | 48 | 1020.6 |
| 20260905064918 | 73 | 118 | 1.7 | 2.6 | 0.00 | 0.00 | 0.00 | 47 | 1020.6 |
| 20260905064603 | 73 | 112 | 1.7 | 2.6 | 0.00 | 0.00 | 0.00 | 48 | 1020.6 |
| 20260905064526 | 73 | 140 | 0.9 | 2.6 | 0.00 | 0.00 | 0.00 | 47 | 1020.8 |
| 20260905064503 | 73 | 100 | 1.7 | 2.6 | 0.00 | 0.00 | 0.00 | 47 | 1020.5 |
| 20260905064303 | 73 | 85 | 1.7 | 2.6 | 0.00 | 0.00 | 0.00 | 48 | 1020.6 |
| 20260905064203 | 73 | 91 | 1.7 | 1.7 | 0.00 | 0.00 | 0.00 | 48 | 1020.6 |
| 20260905064103 | 73 | 87 | 1.7 | 1.7 | 0.00 | 0.00 | 0.00 | 48 | 1020.5 |
| 20260905064011 | 72 | 352 | 0.0 | 1.7 | 0.00 | 0.00 | 0.00 | 47 | 1020.8 |
| 20260905064003 | 73 | 106 | 1.7 | 1.7 | 0.00 | 0.00 | 0.00 | 48 | 1020.6 |
| 20260905063903 | 72 | 107 | 1.7 | 1.7 | 0.00 | 0.00 | 0.00 | 48 | 1020.6 |
| 20260905063803 | 72 | 107 | 1.7 | 1.7 | 0.00 | 0.00 | 0.00 | 48 | 1020.6 |
| 20260905063703 | 72 | 104 | 1.7 | 1.7 | 0.00 | 0.00 | 0.00 | 48 | 1020.6 |
| 20260905063603 | 72 | 101 | 1.7 | 1.7 | 0.00 | 0.00 | 0.00 | 48 | 1020.6 |
| 20260905063515 | 72 | 86 | 0.9 | 1.7 | 0.00 | 0.00 | 0.00 | 48 | 1020.8 |
| 20260905063503 | 72 | 106 | 1.7 | 1.7 | 0.00 | 0.00 | 0.00 | 48 | 1020.6 |
| 20260905063403 | 72 | 104 | 1.7 | 1.7 | 0.00 | 0.00 | 0.00 | 48 | 1020.6 |
| 20260905063303 | 72 | 108 | 1.7 | 3.5 | 0.00 | 0.00 | 0.00 | 48 | 1020.5 |
| 20260905063103 | 72 | 112 | 1.7 | 3.5 | 0.00 | 0.00 | 0.00 | 49 | 1020.6 |
| 20260905063026 | 71 | 150 | 0.0 | 2.6 | 0.00 | 0.00 | 0.00 | 48 | 1020.8 |
| 20260905063003 | 72 | 106 | 1.7 | 3.5 | 0.00 | 0.00 | 0.00 | 49 | 1020.6 |
| 20260905062903 | 72 | 109 | 1.7 | 3.5 | 0.00 | 0.00 | 0.00 | 49 | 1020.5 |
| 20260905062803 | 72 | 112 | 1.7 | 3.5 | 0.00 | 0.00 | 0.00 | 48 | 1020.5 |
| 20260905062703 | 72 | 113 | 1.7 | 3.5 | 0.00 | 0.00 | 0.00 | 48 | 1020.5 |
| 20260905062603 | 72 | 116 | 1.7 | 3.5 | 0.00 | 0.00 | 0.00 | 48 | 1020.5 |
| 20260905062514 | 71 | 121 | 0.9 | 2.6 | 0.00 | 0.00 | 0.00 | 48 | 1020.8 |
| 20260905062503 | 72 | 116 | 1.7 | 3.5 | 0.00 | 0.00 | 0.00 | 48 | 1020.5 |
| 20260905062403 | 72 | 121 | 1.7 | 3.5 | 0.00 | 0.00 | 0.00 | 48 | 1020.5 |
| 20260905062305 | 72 | 118 | 1.7 | 3.5 | 0.00 | 0.00 | 0.00 | 49 | 1020.5 |
| 20260905062103 | 72 | 120 | 1.7 | 1.7 | 0.00 | 0.00 | 0.00 | 49 | 1020.6 |
| 20260905062016 | 72 | 126 | 0.9 | 1.7 | 0.00 | 0.00 | 0.00 | 49 | 1020.8 |
| 20260905062003 | 72 | 117 | 1.7 | 1.7 | 0.00 | 0.00 | 0.00 | 49 | 1020.6 |
| 20260905061903 | 72 | 115 | 1.7 | 1.7 | 0.00 | 0.00 | 0.00 | 50 | 1020.5 |
| 20260905061803 | 72 | 115 | 1.7 | 1.7 | 0.00 | 0.00 | 0.00 | 50 | 1020.5 |
| 20260905061703 | 72 | 120 | 1.7 | 1.7 | 0.00 | 0.00 | 0.00 | 50 | 1020.5 |
| 20260905061531 | 71 | 59 | 0.0 | 1.7 | 0.00 | 0.00 | 0.00 | 50 | 1020.8 |
| 20260905061503 | 71 | 118 | 1.7 | 1.7 | 0.00 | 0.00 | 0.00 | 50 | 1020.5 |
| 20260905061403 | 71 | 119 | 1.7 | 1.7 | 0.00 | 0.00 | 0.00 | 51 | 1020.5 |
| 20260905061303 | 71 | 120 | 1.7 | 1.7 | 0.00 | 0.00 | 0.00 | 50 | 1020.6 |
| 20260905061203 | 71 | 123 | 1.7 | 1.7 | 0.00 | 0.00 | 0.00 | 50 | 1020.6 |
| 20260905061103 | 71 | 122 | 1.7 | 1.7 | 0.00 | 0.00 | 0.00 | 51 | 1020.5 |
| 20260905061020 | 71 | 107 | 0.9 | 1.7 | 0.00 | 0.00 | 0.00 | 50 | 1020.8 |
| 20260905061003 | 71 | 119 | 1.7 | 1.7 | 0.00 | 0.00 | 0.00 | 51 | 1020.6 |
| 20260905060903 | 71 | 121 | 1.7 | 1.7 | 0.00 | 0.00 | 0.00 | 51 | 1020.6 |
| 20260905060803 | 71 | 118 | 1.7 | 1.7 | 0.00 | 0.00 | 0.00 | 51 | 1020.6 |
| 20260905060703 | 71 | 112 | 1.7 | 1.7 | 0.00 | 0.00 | 0.00 | 51 | 1020.6 |
| 20260905060603 | 71 | 109 | 1.7 | 1.7 | 0.00 | 0.00 | 0.00 | 51 | 1020.6 |
| 20260905060513 | 70 | 128 | 0.0 | 1.7 | 0.00 | 0.00 | 0.00 | 51 | 1020.9 |
| 20260905060503 | 70 | 103 | 1.7 | 1.7 | 0.00 | 0.00 | 0.00 | 51 | 1020.5 |
| 20260905060403 | 70 | 92 | 1.7 | 1.7 | 0.00 | 0.00 | 0.00 | 52 | 1020.5 |
| 20260905060203 | 70 | 76 | 1.7 | 1.7 | 0.00 | 0.00 | 0.00 | 52 | 1020.6 |
| 20260905060103 | 70 | 80 | 1.7 | 1.7 | 0.00 | 0.00 | 0.00 | 52 | 1020.6 |
| 20260905060036 | 69 | 65 | 0.0 | 1.7 | 0.00 | 0.00 | 0.00 | 52 | 1020.8 |
| 20260905060003 | 70 | 72 | 1.7 | 1.7 | 0.00 | 0.00 | 0.00 | 53 | 1020.6 |
| 20260905055903 | 70 | 68 | 1.7 | 1.7 | 0.00 | 0.00 | 0.00 | 53 | 1020.5 |
| 20260905055803 | 69 | 61 | 1.7 | 1.7 | 0.00 | 0.00 | 0.00 | 53 | 1020.6 |
| 20260905055703 | 69 | 76 | 1.7 | 1.7 | 0.00 | 0.00 | 0.00 | 53 | 1020.5 |
| 20260905055603 | 69 | 76 | 1.7 | 1.7 | 0.00 | 0.00 | 0.00 | 53 | 1020.6 |
| 20260905055510 | 68 | 32 | 0.0 | 1.7 | 0.00 | 0.00 | 0.00 | 53 | 1020.9 |
| 20260905055503 | 69 | 95 | 1.7 | 1.7 | 0.00 | 0.00 | 0.00 | 54 | 1020.6 |
| 20260905055306 | 68 | 354 | 1.7 | 1.7 | 0.00 | 0.00 | 0.00 | 54 | 1020.6 |
| 20260905055203 | 68 | 326 | 1.7 | 1.7 | 0.00 | 0.00 | 0.00 | 55 | 1020.6 |
| 20260905055103 | 68 | 317 | 1.7 | 1.7 | 0.00 | 0.00 | 0.00 | 55 | 1020.6 |
| 20260905055011 | 67 | 332 | 0.0 | 1.7 | 0.00 | 0.00 | 0.00 | 54 | 1020.8 |
| 20260905055003 | 68 | 311 | 1.7 | 1.7 | 0.00 | 0.00 | 0.00 | 55 | 1020.6 |
| 20260905054903 | 68 | 311 | 1.7 | 1.7 | 0.00 | 0.00 | 0.00 | 55 | 1020.6 |
| 20260905054818 | 67 | 311 | 1.7 | 1.7 | 0.00 | 0.00 | 0.00 | 55 | 1020.5 |
| 20260905054703 | 67 | 301 | 1.7 | 1.7 | 0.00 | 0.00 | 0.00 | 56 | 1020.5 |
| 20260905054523 | 67 | 313 | 0.0 | 1.7 | 0.00 | 0.00 | 0.00 | 56 | 1020.8 |
| 20260905054503 | 67 | 139 | 1.7 | 1.7 | 0.00 | 0.00 | 0.00 | 56 | 1020.5 |
| 20260905054403 | 67 | 132 | 1.7 | 1.7 | 0.00 | 0.00 | 0.00 | 56 | 1020.5 |
| 20260905054303 | 67 | 128 | 1.7 | 1.7 | 0.00 | 0.00 | 0.00 | 56 | 1020.5 |
| 20260905054203 | 67 | 126 | 1.7 | 1.7 | 0.00 | 0.00 | 0.00 | 57 | 1020.5 |
| 20260905054103 | 66 | 124 | 1.7 | 1.7 | 0.00 | 0.00 | 0.00 | 57 | 1020.5 |
| 20260905054016 | 66 | 136 | 0.0 | 1.7 | 0.00 | 0.00 | 0.00 | 56 | 1020.8 |
| 20260905054003 | 66 | 123 | 1.7 | 1.7 | 0.00 | 0.00 | 0.00 | 57 | 1020.5 |
| 20260905053903 | 66 | 121 | 1.7 | 1.7 | 0.00 | 0.00 | 0.00 | 58 | 1020.5 |
| 20260905053803 | 66 | 118 | 1.7 | 1.7 | 0.00 | 0.00 | 0.00 | 58 | 1020.5 |
| 20260905053703 | 66 | 114 | 1.7 | 1.7 | 0.00 | 0.00 | 0.00 | 58 | 1020.5 |
| 20260905053603 | 66 | 111 | 1.7 | 1.7 | 0.00 | 0.00 | 0.00 | 58 | 1020.5 |
| 20260905053512 | 66 | 128 | 0.0 | 1.7 | 0.00 | 0.00 | 0.00 | 58 | 1020.7 |
| 20260905053403 | 66 | 109 | 1.7 | 1.7 | 0.00 | 0.00 | 0.00 | 58 | 1020.5 |
| 20260905053303 | 66 | 108 | 1.7 | 1.7 | 0.00 | 0.00 | 0.00 | 58 | 1020.5 |
| 20260905053103 | 66 | 91 | 1.7 | 1.7 | 0.00 | 0.00 | 0.00 | 58 | 1020.5 |
| 20260905053028 | 65 | 111 | 0.9 | 1.7 | 0.00 | 0.00 | 0.00 | 58 | 1020.8 |
| 20260905053003 | 66 | 91 | 1.7 | 1.7 | 0.00 | 0.00 | 0.00 | 59 | 1020.5 |
| 20260905052903 | 66 | 93 | 1.7 | 1.7 | 0.00 | 0.00 | 0.00 | 59 | 1020.5 |
| 20260905052803 | 65 | 90 | 1.7 | 1.7 | 0.00 | 0.00 | 0.00 | 59 | 1020.5 |
| 20260905052703 | 65 | 84 | 1.7 | 1.7 | 0.00 | 0.00 | 0.00 | 60 | 1020.5 |
| 20260905052603 | 65 | 84 | 1.7 | 1.7 | 0.00 | 0.00 | 0.00 | 60 | 1020.4 |
| 20260905052515 | 65 | 109 | 0.0 | 1.7 | 0.00 | 0.00 | 0.00 | 59 | 1020.7 |
| 20260905052503 | 65 | 84 | 1.7 | 1.7 | 0.00 | 0.00 | 0.00 | 60 | 1020.4 |
| 20260905052306 | 65 | 63 | 1.7 | 1.7 | 0.00 | 0.00 | 0.00 | 60 | 1020.4 |
| 20260905052203 | 64 | 131 | 1.7 | 1.7 | 0.00 | 0.00 | 0.00 | 60 | 1020.4 |
| 20260905052103 | 64 | 132 | 1.7 | 1.7 | 0.00 | 0.00 | 0.00 | 61 | 1020.5 |
| 20260905052016 | 64 | 113 | 0.0 | 1.7 | 0.00 | 0.00 | 0.00 | 61 | 1020.7 |
| 20260905052003 | 64 | 135 | 1.7 | 1.7 | 0.00 | 0.00 | 0.00 | 61 | 1020.4 |
| 20260905051903 | 64 | 135 | 1.7 | 1.7 | 0.00 | 0.00 | 0.00 | 62 | 1020.4 |
| 20260905051803 | 64 | 135 | 1.7 | 1.7 | 0.00 | 0.00 | 0.00 | 62 | 1020.4 |
| 20260905051603 | 64 | 135 | 1.7 | 1.7 | 0.00 | 0.00 | 0.00 | 62 | 1020.4 |